[[{"header":{"parameterUnit":"m.s-1","parameterCategory":1,"la1":31.0,"la2":29.5877,"lo1":-88.7671,"lo2":-86.6584,"dx":0.0162,"dy":0.0185,"nx":115,"ny":88,"refTime":"2022-11-21T06:00:00:Z","depth":0,"parameterNumber":2,"parameterNumberName":"U-component_of_WINDS"},"data":[0.0,0.0,0.0,0.0,0.0,0.0,0.0,0.0,0.0,0.0,0.0,0.0,0.0,0.0,0.0,0.0,0.0,0.0,0.0,0.0,0.0,0.0,0.0,0.0,0.0,0.0,0.0,0.0,0.0,0.0,0.0,0.0,0.0,0.0,0.0,0.0,0.0,0.0,0.0,0.0,0.0,0.0,0.0,0.0,0.0,0.0,0.0,0.0,0.0,0.0,0.0,0.0,0.0,0.0,0.0,0.0,0.0,0.0,0.0,0.0,0.0,0.0,0.0,0.0,0.0,0.0,0.0,0.0,0.0,0.0,0.0,0.0,0.0,0.0,0.0,0.0,0.0,0.0,0.0,0.0,0.0,0.0,0.0,0.0,0.0,0.0,0.0,0.0,0.0,0.0,0.0,0.0,0.0,0.0,0.0,0.0,0.0,0.0,0.0,0.0,0.0,0.0,0.0,0.0,0.0,0.0,0.0,0.0,0.0,0.0,0.0,0.0,0.0,0.0,0.0,0.0,0.0,0.0,0.0,0.0,0.0,0.0,0.0,0.0,0.0,0.0,0.0,0.0,0.0,0.0,0.0,0.0,0.0,0.0,0.0,0.0,0.0,0.0,0.0,0.0,0.0,0.0,0.0,0.0,0.0,0.0,0.0,0.0,0.0,0.0,0.0,0.0,0.0,0.0,0.0,0.0,0.0,0.0,0.0,0.0,0.0,0.0,0.0,0.0,0.0,0.0,0.0,0.0,0.0,0.0,0.0,0.0,0.0,0.0,0.0,0.0,0.0,0.0,0.0,0.0,0.0,0.0,0.0,0.0,0.0,0.0,0.0,0.0,0.0,0.0,0.0,0.0,0.0,0.0,0.0,0.0,0.0,0.0,0.0,0.0,0.0,0.0,0.0,0.0,0.0,0.0,0.0,0.0,0.0,0.0,0.0,0.0,0.0,0.0,0.0,0.0,0.0,0.0,0.0,0.0,0.0,0.0,0.0,0.0,0.0,0.0,0.0,0.0,0.0,0.0,0.0,0.0,0.0,0.0,0.0,0.0,0.0,0.0,0.0,0.0,0.0,0.0,0.0,0.0,0.0,0.0,0.0,0.0,0.0,0.0,0.0,0.0,0.0,0.0,0.0,0.0,0.0,0.0,0.0,0.0,0.0,0.0,0.0,0.0,0.0,0.0,0.0,0.0,0.0,0.0,0.0,0.0,0.0,0.0,0.0,0.0,0.0,0.0,0.0,0.0,0.0,0.0,0.0,0.0,0.0,0.0,0.0,0.0,0.0,0.0,0.0,0.0,0.0,0.0,0.0,0.0,0.0,0.0,0.0,0.0,0.0,0.0,0.0,0.0,0.0,0.0,0.0,0.0,0.0,0.0,0.0,0.0,0.0,0.0,0.0,0.0,0.0,0.0,0.0,0.0,0.0,0.0,0.0,0.0,0.0,0.0,0.0,0.0,0.0,0.0,0.0,0.0,0.0,0.0,0.0,0.0,0.0,0.0,0.0,0.0,0.0,0.0,0.0,0.0,0.0,0.0,0.0,0.0,0.0,0.0,0.0,0.0,0.0,0.0,0.0,0.0,0.0,0.0,0.0,0.0,0.0,0.0,0.0,0.0,0.0,0.0,0.0,0.0,0.0,0.0,0.0,0.0,0.0,0.0,0.0,0.0,0.0,0.0,0.0,0.0,0.0,0.0,0.0,0.0,0.0,0.0,0.0,0.0,0.0,0.0,0.0,0.0,0.0,0.0,0.0,0.0,0.0,0.0,0.0,0.0,0.0,0.0,0.0,0.0,0.0,0.0,0.0,0.0,0.0,0.0,0.0,0.0,0.0,0.0,0.0,0.0,0.0,0.0,0.0,0.0,0.0,0.0,0.0,0.0,0.0,0.0,0.0,0.0,0.0,0.0,0.0,0.0,0.0,0.0,0.0,0.0,0.0,0.0,0.0,0.0,0.0,0.0,0.0,0.0,0.0,0.0,0.0,0.0,0.0,0.0,0.0,0.0,0.0,0.0,0.0,0.0,0.0,0.0,0.0,0.0,0.0,0.0,0.0,0.0,0.0,0.0,0.0,0.0,0.0,0.0,0.0,0.0,0.0,0.0,0.0,0.0,0.0,0.0,0.0,0.0,0.0,0.0,0.0,0.0,0.0,0.0,0.0,0.0,0.0,0.0,0.0,0.0,0.0,0.0,0.0,0.0,0.0,0.0,0.0,0.0,0.0,0.0,0.0,0.0,0.0,0.0,0.0,0.0,0.0,0.0,0.0,0.0,0.0,0.0,0.0,0.0,0.0,0.0,0.0,0.0,0.0,0.0,0.0,0.0,0.0,0.0,0.0,0.0,0.0,0.0,0.0,0.0,0.0,0.0,0.0,0.0,0.0,0.0,0.0,0.0,0.0,0.0,0.0,0.0,0.0,0.0,0.0,0.0,0.0,0.0,0.0,0.0,0.0,0.0,0.0,0.0,0.0,0.0,0.0,0.0,0.0,0.0,0.0,0.0,0.0,0.0,0.0,0.0,0.0,0.0,0.0,0.0,0.0,0.0,0.0,0.0,0.0,0.0,0.0,0.0,0.0,0.0,0.0,0.0,0.0,0.0,0.0,0.0,0.0,0.0,0.0,0.0,0.0,0.0,0.0,0.0,0.0,0.0,0.0,0.0,0.0,0.0,0.0,0.0,0.0,0.0,0.0,0.0,0.0,0.0,0.0,0.0,0.0,0.0,0.0,0.0,0.0,0.0,0.0,0.0,0.0,0.0,0.0,0.0,0.0,0.0,0.0,0.0,0.0,0.0,0.0,0.0,0.0,0.0,0.0,0.0,0.0,0.0,0.0,0.0,0.0,0.0,0.0,0.0,0.0,0.0,0.0,0.0,0.0,0.0,0.0,0.0,0.0,0.0,0.0,0.0,0.0,0.0,0.0,0.0,0.0,0.0,0.0,0.0,0.0,0.0,0.0,0.0,0.0,0.0,0.0,0.0,0.0,0.0,0.0,0.0,0.0,0.0,0.0,0.0,0.0,0.0,0.0,0.0,0.0,0.0,0.0,0.0,0.0,0.0,0.0,0.0,0.0,0.0,0.0,0.0,0.0,0.0,0.0,0.0,0.0,0.0,0.0,0.0,0.0,0.0,0.0,0.0,0.0,0.0,0.0,0.0,0.0,0.0,0.0,0.0,0.0,0.0,0.0,0.0,0.0,0.0,0.0,0.0,0.0,0.0,0.0,0.0,0.0,0.0,0.0,0.0,0.0,0.0,0.0,0.0,0.0,0.0,0.0,0.0,0.0,0.0,0.0,0.0,0.0,0.0,0.0,0.0,0.0,0.0,0.0,0.0,0.0,0.0,0.0,0.0,0.0,0.0,0.0,0.0,0.0,0.0,0.0,0.0,0.0,0.0,0.0,0.0,0.0,0.0,0.0,0.0,0.0,0.0,0.0,0.0,0.0,0.0,0.0,0.0,0.0,0.0,0.0,0.0,0.0,0.0,0.0,0.0,0.0,0.0,0.0,0.0,0.0,0.0,0.0,0.0,0.0,0.0,0.0,0.0,0.0,0.0,0.0,0.0,0.0,0.0,0.0,0.0,0.0,0.0,0.0,0.0,0.0,0.0,0.0,0.0,0.0,0.0,0.0,0.0,0.0,0.0,0.0,0.0,0.0,0.0,0.0,0.0,0.0,0.0,0.0,0.0,0.0,0.0,0.0,0.0,0.0,0.0,0.0,0.0,0.0,0.0,0.0,0.0,0.0,0.0,0.0,0.0,0.0,0.0,0.0,0.0,0.0,0.0,0.0,0.0,0.0,0.0,0.0,0.0,0.0,0.0,0.0,0.0,0.0,0.0,0.0,0.0,0.0,0.0,0.0,0.0,0.0,0.0,0.0,0.0,0.0,0.0,0.0,0.0,0.0,0.0,0.0,0.0,0.0,0.0,0.0,0.0,0.0,0.0,0.0,0.0,0.0,0.0,0.0,0.0,0.0,0.0,0.0,0.0,0.0,0.0,0.0,0.0,0.0,0.0,0.0,0.0,0.0,0.0,0.0,0.0,0.0,0.0,0.0,0.0,0.0,0.0,0.0,0.0,0.0,0.0,0.0,0.0,0.0,0.0,0.0,0.0,0.0,0.0,0.0,0.0,0.0,0.0,0.0,0.0,0.0,0.0,0.0,0.0,0.0,0.0,0.0,0.0,0.0,0.0,0.0,0.0,0.0,0.0,0.0,0.0,0.0,0.0,0.0,0.0,0.0,0.0,0.0,0.0,0.0,0.0,1.2919,0.0,0.0,0.0,1.2492,0.0,0.0,0.0,0.0,0.0,0.0,0.0,0.0,0.0,0.0,0.0,0.0,0.0,0.0,0.0,0.0,0.0,0.0,0.0,0.0,0.0,0.0,0.0,0.0,0.0,0.0,0.0,0.0,0.0,0.0,0.0,0.0,0.0,0.0,0.0,0.0,0.0,0.0,0.0,0.0,0.0,0.0,0.0,0.0,0.0,0.0,0.0,0.0,0.0,0.0,0.0,0.0,0.0,0.0,0.0,0.0,0.0,0.0,0.0,0.0,0.0,0.0,0.0,0.0,0.0,0.0,0.0,0.0,0.0,0.0,0.0,0.0,0.0,0.0,0.0,0.0,0.0,0.0,0.0,0.0,0.0,0.0,0.0,0.0,0.0,0.0,0.0,0.0,0.0,0.0,0.0,0.0,0.0,0.0,0.0,0.0,0.0,0.0,0.0,0.0,0.0,0.0,0.0,0.0,0.0,0.0,0.0,0.0,0.0,0.0,1.2919,1.2345,1.3467,1.352,1.2371,0.0,0.0,0.0,0.0,0.0,0.0,0.0,0.0,0.0,0.0,0.0,0.0,0.0,0.0,0.0,0.0,0.0,0.0,0.0,0.0,0.0,0.0,0.0,0.0,0.0,0.0,0.0,0.0,0.0,0.0,0.0,0.0,0.0,0.0,0.0,0.0,0.0,0.0,0.0,0.0,0.0,0.0,0.0,0.0,0.0,0.0,0.0,0.0,0.0,0.0,0.0,0.0,0.0,0.0,0.0,0.0,0.0,0.0,0.0,0.0,0.0,0.0,0.0,0.0,0.0,0.0,0.0,0.0,0.0,0.0,0.0,0.0,0.0,0.0,0.0,0.0,0.0,0.0,0.0,0.0,0.0,0.0,0.0,0.0,0.0,0.0,0.0,0.0,0.0,0.0,0.0,0.0,0.0,0.0,0.0,0.0,0.0,0.0,0.0,0.0,0.0,0.0,0.0,0.0,0.0,0.0,0.0,0.0,0.0,0.0,0.0,0.0,1.3547,1.3615,1.2559,0.0,0.0,0.0,0.0,0.0,0.0,0.0,0.0,0.0,0.0,0.0,0.0,0.0,0.0,0.0,0.0,0.0,0.0,0.0,0.0,0.0,0.0,0.0,0.0,0.0,0.0,0.0,0.0,0.0,0.0,0.0,0.0,0.0,0.0,0.0,0.0,0.0,0.0,0.0,0.0,0.0,0.0,0.0,0.0,0.0,0.0,0.0,0.0,0.0,0.0,0.0,0.0,0.0,0.0,0.0,0.0,0.0,0.0,0.0,0.0,0.0,0.0,0.0,0.0,0.0,0.0,0.0,0.0,0.0,0.0,0.0,0.0,0.0,0.0,0.0,0.0,0.0,0.0,0.0,0.0,0.0,0.0,0.0,0.0,0.0,0.0,0.0,0.0,0.0,0.0,0.0,0.0,0.0,0.0,0.0,0.0,0.0,0.0,0.0,0.0,0.0,0.0,0.0,0.0,0.0,0.0,0.0,0.0,0.0,0.0,1.4022,1.3185,1.3909,0.0,1.3171,0.0,0.0,0.0,0.0,0.0,0.0,0.0,0.0,0.0,0.0,0.0,0.0,0.0,0.0,0.0,0.0,0.0,0.0,0.0,0.0,0.0,0.0,0.0,0.0,0.0,0.0,0.0,0.0,0.0,0.0,0.0,0.0,0.0,0.0,0.0,0.0,0.0,0.0,0.0,0.0,0.0,0.0,0.0,0.0,0.0,0.0,0.0,0.0,0.0,0.0,0.0,0.0,0.0,0.0,0.0,0.0,0.0,0.0,0.0,0.0,0.0,0.0,0.0,0.0,0.0,0.0,0.0,0.0,0.0,0.0,0.0,0.0,0.0,0.0,0.0,0.0,0.0,0.0,0.0,0.0,0.0,0.0,0.0,0.0,0.0,0.0,0.0,0.0,0.0,0.0,0.0,0.0,0.0,0.0,0.0,0.0,0.0,0.0,0.0,0.0,0.0,0.0,0.0,0.0,0.0,0.0,0.0,0.0,0.0,0.0,1.3262,1.32,1.3324,1.3146,0.0,0.0,0.0,0.0,0.0,0.0,0.0,0.0,0.0,0.0,0.0,0.0,0.0,0.0,0.0,0.0,0.0,0.0,0.0,0.0,0.0,0.0,0.0,0.0,0.0,0.0,0.0,0.0,0.0,0.0,0.0,0.0,0.0,0.0,0.0,0.0,0.0,0.0,0.0,0.0,0.0,0.0,0.0,0.0,0.0,0.0,0.0,0.0,0.0,0.0,0.0,0.0,0.0,0.0,0.0,0.0,0.0,0.0,0.0,0.0,0.0,0.0,0.0,0.0,0.0,0.0,0.0,0.0,0.0,0.0,0.0,0.0,0.0,0.0,0.0,0.0,0.0,0.0,0.0,0.0,0.0,0.0,0.0,0.0,0.0,0.0,0.0,0.0,0.0,0.0,0.0,0.0,0.0,0.0,0.0,0.0,0.0,0.0,0.0,0.0,0.0,0.0,0.0,0.0,0.0,0.0,0.0,0.0,0.0,0.0,1.3888,1.4109,1.4396,1.3653,1.3061,1.2783,0.0,0.0,0.0,0.0,0.0,0.0,0.0,0.0,0.0,0.0,0.0,0.0,0.0,0.0,0.0,0.0,0.0,0.0,0.0,0.0,0.0,0.0,0.0,0.0,0.0,0.0,0.0,0.0,0.0,0.0,0.0,0.0,0.0,0.0,0.0,0.0,0.0,0.0,0.0,0.0,0.0,0.0,0.0,0.0,0.0,0.0,0.0,0.0,0.0,0.0,0.0,0.0,0.0,0.0,0.0,0.0,0.0,0.0,0.0,0.0,0.0,0.0,0.0,0.0,0.0,0.0,0.0,0.0,0.0,0.0,0.0,0.0,0.0,0.0,0.0,0.0,0.0,0.0,0.0,0.0,0.0,0.0,0.0,0.0,0.0,0.0,0.0,0.0,0.0,0.0,0.0,0.0,0.0,0.0,0.0,0.0,0.0,0.0,0.0,0.0,0.0,0.0,0.0,0.0,0.0,0.0,0.0,0.0,1.7456,1.7593,1.7764,1.7476,1.5324,1.4016,0.0,0.0,0.0,0.0,0.0,0.0,0.0,0.0,0.0,0.0,0.0,0.0,0.0,0.0,0.0,0.0,0.0,0.0,0.0,0.0,0.0,0.0,0.0,0.0,0.0,0.0,0.0,0.0,0.0,0.0,0.0,0.0,0.0,0.0,0.0,0.0,0.0,0.0,0.0,0.0,0.0,0.0,0.0,0.0,0.0,0.0,0.0,0.0,0.0,0.0,0.0,0.0,0.0,0.0,0.0,0.0,0.0,0.0,0.0,0.0,0.0,0.0,0.0,0.0,0.0,0.0,0.0,0.0,0.0,0.0,0.0,0.0,0.0,0.0,0.0,0.0,0.0,0.0,0.0,0.0,0.0,0.0,0.0,0.0,0.0,0.0,0.0,0.0,0.0,0.0,0.0,0.0,0.0,0.0,0.0,0.0,0.0,0.0,0.0,0.0,0.0,0.0,0.0,0.0,0.0,0.0,0.0,0.0,0.0,1.5389,1.5822,1.649,1.7204,1.5418,1.441,0.0,0.0,0.0,0.0,0.0,0.0,0.0,0.0,0.0,0.0,0.0,0.0,0.0,0.0,0.0,0.0,0.0,0.0,0.0,0.0,0.0,0.0,0.0,0.0,0.0,0.0,0.0,0.0,0.0,0.0,0.0,0.0,0.0,0.0,0.0,0.0,0.0,0.0,0.0,0.0,0.0,0.0,0.0,0.0,0.0,0.0,0.0,0.0,0.0,0.0,0.0,0.0,0.0,0.0,0.0,0.0,0.0,0.0,0.0,0.0,0.0,0.0,0.0,0.0,0.0,0.0,0.0,0.0,0.0,0.0,0.0,0.0,0.0,0.0,0.0,0.0,0.0,0.0,0.0,0.0,0.0,0.0,0.0,0.0,0.0,0.0,0.0,0.0,0.0,0.0,0.0,0.0,0.0,0.0,0.0,0.0,0.0,0.0,0.0,0.0,0.0,0.0,0.0,0.0,0.0,0.0,0.0,0.0,0.0,1.5591,1.6774,1.7528,1.7924,1.6738,1.5928,0.0,0.0,0.0,0.0,0.0,0.0,0.0,0.0,0.0,0.0,0.0,0.0,0.0,0.0,0.0,0.0,0.0,0.0,0.0,0.0,0.0,0.0,0.0,0.0,0.0,0.0,0.0,0.0,0.0,0.0,0.0,0.0,0.0,0.0,0.0,0.0,0.0,0.0,0.0,0.0,0.0,0.0,0.0,0.0,0.0,0.0,0.0,0.0,0.0,0.0,0.0,0.0,0.0,0.0,0.0,0.0,0.0,0.0,0.0,0.0,0.0,0.0,0.0,0.0,0.0,0.0,0.0,0.0,0.0,0.0,0.0,0.0,0.0,0.0,0.0,0.0,0.0,0.0,0.0,0.0,0.0,0.0,0.0,0.0,0.0,0.0,0.0,0.0,0.0,0.0,0.0,0.0,0.0,0.0,0.0,0.0,0.0,0.0,0.0,0.0,0.0,0.0,0.0,0.0,0.0,0.0,0.0,0.0,1.7988,1.8871,2.0944,2.1369,2.015,1.9459,1.8691,0.0,0.0,0.0,0.0,0.0,0.0,0.0,0.0,0.0,0.0,0.0,0.0,0.0,0.0,0.0,0.0,0.0,0.0,0.0,0.0,0.0,0.0,0.0,0.0,0.0,0.0,0.0,0.0,0.0,0.0,0.0,0.0,0.0,0.0,0.0,0.0,0.0,0.0,0.0,0.0,0.0,0.0,0.0,0.0,0.0,0.0,0.0,0.0,0.0,0.0,0.0,0.0,0.0,0.0,0.0,0.0,0.0,0.0,0.0,0.0,0.0,0.0,0.0,0.0,0.0,0.0,0.0,0.0,0.0,0.0,0.0,0.0,0.0,0.0,0.0,0.0,0.0,0.0,0.0,0.0,0.0,0.0,0.0,0.0,0.0,0.0,0.0,0.0,0.0,0.0,0.0,0.0,0.0,0.0,0.0,0.0,0.0,0.0,0.0,0.0,0.0,0.0,0.0,0.0,0.0,0.0,0.0,0.0,0.0,1.9626,2.0593,2.1662,2.2751,1.9795,1.8513,0.0,0.0,0.0,0.0,0.0,0.0,0.0,0.0,0.0,0.0,0.0,0.0,0.0,0.0,0.0,0.0,0.0,0.0,0.0,0.0,0.0,0.0,0.0,0.0,0.0,0.0,0.0,0.0,0.0,0.0,0.0,0.0,0.0,0.0,0.0,0.0,0.0,0.0,0.0,0.0,0.0,0.0,0.0,0.0,0.0,0.0,0.0,0.0,0.0,0.0,0.0,0.0,0.0,0.0,0.0,0.0,0.0,0.0,0.0,0.0,0.0,0.0,0.0,0.0,0.0,0.0,0.0,0.0,0.0,0.0,0.0,0.0,0.0,0.0,0.0,0.0,0.0,0.0,0.0,0.0,0.0,0.0,0.0,0.0,0.0,0.0,0.0,0.0,0.0,0.0,0.0,0.0,0.0,0.0,0.0,0.0,0.0,0.0,0.0,0.0,0.0,0.0,0.0,0.0,0.0,0.0,0.0,0.0,0.0,2.2084,2.2425,2.303,2.3967,2.1088,1.9945,2.0802,0.0,0.0,0.0,0.0,0.0,0.0,0.0,0.0,0.0,0.0,0.0,0.0,0.0,0.0,0.0,0.0,0.0,0.0,0.0,0.0,0.0,0.0,0.0,0.0,0.0,0.0,0.0,0.0,0.0,0.0,0.0,0.0,0.0,0.0,0.0,0.0,0.0,0.0,0.0,0.0,0.0,0.0,0.0,0.0,0.0,0.0,0.0,0.0,0.0,0.0,0.0,0.0,0.0,0.0,0.0,0.0,0.0,0.0,0.0,0.0,0.0,0.0,0.0,0.0,0.0,0.0,0.0,0.0,0.0,0.0,0.0,0.0,0.0,0.0,0.0,0.0,0.0,0.0,0.0,0.0,0.0,0.0,0.0,0.0,0.0,0.0,0.0,0.0,0.0,0.0,0.0,0.0,0.0,0.0,0.0,0.0,0.0,0.0,0.0,0.0,0.0,0.0,0.0,0.0,0.0,0.0,0.0,0.0,2.5834,2.6051,2.5414,2.4034,2.3216,2.2683,0.0,0.0,0.0,0.0,0.0,0.0,0.0,0.0,0.0,0.0,0.0,0.0,0.0,0.0,0.0,0.0,0.0,0.0,0.0,0.0,0.0,0.0,0.0,0.0,0.0,0.0,0.0,0.0,0.0,0.0,0.0,0.0,0.0,0.0,0.0,0.0,0.0,0.0,0.0,0.0,0.0,0.0,0.0,0.0,0.0,0.0,0.0,0.0,0.0,0.0,0.0,0.0,0.0,0.0,0.0,0.0,0.0,0.0,0.0,0.0,0.0,0.0,0.0,0.0,0.0,0.0,0.0,0.0,0.0,0.0,0.0,0.0,0.0,0.0,0.0,0.0,0.0,0.0,0.0,0.0,0.0,0.0,0.0,0.0,0.0,0.0,0.0,0.0,0.0,0.0,0.0,0.0,0.0,0.0,0.0,0.0,0.0,0.0,0.0,0.0,0.0,0.0,0.0,0.0,0.0,0.0,0.0,0.0,0.0,2.6332,2.705,2.6993,2.6208,2.3427,2.2334,0.0,0.0,0.0,0.0,0.0,0.0,0.0,0.0,0.0,0.0,0.0,0.0,0.0,0.0,0.0,0.0,0.0,0.0,0.0,0.0,0.0,0.0,0.0,0.0,0.0,0.0,0.0,0.0,0.0,0.0,0.0,0.0,0.0,0.0,0.0,0.0,0.0,0.0,0.0,0.0,0.0,0.0,0.0,0.0,0.0,0.0,0.0,0.0,0.0,0.0,0.0,0.0,0.0,0.0,0.0,0.0,0.0,0.0,0.0,0.0,0.0,0.0,0.0,0.0,0.0,0.0,0.0,0.0,0.0,0.0,0.0,0.0,0.0,0.0,0.0,0.0,0.0,0.0,0.0,0.0,0.0,0.0,0.0,0.0,0.0,0.0,0.0,0.0,0.0,0.0,0.0,0.0,0.0,0.0,0.0,0.0,0.0,0.0,0.0,0.0,0.0,0.0,0.0,0.0,0.0,0.0,0.0,0.0,2.5934,2.7883,2.8551,2.8468,2.7948,2.5071,2.3547,0.0,0.0,0.0,0.0,0.0,0.0,0.0,0.0,0.0,0.0,0.0,0.0,0.0,0.0,0.0,0.0,0.0,0.0,0.0,0.0,0.0,0.0,0.0,0.0,0.0,0.0,0.0,0.0,0.0,0.0,0.0,0.0,0.0,0.0,0.0,0.0,0.0,0.0,0.0,0.0,0.0,0.0,0.0,0.0,0.0,0.0,0.0,0.0,0.0,0.0,0.0,0.0,0.0,0.0,0.0,0.0,0.0,0.0,0.0,0.0,0.0,0.0,0.0,0.0,0.0,0.0,0.0,0.0,0.0,0.0,0.0,0.0,0.0,0.0,0.0,0.0,0.0,0.0,0.0,0.0,0.0,0.0,0.0,0.0,0.0,0.0,0.0,0.0,0.0,0.0,0.0,0.0,0.0,0.0,0.0,0.0,0.0,0.0,0.0,0.0,0.0,0.0,0.0,0.0,0.0,0.0,0.0,0.0,2.7262,2.9879,3.0073,2.987,2.914,2.716,2.5491,0.0,0.0,0.0,0.0,0.0,0.0,0.0,0.0,0.0,0.0,0.0,0.0,0.0,0.0,0.0,0.0,0.0,0.0,0.0,0.0,0.0,0.0,0.0,0.0,0.0,0.0,0.0,0.0,0.0,0.0,0.0,0.0,0.0,0.0,0.0,0.0,0.0,0.0,0.0,0.0,0.0,0.0,0.0,0.0,0.0,0.0,0.0,0.0,0.0,0.0,0.0,0.0,0.0,0.0,0.0,0.0,0.0,0.0,0.0,0.0,0.0,0.0,0.0,0.0,0.0,0.0,0.0,0.0,0.0,0.0,0.0,0.0,0.0,0.0,0.0,0.0,0.0,0.0,0.0,0.0,0.0,0.0,0.0,0.0,0.0,0.0,0.0,0.0,0.0,0.0,0.0,0.0,0.0,0.0,0.0,0.0,0.0,0.0,0.0,0.0,0.0,0.0,0.0,0.0,0.0,0.0,0.0,0.0,2.7586,3.0447,3.0267,3.0291,3.0387,2.8132,2.6206,0.0,0.0,0.0,0.0,0.0,0.0,0.0,0.0,0.0,0.0,0.0,0.0,0.0,0.0,0.0,0.0,0.0,0.0,0.0,0.0,0.0,0.0,0.0,0.0,0.0,0.0,0.0,0.0,0.0,0.0,0.0,0.0,0.0,0.0,0.0,0.0,0.0,0.0,0.0,0.0,0.0,0.0,0.0,0.0,0.0,0.0,0.0,0.0,1.9251,0.0,0.0,0.0,0.0,0.0,0.0,0.0,0.0,0.0,0.0,0.0,0.0,0.0,0.0,0.0,0.0,0.0,0.0,0.0,0.0,0.0,0.0,0.0,0.0,0.0,0.0,0.0,0.0,0.0,0.0,0.0,0.0,0.0,0.0,0.0,0.0,0.0,0.0,0.0,0.0,0.0,0.0,0.0,0.0,0.0,0.0,0.0,0.0,0.0,0.0,0.0,0.0,0.0,0.0,0.0,0.0,0.0,0.0,0.0,2.946,3.1696,3.1596,3.1359,3.1029,2.9941,2.8063,0.0,0.0,0.0,0.0,0.0,0.0,0.0,0.0,0.0,0.0,0.0,0.0,0.0,0.0,0.0,0.0,0.0,0.0,0.0,0.0,0.0,0.0,0.0,0.0,0.0,0.0,0.0,0.0,0.0,0.0,0.0,0.0,0.0,0.0,0.0,0.0,0.0,0.0,0.0,0.0,0.0,0.0,0.0,0.0,0.0,0.0,0.0,0.0,0.0,0.0,0.0,0.0,0.0,0.0,0.0,0.0,0.0,0.0,0.0,0.0,0.0,0.0,0.0,0.0,0.0,0.0,0.0,0.0,0.0,0.0,0.0,0.0,0.0,0.0,0.0,0.0,0.0,0.0,0.0,0.0,0.0,0.0,0.0,0.0,0.0,0.0,0.0,0.0,0.0,0.0,0.0,0.0,0.0,0.0,0.0,0.0,0.0,0.0,0.0,0.0,0.0,0.0,0.0,0.0,0.0,0.0,0.0,2.9412,3.1191,3.3047,3.3199,3.2786,3.1838,3.1837,3.0214,2.6313,0.0,0.0,0.0,0.0,0.0,0.0,0.0,0.0,0.0,0.0,0.0,0.0,0.0,0.0,0.0,0.0,0.0,0.0,0.0,0.0,0.0,0.0,0.0,0.0,0.0,0.0,0.0,0.0,0.0,0.0,0.0,0.0,0.0,0.0,0.0,0.0,0.0,0.0,1.5843,1.8504,0.0,0.0,0.0,0.0,0.0,0.0,0.0,0.0,2.1683,0.0,0.0,0.0,0.0,0.0,0.0,0.0,0.0,0.0,0.0,0.0,0.0,0.0,0.0,0.0,0.0,0.0,0.0,0.0,0.0,0.0,0.0,0.0,0.0,0.0,0.0,0.0,0.0,0.0,0.0,0.0,0.0,0.0,0.0,0.0,0.0,0.0,0.0,0.0,0.0,0.0,0.0,0.0,0.0,0.0,0.0,0.0,0.0,0.0,0.0,0.0,0.0,0.0,0.0,0.0,0.0,2.7814,2.8668,3.0591,3.3896,3.3766,3.3463,3.3313,3.2671,3.0709,2.712,0.0,0.0,0.0,0.0,0.0,0.0,0.0,0.0,0.0,0.0,0.0,0.0,0.0,0.0,0.0,0.0,0.0,0.0,0.0,0.0,0.0,0.0,0.0,0.0,0.0,0.0,0.0,0.0,0.0,0.0,0.0,0.0,0.0,0.0,0.0,0.0,0.0,0.0,0.0,2.2385,2.3347,0.0,0.0,0.0,0.0,0.0,0.0,0.0,0.0,2.2862,0.0,0.0,0.0,0.0,0.0,0.0,0.0,0.0,0.0,0.0,0.0,0.0,0.0,0.0,0.0,0.0,0.0,0.0,0.0,0.0,0.0,0.0,0.0,0.0,0.0,0.0,0.0,0.0,0.0,0.0,0.0,0.0,0.0,0.0,0.0,0.0,0.0,0.0,0.0,0.0,0.0,0.0,0.0,0.0,0.0,0.0,0.0,0.0,0.0,0.0,0.0,0.0,0.0,0.0,0.0,2.8703,3.073,3.2976,3.5104,3.4564,3.4202,3.3974,3.3747,3.1751,0.0,0.0,0.0,0.0,0.0,0.0,0.0,0.0,0.0,0.0,0.0,0.0,0.0,0.0,0.0,0.0,0.0,0.0,0.0,0.0,0.0,0.0,0.0,0.0,0.0,0.0,0.0,0.0,0.0,0.0,0.0,0.0,0.0,0.0,0.0,0.0,0.0,0.0,0.0,0.0,2.3727,2.4603,2.5852,0.0,0.0,0.0,0.0,0.0,0.0,2.3986,2.3687,0.0,0.0,0.0,0.0,0.0,0.0,0.0,0.0,0.0,0.0,0.0,0.0,0.0,0.0,0.0,0.0,0.0,0.0,0.0,0.0,0.0,0.0,0.0,0.0,0.0,0.0,0.0,0.0,0.0,0.0,0.0,0.0,0.0,0.0,0.0,0.0,0.0,0.0,0.0,0.0,0.0,0.0,0.0,0.0,0.0,0.0,0.0,0.0,0.0,0.0,0.0,0.0,0.0,0.0,0.0,2.9815,3.2892,3.5027,3.6282,3.5582,3.5062,3.4814,3.4931,3.2804,0.0,0.0,0.0,0.0,0.0,0.0,0.0,0.0,0.0,0.0,0.0,0.0,0.0,0.0,0.0,0.0,0.0,0.0,0.0,0.0,0.0,0.0,0.0,0.0,0.0,0.0,0.0,0.0,0.0,0.0,0.0,0.0,0.0,0.0,0.0,0.0,0.0,0.0,0.0,0.0,0.0,2.558,2.691,2.6787,0.0,0.0,0.0,0.0,2.5487,2.5354,0.0,0.0,0.0,0.0,0.0,0.0,0.0,0.0,0.0,0.0,0.0,0.0,0.0,0.0,0.0,0.0,0.0,0.0,0.0,0.0,0.0,0.0,0.0,0.0,0.0,0.0,0.0,0.0,0.0,0.0,0.0,0.0,0.0,0.0,0.0,0.0,0.0,0.0,0.0,0.0,0.0,0.0,0.0,0.0,0.0,0.0,0.0,0.0,0.0,0.0,0.0,0.0,0.0,0.0,0.0,0.0,3.0296,3.2305,3.4541,3.6911,3.6288,3.6035,3.6346,3.5781,3.3475,0.0,0.0,0.0,0.0,0.0,0.0,0.0,0.0,0.0,0.0,0.0,0.0,0.0,0.0,0.0,0.0,0.0,0.0,0.0,0.0,0.0,0.0,0.0,0.0,0.0,0.0,0.0,0.0,0.0,0.0,0.0,0.0,0.0,0.0,0.0,0.0,0.0,0.0,0.0,0.0,0.0,2.6872,2.6821,2.6968,2.7276,0.0,0.0,2.768,2.8114,2.833,0.0,0.0,0.0,0.0,0.0,0.0,0.0,0.0,0.0,0.0,0.0,0.0,0.0,0.0,0.0,0.0,0.0,0.0,0.0,0.0,0.0,0.0,0.0,0.0,0.0,0.0,0.0,0.0,0.0,0.0,0.0,0.0,0.0,0.0,0.0,0.0,0.0,0.0,0.0,0.0,0.0,0.0,0.0,0.0,0.0,0.0,0.0,0.0,0.0,0.0,0.0,0.0,0.0,0.0,0.0,2.8925,3.0567,3.3514,3.5782,3.7226,3.6934,3.6836,3.7031,3.666,3.4464,0.0,0.0,0.0,0.0,0.0,0.0,0.0,0.0,0.0,0.0,0.0,0.0,0.0,0.0,0.0,0.0,0.0,0.0,0.0,0.0,0.0,0.0,0.0,0.0,0.0,0.0,0.0,0.0,0.0,0.0,0.0,0.0,0.0,0.0,0.0,0.0,0.0,0.0,0.0,0.0,0.0,0.0,2.9711,2.9657,0.0,0.0,0.0,2.9852,2.9303,0.0,0.0,0.0,0.0,0.0,0.0,0.0,0.0,0.0,0.0,0.0,0.0,0.0,0.0,0.0,0.0,0.0,0.0,0.0,0.0,0.0,0.0,0.0,0.0,0.0,0.0,0.0,0.0,0.0,0.0,0.0,0.0,0.0,0.0,0.0,0.0,0.0,0.0,0.0,0.0,0.0,0.0,0.0,0.0,0.0,0.0,0.0,0.0,0.0,0.0,0.0,0.0,0.0,0.0,0.0,0.0,0.0,3.1013,3.477,3.7129,3.7734,3.7461,3.7461,3.7754,3.748,0.0,0.0,0.0,0.0,0.0,0.0,0.0,0.0,0.0,0.0,0.0,0.0,0.0,0.0,0.0,0.0,0.0,0.0,0.0,0.0,0.0,0.0,0.0,0.0,0.0,0.0,0.0,1.793,0.0,0.0,0.0,0.0,0.0,0.0,0.0,0.0,0.0,0.0,0.0,0.0,0.0,0.0,3.0044,3.1677,3.1672,3.1924,0.0,0.0,3.1808,3.0879,3.125,3.1074,0.0,0.0,0.0,0.0,0.0,0.0,0.0,0.0,0.0,0.0,0.0,0.0,0.0,0.0,0.0,0.0,0.0,0.0,0.0,0.0,0.0,0.0,0.0,0.0,0.0,0.0,0.0,0.0,0.0,0.0,0.0,0.0,0.0,0.0,0.0,0.0,0.0,0.0,0.0,0.0,0.0,0.0,0.0,0.0,0.0,0.0,0.0,0.0,0.0,0.0,0.0,0.0,0.0,0.0,3.082,3.2148,3.5488,3.7851,3.8984,3.791,3.7871,3.9004,3.793,3.5724,0.0,0.0,0.0,0.0,0.0,0.0,0.0,0.0,0.0,0.0,0.0,0.0,0.0,0.0,0.0,0.0,0.0,0.0,0.0,0.0,0.0,0.0,0.0,0.0,0.0,0.0,0.0,0.0,0.0,0.0,0.0,0.0,0.0,0.0,0.0,0.0,0.0,0.0,0.0,0.0,0.0,3.0181,3.1088,3.2105,3.3164,0.0,3.3867,3.3437,3.373,3.3809,3.3535,3.2598,0.0,0.0,0.0,0.0,0.0,0.0,0.0,0.0,0.0,0.0,0.0,0.0,0.0,0.0,0.0,0.0,0.0,0.0,0.0,0.0,0.0,0.0,0.0,0.0,0.0,0.0,0.0,0.0,0.0,0.0,0.0,0.0,0.0,0.0,0.0,0.0,0.0,0.0,0.0,0.0,0.0,0.0,0.0,0.0,0.0,0.0,0.0,0.0,0.0,0.0,0.0,0.0,0.0,3.1152,3.2207,3.6074,3.832,3.8789,3.8867,3.9004,3.9199,3.873,3.7164,0.0,0.0,0.0,0.0,0.0,0.0,0.0,0.0,0.0,0.0,0.0,0.0,0.0,0.0,0.0,0.0,0.0,0.0,0.0,0.0,0.0,0.0,0.0,0.0,0.0,0.0,0.0,0.0,2.2305,2.248,2.2285,0.0,0.0,0.0,0.0,0.0,0.0,0.0,0.0,0.0,0.0,3.2688,3.3272,3.4453,0.0,0.0,3.5859,3.5781,3.5684,3.5684,3.5293,3.416,3.3828,0.0,0.0,0.0,0.0,0.0,0.0,0.0,0.0,0.0,0.0,0.0,0.0,0.0,0.0,0.0,0.0,0.0,0.0,0.0,0.0,0.0,0.0,0.0,0.0,0.0,0.0,0.0,0.0,0.0,0.0,0.0,0.0,0.0,0.0,0.0,0.0,0.0,0.0,0.0,0.0,0.0,0.0,0.0,0.0,0.0,0.0,0.0,0.0,0.0,0.0,0.0,0.0,3.1758,3.2734,3.6855,3.9023,3.916,3.9766,3.998,3.9785,3.9551,3.8312,0.0,0.0,0.0,0.0,0.0,0.0,0.0,0.0,0.0,0.0,0.0,0.0,0.0,0.0,0.0,0.0,0.0,0.0,0.0,0.0,0.0,0.0,0.0,0.0,0.0,0.0,0.0,0.0,2.4004,2.3945,2.3867,0.0,0.0,0.0,0.0,0.0,0.0,0.0,0.0,0.0,0.0,3.4863,3.541,3.6269,3.6894,3.7031,3.7285,3.7383,3.709,3.7148,3.6875,3.584,0.0,0.0,0.0,0.0,0.0,0.0,0.0,0.0,0.0,0.0,0.0,0.0,0.0,0.0,0.0,0.0,0.0,0.0,0.0,0.0,0.0,0.0,0.0,0.0,0.0,0.0,0.0,1.9238,0.0,0.0,1.9238,0.0,0.0,0.0,0.0,0.0,0.0,0.0,0.0,0.0,0.0,0.0,0.0,0.0,0.0,0.0,0.0,0.0,0.0,0.0,0.0,0.0,0.0,3.2754,3.4043,3.7871,4.0059,4.0449,4.0508,4.0723,4.1094,4.0332,3.9062,3.7305,0.0,0.0,0.0,0.0,0.0,0.0,0.0,0.0,0.0,0.0,0.0,0.0,0.0,0.0,0.0,0.0,0.0,0.0,0.0,0.0,0.0,0.0,0.0,0.0,0.0,0.0,2.332,2.3965,2.5098,0.0,0.0,0.0,0.0,0.0,0.0,0.0,0.0,0.0,3.3711,3.5137,3.6289,3.7109,3.7285,3.748,3.7851,3.793,3.793,3.793,3.8262,3.8379,0.0,0.0,0.0,0.0,0.0,0.0,0.0,0.0,0.0,0.0,0.0,0.0,0.0,0.0,0.0,0.0,0.0,0.0,0.0,0.0,0.0,0.0,0.0,0.0,0.0,0.0,0.0,2.1016,2.1016,0.0,0.0,0.0,0.0,0.0,0.0,0.0,0.0,0.0,0.0,0.0,3.2578,3.332,0.0,0.0,0.0,0.0,0.0,0.0,0.0,0.0,0.0,0.0,0.0,0.0,3.3496,3.4609,3.834,4.0664,4.1348,4.1641,4.1855,4.1992,4.1465,3.9941,3.7383,0.0,0.0,0.0,0.0,0.0,0.0,0.0,0.0,0.0,0.0,0.0,0.0,0.0,0.0,0.0,0.0,0.0,0.0,0.0,0.0,0.0,0.0,0.0,0.0,0.0,2.6152,0.0,0.0,0.0,0.0,0.0,0.0,0.0,0.0,0.0,0.0,3.2109,3.3691,3.5566,3.6426,3.7187,3.8027,3.8652,3.8965,0.0,0.0,0.0,0.0,0.0,0.0,0.0,0.0,0.0,0.0,0.0,0.0,0.0,3.5488,3.4336,3.3203,3.2988,3.2988,3.2988,0.0,0.0,0.0,0.0,0.0,0.0,0.0,0.0,0.0,0.0,0.0,0.0,0.0,0.0,2.4629,2.4727,2.416,0.0,0.0,0.0,0.0,0.0,0.0,0.0,0.0,3.3223,3.4609,3.543,3.6152,3.6504,3.6484,3.6191,3.4375,0.0,0.0,0.0,0.0,0.0,0.0,0.0,0.0,3.5254,3.6348,3.9355,4.1308,4.1992,4.2422,4.2656,4.2656,4.2246,4.1094,3.9141,3.7539,3.5957,0.0,0.0,0.0,0.0,0.0,0.0,0.0,0.0,0.0,0.0,0.0,0.0,0.0,0.0,0.0,0.0,0.0,0.0,0.0,0.0,0.0,0.0,0.0,2.8848,0.0,0.0,0.0,0.0,0.0,0.0,0.0,0.0,0.0,3.3379,3.4394,3.5781,3.7344,3.793,3.8457,3.9141,0.0,0.0,0.0,0.0,0.0,0.0,0.0,4.0586,4.0,3.9785,3.9414,3.8574,3.8301,3.8203,3.8203,0.0,0.0,3.5957,3.5605,3.5605,3.5605,3.584,3.6055,3.6055,3.6523,3.7031,0.0,0.0,0.0,0.0,2.7812,0.0,0.0,0.0,2.9805,2.9805,0.0,2.8476,0.0,0.0,0.0,0.0,2.8574,3.1016,0.0,0.0,3.6699,3.7969,3.8047,3.8476,3.8672,3.8672,3.8672,3.8418,3.7793,3.4668,0.0,0.0,0.0,0.0,0.0,0.0,3.7969,3.916,4.0918,4.2051,4.25,4.293,4.3144,4.3144,4.2734,4.2461,4.2324,3.9629,3.7832,3.7266,3.332,0.0,0.0,0.0,0.0,0.0,0.0,0.0,0.0,0.0,0.0,0.0,0.0,0.0,0.0,0.0,0.0,0.0,0.0,0.0,0.0,3.1016,0.0,0.0,0.0,0.0,0.0,0.0,0.0,0.0,0.0,3.7617,3.6855,3.709,3.7832,3.9101,0.0,0.0,0.0,0.0,4.0742,4.1172,4.1562,4.1836,4.1855,4.2187,4.2441,4.2422,0.0,0.0,4.0703,4.0234,3.998,3.998,4.0273,3.9922,3.7891,3.75,3.7461,3.7461,3.8086,3.8613,3.8691,3.918,3.9785,3.4473,0.0,0.0,0.0,0.0,3.1328,3.1777,3.248,3.2363,3.2226,3.2012,3.1543,0.0,0.0,0.0,0.0,0.0,0.0,3.4707,3.6836,3.791,3.9043,4.0254,4.0684,4.0879,4.0879,4.0879,4.0801,4.0625,3.9394,3.7559,3.5254,0.0,0.0,0.0,0.0,3.8691,3.9746,4.168,4.3086,4.3828,4.4258,4.4473,4.4473,4.4062,4.3535,4.291,4.1758,4.0078,3.7832,3.5996,0.0,0.0,0.0,0.0,0.0,0.0,0.0,0.0,0.0,0.0,0.0,0.0,0.0,0.0,0.0,0.0,0.0,0.0,0.0,3.3457,3.3906,3.3906,0.0,0.0,0.0,0.0,0.0,0.0,0.0,0.0,0.0,3.9355,3.8965,3.9258,0.0,0.0,4.084,4.2168,4.209,4.2031,4.2461,4.2637,0.0,4.3125,4.3262,4.3242,4.2949,4.2519,4.2168,4.1933,4.1777,4.1699,4.1699,4.1797,4.166,4.1113,4.0449,4.0098,4.0078,4.0273,4.043,4.0449,4.0644,4.0898,3.8301,3.5644,3.4453,3.4101,3.4355,3.4512,3.5117,3.5996,3.5976,3.5937,3.582,3.5137,3.4687,3.4434,3.4101,0.0,0.0,0.0,3.7324,3.9473,3.9726,4.0508,4.1641,4.1933,4.2051,4.2051,4.2051,4.2129,4.2305,4.2051,4.1211,3.9746,0.0,3.8789,3.8984,3.9883,4.0801,4.168,4.2949,4.3945,4.4629,4.4883,4.5098,4.5273,4.5039,4.4648,4.4121,4.3691,4.2461,4.0312,3.8769,3.7305,0.0,0.0,0.0,0.0,0.0,0.0,0.0,0.0,0.0,0.0,0.0,2.8691,2.9629,0.0,0.0,0.0,3.3301,3.4687,3.5879,3.623,0.0,0.0,0.0,0.0,0.0,0.0,0.0,3.8203,3.9258,4.0254,4.0937,4.0859,4.1016,4.1719,4.1641,4.1914,4.293,0.0,4.3301,4.3574,4.375,4.3945,4.418,4.4219,4.4141,4.3887,4.3496,4.3223,4.3203,4.3066,4.2949,4.2949,4.3086,4.3203,4.3203,4.3047,4.2617,4.1855,4.1816,4.1933,4.1933,4.2051,4.2266,4.1387,4.1133,3.8379,3.7187,3.7109,3.75,3.8574,4.0078,4.0078,4.0312,4.0547,3.8984,3.8281,3.8242,3.748,0.0,3.8945,3.9355,4.0449,4.2051,4.209,4.2305,4.2676,4.2734,4.2715,4.2695,4.2676,4.2891,4.3281,4.3281,4.3691,4.4433,4.293,4.2324,4.2637,4.3027,4.3652,4.4473,4.4551,4.4805,4.5215,4.5215,4.543,4.582,4.582,4.582,4.5762,4.5391,4.4746,4.3789,4.1543,3.9844,3.8906,0.0,0.0,0.0,0.0,0.0,0.0,0.0,0.0,0.0,0.0,0.0,0.0,0.0,0.0,0.0,3.6758,0.0,3.8086,3.8125,0.0,0.0,0.0,3.9512,3.9902,4.0,4.0195,4.0586,0.0,0.0,4.1855,4.2637,4.291,4.2148,4.2695,4.3203,4.3281,4.4004,4.4512,4.457,4.4902,4.5195,4.5293,4.5293,4.5293,4.5254,4.4902,4.4707,4.4687,4.4394,4.4062,4.4121,4.4375,4.4668,4.4668,4.5254,4.5215,4.3301,4.3164,4.3359,4.3398,4.3672,4.3945,4.3105,4.3047,4.2324,4.1484,4.0605,4.0684,4.1152,4.1816,4.1836,4.1875,4.1953,4.1523,4.1348,4.1348,4.1152,4.1406,4.2031,4.2441,4.3223,4.4238,4.4609,4.4805,4.4922,4.5234,4.5215,4.4922,4.4902,4.4961,4.5058,4.5058,4.5156,4.5351,4.5273,4.4961,4.4433,4.4512,4.4824,4.5371,4.5996,4.6523,4.6953,4.6973,4.7031,4.7129,4.7129,4.6973,4.666,4.6543,4.5918,4.4766,4.3828,4.293,4.2031,3.9785,0.0,0.0,0.0,0.0,0.0,0.0,0.0,0.0,0.0,3.4941,3.5684,0.0,3.8027,0.0,3.8516,3.9453,3.9863,3.9902,0.0,0.0,4.0508,4.0625,4.041,4.0957,4.1387,4.1484,4.2148,4.2656,4.2754,4.3535,4.4121,4.4238,4.416,4.4316,4.4941,4.5215,4.5488,4.5801,4.6172,4.6582,4.6836,4.6973,4.6914,4.6973,4.6855,4.6836,4.6816,4.6738,4.666,4.666,4.6738,4.6816,4.6758,4.7012,4.6953,4.6426,4.5937,4.5527,4.5527,4.5605,4.5762,4.4297,4.4297,4.4297,4.3652,4.2656,4.2871,4.3086,4.332,4.3496,4.3691,4.3887,4.4062,4.416,4.4141,4.4141,4.4297,4.4531,4.4766,4.5234,4.5859,4.5918,4.6055,4.623,4.6289,4.6191,4.5957,4.5957,4.6055,4.623,4.623,4.6328,4.6523,4.6758,4.6641,4.6172,4.5976,4.6094,4.6523,4.6992,4.7344,4.7578,4.7578,4.7676,4.7851,4.7851,4.7754,4.75,4.75,4.709,4.6211,4.5762,4.5137,4.4258,4.2754,4.2129,0.0,0.0,0.0,0.0,0.0,0.0,0.0,0.0,0.0,0.0,0.0,3.9961,3.9687,4.0156,4.0644,4.1055,4.1094,4.1172,4.1348,4.1582,4.1719,4.166,4.207,4.2519,4.291,4.3535,4.4023,4.4219,4.5,4.5605,4.584,4.584,4.5898,4.6172,4.6387,4.6621,4.6836,4.707,4.7285,4.7539,4.7578,4.7578,4.7578,4.7578,4.7578,4.7578,4.7578,4.7578,4.7578,4.7578,4.7578,4.7598,4.7754,4.7851,4.7812,4.7656,4.7324,4.6953,4.6875,4.6953,4.5351,4.5351,4.5351,4.4902,4.4219,4.4629,4.4551,4.416,4.4531,4.5039,4.5625,4.6211,4.6465,4.6465,4.6465,4.6465,4.6465,4.6465,4.6699,4.7051,4.6719,4.6738,4.707,4.6719,4.6523,4.6465,4.6465,4.666,4.7012,4.707,4.7285,4.7656,4.7715,4.7754,4.7734,4.7363,4.7363,4.7734,4.7793,4.7832,4.7832,4.7832,4.8008,4.8359,4.832,4.8281,4.8281,4.8281,4.8105,4.7676,4.7305,4.6719,4.5879,4.5137,4.4355,0.0,4.3027,0.0,0.0,0.0,0.0,0.0,0.0,0.0,0.0,4.1172,4.1601,4.209,4.1758,4.168,4.209,4.2129,4.2285,4.2637,4.2734,4.291,4.3281,4.3379,4.373,4.4551,4.5,4.543,4.5762,4.6523,4.7012,4.707,4.7324,4.7422,4.7285,4.7422,4.7598,4.7676,4.7715,4.7812,4.7812,4.7793,4.7793,4.7773,4.7812,4.7754,4.7793,4.7793,4.7754,4.7773,4.7812,4.7773,4.7754,4.8066,4.8281,4.8301,4.8516,4.8496,4.793,4.7734,4.7754,4.709,4.7109,4.709,4.6992,4.6855,4.6933,4.5371,4.2812,4.2891,4.375,4.5234,4.6699,4.7344,4.7344,4.7344,4.7344,4.7344,4.7344,4.7558,4.7969,4.7871,4.7891,4.7969,4.7891,4.7676,4.7363,4.7344,4.7383,4.7461,4.7793,4.8008,4.8105,4.8437,4.8613,4.8613,0.0,0.0,0.0,4.8984,4.916,4.916,4.916,4.9199,4.9258,4.8926,0.0,4.873,4.873,4.8535,4.8125,4.8008,0.0,0.0,0.0,0.0,0.0,0.0,0.0,0.0,0.0,0.0,0.0,4.3594,4.3125,4.2168,4.2461,4.3047,4.3808,4.3496,4.3418,4.3867,4.3906,4.3945,4.4023,4.4336,4.457,4.4668,4.4961,4.5391,4.5879,4.6308,4.6601,4.6699,4.7148,4.7578,4.7891,4.8027,4.8203,4.8437,4.8223,4.8105,4.8105,4.834,4.8594,4.8613,4.8594,4.8535,4.8613,4.8613,4.8594,4.8574,4.8574,4.8594,4.8574,4.8613,4.8594,4.8594,4.8691,4.8711,4.873,4.8808,4.8808,4.8652,4.8613,4.8613,4.8203,4.8203,4.8203,4.7969,0.0,4.7344,4.6035,4.4062,4.4707,4.5586,4.666,4.7734,4.8223,4.8183,4.7539,4.7266,4.7226,4.6601,4.6777,4.7558,4.7578,4.791,4.8535,4.8535,4.8418,4.8223,4.8203,4.8203,4.8223,4.8418,4.8535,4.8535,4.875,4.8965,4.918,4.9394,4.9297,4.8848,4.9082,4.9199,4.9199,4.9414,4.9531,4.9512,4.9316,0.0,0.0,0.0,0.0,0.0,0.0,0.0,0.0,4.7871,4.75,4.666,4.6191,4.5879,4.5664,4.5469,4.5332,4.5351,4.5527,4.5098,4.3808,4.4297,4.4863,4.5273,4.5117,4.5078,4.5312,4.5332,4.5351,4.5351,4.5527,4.5723,4.5937,4.6152,4.6465,4.6875,4.7305,4.7558,4.7558,4.793,4.8262,4.8476,4.8535,4.8594,4.8789,4.8672,4.8535,4.8535,4.8691,4.8848,4.8848,4.8848,4.8848,4.8848,4.8848,4.8848,4.8848,4.8848,4.8848,4.8848,4.8848,4.8848,4.8848,4.8848,4.8848,4.8848,4.8848,4.8848,4.8848,4.8848,4.8848,4.9082,4.9082,4.9082,4.8652,4.7891,4.7539,4.6992,4.6406,4.7148,0.0,0.0,4.8594,4.8848,4.8789,4.7734,4.7266,4.7207,4.6269,4.6387,4.7383,4.7461,4.8066,4.9062,4.9082,4.9082,4.9082,4.9101,4.9101,4.9101,4.9101,4.9101,4.9101,4.9082,4.9258,4.9648,5.0,4.9824,4.9141,4.918,4.9199,4.9219,4.957,4.9746,4.9766,4.9687,4.9609,4.9531,4.9258,4.918,4.9394,4.9492,4.9316,4.8887,4.8789,4.8262,4.7266,4.709,4.6894,4.6543,4.6523,4.6523,4.6523,4.6914,4.6641,4.5449,4.6074,4.6523,4.6543,4.6523,4.6523,4.6523,4.6523,4.6523,4.6523,4.6523,4.6699,4.709,4.7148,4.7324,4.7754,4.8105,4.832,4.832,4.8594,4.8848,4.8848,4.8828,4.8848,4.8848,4.8828,4.8808,4.8828,4.8828,4.8848,4.8848,4.8848,4.8848,4.8848,4.8848,4.8848,4.8848,4.8848,4.8848,4.8848,4.8848,4.8848,4.8848,4.8848,4.8848,4.8848,4.8926,4.8984,4.8984,4.9043,4.9062,5.0,4.998,5.0,4.9707,4.9238,4.9199,4.9101,4.8867,4.7598,4.7051,4.7187,4.834,4.8848,4.8848,4.8672,4.8594,4.8613,4.8808,4.9004,4.918,4.9551,4.9824,4.998,5.0,5.0,5.0,5.0,5.0,4.998,4.998,5.0,4.998,5.0,5.0019,5.0078,5.0156,5.0117,5.0,5.0351,5.0527,5.0547,5.0586,5.0625,5.0605,5.0273,4.9902,4.9551,4.9824,4.9668,4.9004,4.9316,4.9336,4.8887,4.8535,4.8203,4.8027,4.7695,4.7461,4.7422,4.7402,4.7402,4.7422,4.7793,4.7637,4.6777,4.7109,4.7402,4.7402,4.7402,4.7402,4.7402,4.7402,4.7402,4.7402,4.7402,4.7558,4.7969,4.8027,4.8183,4.8594,4.873,4.875,4.873,4.8808,4.8848,4.8848,4.8848,4.8848,4.8848,4.8848,4.8848,4.8848,4.8848,4.8848,4.8848,4.8848,4.8848,4.8848,4.8848,4.8848,4.8848,4.8848,4.8848,4.8848,4.8887,4.8887,4.8887,4.8848,4.8926,4.8984,4.9199,4.9414,4.9433,4.9687,4.9707,5.1562,5.1562,5.1562,5.1308,5.0898,5.0664,5.0566,5.0469,4.9473,4.8906,4.875,4.9316,4.957,4.9512,4.8828,4.8516,4.8476,4.8008,4.8164,4.8808,4.9023,4.9492,5.0137,5.0176,5.0176,5.0176,5.0176,5.0176,5.0176,5.0176,5.0176,5.0195,5.0391,5.0508,5.0527,5.0742,5.0859,5.0859,5.0605,5.0469,5.0469,5.0683,5.0703,5.0469,5.0488,5.0312,4.9902,5.0078,4.998,4.959,4.9766,4.9785,4.959,4.9394,4.9277,4.9258,4.9101,4.8984,4.8984,4.8984,4.8887,4.8672,4.8808,4.8652,4.8027,4.8164,4.8281,4.8281,4.8281,4.8281,4.8281,4.8281,4.8281,4.8281,4.8476,4.8711,4.8887,4.8926,4.9004,4.916,4.9004,4.8848,4.8848,4.8848,4.8848,4.8848,4.8848,4.8848,4.8848,4.8848,4.8848,4.8848,4.8848,4.8848,4.8848,4.8848,4.8848,4.8848,4.8848,4.8848,4.8848,4.8867,4.8867,4.8887,4.9043,4.9199,4.9219,4.9433,4.9531,4.959,4.9707,4.9863,4.9922,5.0058,5.0,5.2558,5.2558,5.2461,5.2168,5.1758,5.1328,5.1211,5.125,5.0918,5.0683,5.0469,5.0273,5.0176,5.0058,4.9101,4.8652,4.8516,4.7734,4.7871,4.873,4.8887,4.9492,5.0371,5.0449,5.0449,5.0469,5.0449,5.0469,5.0469,5.0449,5.0449,5.0488,5.0781,5.0937,5.0937,5.1269,5.1445,5.1387,5.0801,5.0469,5.0469,5.0781,5.0801,5.0527,5.0781,5.0742,5.0351,5.041,5.0371,5.0195,5.0273,5.0273,5.0176,5.0176,5.0176,5.0176,5.0176,5.0176,5.0176,5.0176,5.0039,4.9707,4.9668,4.9531,4.9219,4.916,4.9043,4.8906,4.8808,4.8828,4.8808,4.8828,4.8848,4.8867,4.916,4.9277,4.9355,4.9375,4.9375,4.9336,4.9062,4.8848,4.8848,4.8848,4.8848,4.8848,4.8848,4.8848,4.8848,4.8848,4.8867,4.8965,4.8926,4.8867,4.8848,4.8848,4.8848,4.8848,4.8965,4.9043,4.9062,4.9082,4.916,4.9258,4.9453,4.9648,4.9707,4.9902,5.0098,5.0098,5.0195,5.0351,5.0469,5.0508,5.0371,5.2148,5.207,5.1777,5.1308,5.0976,5.0547,5.0586,5.0898,5.082,5.1016,5.1211,5.0527,5.0195,5.0156,5.0039,4.9961,5.0,5.0273,5.0391,5.0527,5.0957,5.1211,5.1269,5.1289,5.1328,5.1289,5.1269,5.125,5.125,5.1269,5.1289,5.1308,5.1367,5.1367,5.1387,5.1426,5.1445,5.1445,5.1348,5.1308,5.1308,5.1348,5.1367,5.1328,5.1348,5.1172,5.0781,5.1113,5.0957,5.0293,5.0566,5.0586,5.0254,5.0195,5.0195,5.0195,5.0195,5.0176,5.0195,5.0176,5.0176,5.0137,5.0117,5.0098,5.0019,5.0019,4.9707,4.9121,4.8887,4.8926,4.8867,4.8906,4.8926,4.8926,4.8984,4.8926,4.8984,4.8906,4.8926,4.8926,4.8926,4.8848,4.8848,4.8887,4.8887,4.8926,4.9004,4.9023,4.9004,4.9004,4.9121,4.9297,4.916,4.8945,4.8945,4.8867,4.8984,4.8965,4.9219,4.9414,4.9512,4.9746,5.0039,4.9805,5.0039,5.0098,5.0117,5.0176,5.0234,5.041,5.0605,5.0879,5.1191,5.1289,5.1055,5.2461,5.2441,5.2266,5.209,5.1875,5.1484,5.1543,5.1914,5.166,5.166,5.1738,5.1172,5.0918,5.0918,5.0918,5.0918,5.0937,5.1094,5.1172,5.1191,5.1348,5.1445,5.1445,5.1445,5.1445,5.1445,5.1445,5.1445,5.1445,5.1445,5.1445,5.1445,5.1445,5.1562,5.1797,5.1816,5.1933,5.2168,5.2187,5.2187,5.2129,5.1699,5.1445,5.1445,5.1445,5.1367,5.1211,5.1348,5.1269,5.0957,5.1094,5.1094,5.0937,5.0918,5.0918,5.0918,5.0918,5.0918,5.0918,5.0918,5.082,5.0566,5.0547,5.0449,5.0195,5.0176,5.0,4.9726,4.9648,4.9629,4.9629,4.9648,4.9551,4.9355,4.9473,4.9531,4.9277,4.9258,4.9258,4.9238,4.9023,4.8867,4.8906,4.9101,4.9238,4.9297,4.9433,4.959,4.9629,4.9648,4.9707,4.9844,4.9746,4.9668,4.9609,4.9648,4.9629,4.9648,4.9785,4.9902,4.9941,5.0019,5.0176,5.0195,5.0391,5.0527,5.0547,5.0781,5.0918,5.0996,5.125,5.1621,5.1777,5.1816,5.1621,5.2539,5.2519,5.2422,5.2363,5.2324,5.2031,5.207,5.2305,5.2031,5.1894,5.1875,5.1562,5.1445,5.1445,5.1445,5.1445,5.1445,5.1445,5.1445,5.1445,5.1445,5.1445,5.1445,5.1445,5.1445,5.1465,5.1562,5.168,5.1953,5.1777,5.1777,5.1973,5.1777,5.1933,5.2226,5.2246,5.2402,5.2656,5.2914,5.2894,5.2816,5.2483,5.1992,5.1777,5.1973,5.1914,5.1601,5.1601,5.1543,5.1426,5.1445,5.1445,5.1445,5.1445,5.1445,5.1445,5.1445,5.1445,5.1445,5.1445,5.1289,5.1016,5.0976,5.0859,5.0605,5.0527,5.0527,5.0527,5.0527,5.0469,5.0195,5.0176,5.0019,4.9766,5.0,5.0039,4.9766,4.9707,4.9707,4.9668,4.9473,4.9219,4.9277,4.9512,4.9707,4.9746,4.9961,5.0176,5.0176,5.0156,5.0195,5.0332,5.0351,5.0273,5.0215,5.0098,5.0176,5.0215,5.0215,5.0351,5.0371,5.041,5.0527,5.0781,5.0898,5.0957,5.1208,5.1483,5.1855,5.1992,5.2385,5.2601,5.2837,5.264,5.264,5.2109,5.2051,5.166,5.1543,5.1484,5.1484,5.1484,5.1582,5.1484,5.1484,5.1504,5.1445,5.1445,5.1445,5.1445,5.1445,5.1445,5.1445,5.1445,5.1445,5.1445,5.1445,5.1445,5.1445,5.1465,5.1582,5.1894,5.2424,5.3153,5.2796,5.2855,5.341,5.2975,5.2637,5.2676,5.2875,5.2695,5.2992,5.339,5.3529,5.3529,5.3885,5.3648,5.2855,5.3014,5.2995,5.2306,5.2051,5.1875,5.1465,5.1484,5.1484,5.1465,5.1465,5.1484,5.1484,5.1465,5.1465,5.1465,5.1465,5.1426,5.1387,5.1348,5.1367,5.1269,5.125,5.125,5.1348,5.1269,5.0996,5.041,5.0332,5.0254,5.0176,5.0176,5.0195,5.0137,5.0078,5.0137,5.0117,5.0039,4.9961,5.0058,5.0137,5.0156,5.0156,5.0176,5.0254,5.0312,5.0254,5.041,5.0683,5.0762,5.0664,5.0293,5.0371,5.0332,5.0371,5.0664,5.0781,5.0918,5.1055,5.1211,5.1328,5.1561,5.1794,5.2067,5.2324,5.2719,5.2936,5.3449,5.3786,5.3726,5.4023,5.3943,5.166,5.166,5.1504,5.1445,5.1445,5.1445,5.1445,5.1445,5.1445,5.1445,5.1445,5.1445,5.1445,5.1445,5.1445,5.1445,5.1445,5.1445,5.1445,5.1465,5.1719,5.1855,5.1875,5.2503,5.2443,5.2266,5.2798,5.3133,5.347,5.3708,5.3905,5.3905,5.3905,5.3847,5.4086,5.4145,5.4265,5.4504,5.4744,5.4945,5.4925,5.5345,5.5345,5.4504,5.3767,5.341,5.3074,5.2679,5.2402,5.2246,5.2246,5.2246,5.2246,5.2246,5.2246,5.2246,5.2246,5.2129,5.1894,5.1855,5.1719,5.1465,5.1445,5.1465,5.1445,5.1445,5.1445,5.1445,5.1445,5.125,5.1094,5.0976,5.0879,5.0625,5.0566,5.0469,5.0254,5.0176,5.0176,5.0176,5.0176,5.0176,5.0273,5.041,5.0566,5.0605,5.0801,5.0918,5.0957,5.0976,5.1016,5.1152,5.1211,5.1172,5.1055,5.0996,5.0996,5.1016,5.1133,5.1365,5.1676,5.1735,5.2067,5.2379,5.2459,5.2677,5.3146,5.3582,5.3786,5.3845,5.4361,5.4598,5.43,5.4416,5.4255,5.1445,5.1445,5.1445,5.1445,5.1445,5.1582,5.1641,5.166,5.1777,5.1836,5.1836,5.1836,5.1836,5.1836,5.1836,5.1836,5.1836,5.1719,5.1699,5.1855,5.2148,5.2285,5.2324,5.2955,5.3093,5.3132,5.3648,5.4165,5.4504,5.4723,5.4743,5.4941,5.4743,5.4884,5.5145,5.5185,5.5346,5.5588,5.583,5.583,5.583,5.6434,5.6434,5.593,5.5024,5.4245,5.3926,5.3728,5.3449,5.3331,5.3311,5.3311,5.3311,5.3113,5.3311,5.3311,5.3311,5.3193,5.2936,5.2877,5.2562,5.2071,5.2051,5.2032,5.1836,5.2032,5.2032,5.1855,5.2032,5.2032,5.1836,5.1836,5.1621,5.1152,5.1016,5.0898,5.0625,5.0605,5.0605,5.0625,5.0644,5.0605,5.0605,5.084,5.0976,5.1016,5.1269,5.16,5.1426,5.1814,5.1833,5.1426,5.16,5.1679,5.1718,5.1757,5.1774,5.1774,5.1952,5.2205,5.2439,5.2693,5.2967,5.3241,5.3616,5.3858,5.4295,5.4735,5.4836,5.4876,5.5155,5.5393,5.4992,5.4687,5.4565,5.1484,5.1504,5.1465,5.1523,5.1601,5.1933,5.209,5.2148,5.248,5.2578,5.2539,5.2637,5.2578,5.2637,5.2558,5.2637,5.2598,5.2305,5.2305,5.2578,5.2676,5.2715,5.2715,5.3012,5.3449,5.3847,5.4584,5.5386,5.609,5.589,5.591,5.6172,5.591,5.5689,5.5608,5.5769,5.5588,5.583,5.6233,5.6434,5.6434,5.6835,5.7015,5.7035,5.6553,5.5948,5.5004,5.4984,5.4604,5.4263,5.4203,5.434,5.4223,5.4243,5.4381,5.4223,5.4381,5.4361,5.432,5.4123,5.3905,5.3548,5.343,5.3153,5.2936,5.3153,5.3173,5.2955,5.3173,5.3212,5.2796,5.2777,5.2482,5.1601,5.1445,5.1406,5.1367,5.1387,5.1406,5.1348,5.1308,5.1406,5.1406,5.1348,5.1348,5.1348,5.1833,5.2087,5.1757,5.2399,5.2494,5.1912,5.205,5.2422,5.2561,5.2444,5.2403,5.2439,5.2697,5.3051,5.3522,5.3777,5.4073,5.4349,5.4329,5.4748,5.489,5.5291,5.5569,5.5631,5.5931,5.5983,5.5417,5.5108,5.5129,5.2305,5.2324,5.2324,5.2305,5.2324,5.2461,5.2519,5.2519,5.2676,5.2715,5.2715,5.2715,5.2715,5.2715,5.2715,5.2871,5.3125,5.3008,5.2891,5.2793,5.3027,5.3164,5.3404,5.4263,5.5005,5.5426,5.5748,5.609,5.6393,5.6635,5.6835,5.6815,5.6815,5.6635,5.6635,5.6635,5.6635,5.6635,5.6835,5.7015,5.7035,5.7015,5.7215,5.7215,5.7015,5.6753,5.643,5.5829,5.5366,5.5185,5.5226,5.5226,5.5226,5.5226,5.5226,5.5206,5.5226,5.5065,5.4803,5.4763,5.4642,5.4203,5.4123,5.3905,5.3905,5.3925,5.3945,5.3727,5.3905,5.3905,5.3905,5.3708,5.3291,5.1933,5.1875,5.1758,5.1562,5.1484,5.1445,5.1445,5.1445,5.1445,5.1445,5.1465,5.1504,5.1737,5.2284,5.2442,5.2306,5.3071,5.3702,5.3093,5.331,5.3446,5.3606,5.3726,5.3822,5.3682,5.3842,5.4099,5.4552,5.4911,5.5209,5.525,5.5406,5.5447,5.559,5.5869,5.6169,5.5921,5.5756,5.5724,5.5434,5.5393,5.5455,5.2715,5.2715,5.2715,5.2914,5.2933,5.3071,5.3149,5.3188,5.3144,5.3203,5.3203,5.3404,5.3404,5.3605,5.3585,5.3943,5.42,5.42,5.4062,5.3844,5.3841,5.3998,5.4038,5.5286,5.6031,5.6434,5.6635,5.6635,5.6635,5.7035,5.7215,5.7215,5.7215,5.7215,5.7215,5.7215,5.7215,5.7215,5.7215,5.7215,5.7215,5.7215,5.7318,5.7442,5.7484,5.7566,5.7711,5.6983,5.6395,5.6273,5.6233,5.6233,5.6233,5.6212,5.6233,5.6233,5.6212,5.609,5.5846,5.5826,5.5525,5.5261,5.5002,5.5002,5.4803,5.5002,5.5002,5.4803,5.5022,5.5002,5.4803,5.4803,5.4205,5.341,5.2995,5.2798,5.2345,5.2306,5.2325,5.2345,5.2345,5.2501,5.2501,5.2501,5.2501,5.2541,5.3111,5.3486,5.3349,5.4119,5.426,5.432,5.422,5.426,5.4501,5.478,5.5038,5.5018,5.5059,5.5196,5.5569,5.5815,5.6198,5.6198,5.6396,5.6416,5.652,5.6437,5.6635,5.6159,5.5766,5.5807,5.5766,5.5496,5.5476,5.2793,5.2773,5.2793,5.3231,5.3489,5.3644,5.3801,5.4283,5.4195,5.4129,5.4149,5.4496,5.4739,5.4981,5.5084,5.5306,5.5608,5.5366,5.5346,5.5306,5.5164,5.4961,5.5184,5.581,5.6434,5.6635,5.7015,5.7215,5.7015,5.7215,5.7215,5.7215,5.7297,5.7277,5.7339,5.7277,5.7318,5.7339,5.7256,5.7215,5.7215,5.7215,5.7401,5.7773,5.7794,5.7918,5.8146,5.7716,5.7407,5.7297,5.7015,5.7015,5.7215,5.7235,5.7015,5.7035,5.7235,5.7015,5.7194,5.6953,5.6753,5.6291,5.6291,5.6233,5.589,5.605,5.605,5.5869,5.609,5.6131,5.5729,5.5709,5.5527,5.5224,5.4521,5.3845,5.3668,5.3845,5.3746,5.3588,5.3885,5.428,5.3983,5.3983,5.4003,5.422,5.4457,5.4538,5.4578,5.4856,5.5209,5.527,5.5236,5.5338,5.5582,5.5602,5.6041,5.6082,5.6102,5.6239,5.6375,5.6602,5.6664,5.6904,5.6987,5.707,5.6945,5.6676,5.6531,5.6242,5.6097,5.6221,5.6076,5.5786,5.5807,5.3691,5.3691,5.4077,5.4279,5.4481,5.4822,5.5044,5.5266,5.5164,5.5021,5.5224,5.5224,5.5426,5.5426,5.5628,5.5628,5.5628,5.5628,5.5628,5.5628,5.583,5.6031,5.6031,5.6233,5.6635,5.7035,5.7015,5.7215,5.7215,5.7256,5.7235,5.7256,5.7587,5.7732,5.7753,5.7711,5.7732,5.767,5.738,5.7215,5.7215,5.7215,5.7277,5.738,5.7442,5.7504,5.7587,5.7484,5.738,5.7256,5.7215,5.7215,5.7215,5.7215,5.7215,5.7215,5.7215,5.7215,5.7215,5.7215,5.7035,5.7035,5.6835,5.6815,5.6835,5.6815,5.6815,5.6835,5.7035,5.6815,5.6835,5.6614,5.6732,5.6409,5.5419,5.4381,5.4163,5.4103,5.43,5.4103,5.4361,5.4381,5.4401,5.4381,5.4381,5.4618,5.4998,5.5597,5.5419,5.5801,5.6239,5.6204,5.6348,5.6568,5.663,5.685,5.687,5.6891,5.687,5.6829,5.6808,5.707,5.6925,5.678,5.6863,5.6945,5.6511,5.6117,5.6097,5.6366,5.6242,5.6262,5.6221,5.6055,5.6324,5.4023,5.4431,5.4635,5.5021,5.5426,5.5628,5.5628,5.583,5.5628,5.5628,5.5628,5.583,5.583,5.6031,5.6233,5.6233,5.6233,5.6233,5.6233,5.6434,5.6635,5.6635,5.6614,5.6815,5.6835,5.7215,5.7215,5.7215,5.7277,5.7422,5.7504,5.7629,5.798,5.8105,5.7898,5.7918,5.7815,5.7608,5.7359,5.7215,5.7215,5.7215,5.738,5.7463,5.7525,5.7504,5.7525,5.7525,5.7442,5.7277,5.7215,5.7215,5.7215,5.7215,5.7215,5.7215,5.7215,5.7215,5.7215,5.7215,5.7215,5.7215,5.7215,5.7215,5.7215,5.7215,5.7215,5.7215,5.7215,5.7215,5.7215,5.7215,5.7215,5.6953,5.6143,5.546,5.5261,5.5501,5.546,5.5261,5.546,5.544,5.544,5.544,5.544,5.5719,5.6102,5.6204,5.6266,5.6912,5.7215,5.7035,5.6835,5.6973,5.6932,5.6953,5.6953,5.7194,5.7215,5.7215,5.7215,5.7215,5.709,5.6904,5.6863,5.6759,5.6469,5.6345,5.6573,5.6697,5.6469,5.6531,5.6656,5.6718,5.6987,5.4431,5.4818,5.4838,5.5426,5.6233,5.6031,5.6031,5.6434,5.6031,5.583,5.6031,5.6233,5.6434,5.6434,5.6835,5.7215,5.7235,5.7035,5.7015,5.7056,5.7097,5.7159,5.7159,5.7056,5.7235,5.7235,5.7256,5.7339,5.7484,5.7794,5.798,5.8105,5.8457,5.8394,5.8167,5.8043,5.7753,5.7463,5.7297,5.7215,5.7215,5.7235,5.738,5.7608,5.767,5.7691,5.7732,5.7753,5.7608,5.7235,5.7215,5.7215,5.7215,5.7215,5.7215,5.7215,5.7215,5.7215,5.7215,5.7215,5.7215,5.7215,5.7215,5.7215,5.7215,5.7215,5.7215,5.7215,5.7215,5.7215,5.7215,5.7215,5.7215,5.7215,5.7173,5.7015,5.6635,5.6835,5.7035,5.6614,5.6794,5.7215,5.7215,5.7215,5.7173,5.6465,5.6829,5.663,5.6671,5.6953,5.7215,5.7215,5.7015,5.7215,5.7215,5.7215,5.7215,5.7215,5.7215,5.7215,5.7215,5.7215,5.7215,5.7152,5.7049,5.7049,5.7028,5.7049,5.709,5.707,5.6863,5.7256,5.767,5.767,5.7815,5.4635,5.4818,5.5628,5.6233,5.6434,5.6635,5.6815,5.7015,5.6815,5.6815,5.6835,5.7015,5.7015,5.7035,5.7015,5.7215,5.7235,5.7235,5.7215,5.7277,5.7629,5.7753,5.7691,5.7484,5.7277,5.7359,5.7629,5.7753,5.7877,5.8208,5.8457,5.8539,5.8871,5.8912,5.8498,5.8394,5.8229,5.7794,5.7401,5.7215,5.7215,5.7215,5.7277,5.7422,5.7401,5.738,5.738,5.738,5.7318,5.7256,5.7215,5.7215,5.7215,5.7215,5.7215,5.7215,5.7215,5.7215,5.7215,5.7215,5.7235,5.7256,5.7277,5.7215,5.7215,5.7256,5.7235,5.7235,5.7215,5.7215,5.7215,5.7215,5.7215,5.7215,5.7215,5.7235,5.7015,5.7015,5.7015,5.7015,5.7015,5.7215,5.7215,5.7215,5.7215,5.7215,5.7215,5.7215,5.7215,5.7215,5.7215,5.7215,5.7215,5.7215,5.7215,5.7215,5.7215,5.7215,5.7215,5.7215,5.7215,5.7215,5.7215,5.7215,5.7194,5.7215,5.7215,5.7215,5.7152,5.7194,5.7256,5.7566,5.7856,5.8146,5.8601,5.5041,5.5224,5.6031,5.6635,5.6835,5.7035,5.7215,5.7215,5.7215,5.7215,5.7215,5.7215,5.7215,5.7215,5.7215,5.7215,5.7277,5.7463,5.7691,5.7877,5.8146,5.8229,5.8229,5.8022,5.7877,5.7918,5.8105,5.8229,5.8353,5.8684,5.8933,5.8974,5.9388,5.9181,5.8705,5.8601,5.8208,5.7649,5.7359,5.7215,5.7215,5.7215,5.7215,5.7215,5.7215,5.7215,5.7235,5.7235,5.7215,5.7215,5.7235,5.7235,5.7215,5.7215,5.7215,5.7215,5.7215,5.7215,5.7215,5.7235,5.7318,5.7546,5.7546,5.7546,5.7546,5.7546,5.7422,5.7277,5.7215,5.7215,5.7215,5.7215,5.7215,5.7215,5.7215,5.7215,5.7215,5.7215,5.7215,5.7215,5.7215,5.7215,5.7215,5.7215,5.7215,5.7215,5.7215,5.7215,5.7215,5.7215,5.7215,5.7215,5.7215,5.7215,5.7215,5.7215,5.7215,5.7215,5.7215,5.7215,5.7215,5.7215,5.7215,5.7215,5.7215,5.7215,5.7215,5.7215,5.7215,5.7215,5.7339,5.7629,5.798,5.8353,5.8891,5.5224,5.583,5.6233,5.6815,5.7215,5.7215,5.7215,5.7215,5.7215,5.7215,5.7215,5.7215,5.7215,5.7235,5.7339,5.7359,5.7566,5.7815,5.8187,5.8457,5.8498,5.8601,5.8664,5.8664,5.8705,5.8788,5.8746,5.8726,5.8829,5.914,5.9388,5.9471,5.9761,5.9429,5.8808,5.856,5.8167,5.7401,5.7256,5.7215,5.7215,5.7215,5.7215,5.7235,5.7359,5.738,5.7422,5.7484,5.7484,5.7442,5.7442,5.7442,5.7422,5.7339,5.7339,5.7359,5.7463,5.7587,5.7608,5.7566,5.7691,5.8001,5.8022,5.8022,5.8022,5.8001,5.7794,5.7504,5.7318,5.7215,5.7215,5.7215,5.7215,5.7215,5.7215,5.7215,5.7215,5.7215,5.7215,5.7215,5.7215,5.7215,5.7215,5.7215,5.7215,5.7215,5.7215,5.7215,5.7215,5.7215,5.7215,5.7215,5.7215,5.7215,5.7215,5.7215,5.7215,5.7215,5.7215,5.7215,5.7215,5.7215,5.7215,5.7215,5.7215,5.7215,5.7215,5.7215,5.7215,5.7215,5.7359,5.7587,5.8022,5.8519,5.9119,5.583,5.6233,5.6835,5.7235,5.7235,5.7215,5.7215,5.7215,5.7215,5.7215,5.7215,5.7215,5.7215,5.7318,5.767,5.798,5.8208,5.8394,5.8498,5.8601,5.8622,5.8746,5.8995,5.9078,5.9305,5.9574,5.9409,5.9181,5.9305,5.9616,5.9781,5.9864,5.9947,5.9512,5.885,5.856,5.8146,5.7359,5.7215,5.7215,5.7215,5.7215,5.7215,5.7277,5.7525,5.7711,5.7856,5.8146,5.8374,5.8394,5.8374,5.8353,5.825,5.798,5.7856,5.7856,5.8084,5.8187,5.8229,5.8312,5.8394,5.8477,5.8498,5.8498,5.8498,5.8477,5.827,5.7856,5.7484,5.7256,5.7215,5.7235,5.7215,5.7215,5.7215,5.7215,5.7215,5.7215,5.7215,5.7215,5.7215,5.7215,5.7215,5.7215,5.7215,5.7215,5.7215,5.7215,5.7215,5.7215,5.7215,5.7215,5.7215,5.7215,5.7215,5.7215,5.7215,5.7215,5.7215,5.7215,5.7215,5.7215,5.7215,5.7215,5.7215,5.7215,5.7215,5.7215,5.7215,5.7215,5.738,5.7546,5.8125,5.8705,5.914,5.6233,5.6413,5.7015,5.7215,5.7215,5.7215,5.7215,5.7215,5.7215,5.7215,5.7215,5.7235,5.738,5.7587,5.7773,5.8167,5.8519,5.8622,5.8622,5.8622,5.8622,5.8684,5.9015,5.9181,5.9409,5.9595,5.9595,5.9616,5.9678,5.9864,5.9947,5.9988,5.9988,5.9512,5.8808,5.8601,5.8084,5.7422,5.7215,5.7215,5.7215,5.7215,5.7215,5.7359,5.767,5.7898,5.8001,5.8353,5.8581,5.8601,5.8601,5.8622,5.8622,5.8643,5.8519,5.8394,5.8519,5.8622,5.8622,5.8622,5.8684,5.8933,5.8974,5.8953,5.8974,5.8933,5.8746,5.8312,5.7877,5.7587,5.7608,5.738,5.7235,5.7215,5.7215,5.7215,5.7215,5.7215,5.7215,5.7215,5.7215,5.7215,5.7215,5.7215,5.7215,5.7215,5.7215,5.7215,5.7215,5.7215,5.7215,5.7215,5.7215,5.7215,5.7215,5.7215,5.7297,5.7318,5.7318,5.7318,5.7339,5.7401,5.7297,5.7215,5.7215,5.738,5.7235,5.7235,5.7235,5.7277,5.7525,5.7836,5.8374,5.8871,5.9285,5.6434,5.6635,5.7035,5.7215,5.7215,5.7215,5.7215,5.7215,5.7215,5.7215,5.7215,5.7256,5.7484,5.7836,5.8063,5.8312,5.8705,5.8705,5.8664,5.8767,5.8664,5.8664,5.8974,5.8995,5.9202,5.9388,5.9409,5.9761,5.974,5.9781,5.9781,5.9636,5.9678,5.9326,5.8601,5.8394,5.7898,5.7504,5.7215,5.7215,5.7215,5.7215,5.7297,5.7401,5.7815,5.8125,5.8332,5.8767,5.8974,5.8995,5.8953,5.8933,5.8953,5.9243,5.9264,5.8974,5.8891,5.8891,5.8912,5.8953,5.916,5.9409,5.9429,5.9429,5.9388,5.9305,5.9119,5.8746,5.8332,5.798,5.7836,5.7587,5.7359,5.7215,5.7215,5.7215,5.7215,5.7215,5.7215,5.7215,5.7215,5.7215,5.7215,5.7215,5.7215,5.7215,5.7215,5.7215,5.7215,5.7215,5.7215,5.7215,5.7215,5.7215,5.7215,5.7215,5.7359,5.7525,5.7566,5.7608,5.7629,5.767,5.7587,5.7629,5.767,5.7794,5.7525,5.7359,5.7442,5.7587,5.7773,5.8146,5.8705,5.9057,5.9367,5.6635,5.7015,5.7215,5.7215,5.7215,5.7215,5.7215,5.7215,5.7215,5.7215,5.7235,5.7277,5.7525,5.8001,5.8415,5.8808,5.8933,5.8788,5.8705,5.8788,5.8622,5.8808,5.9429,5.8953,5.8933,5.9036,5.8933,5.9036,5.9264,5.9347,5.9222,5.9015,5.8974,5.856,5.827,5.8146,5.7732,5.7318,5.7215,5.7215,5.7235,5.7235,5.7463,5.7815,5.827,5.8664,5.8974,5.9388,5.9678,5.9719,5.9761,5.9802,5.9843,5.9864,5.9906,5.9843,5.9823,5.9823,5.974,5.9678,5.9678,5.9802,5.9843,5.9906,5.9781,5.9533,5.9326,5.9243,5.8788,5.8415,5.8167,5.7918,5.7649,5.7442,5.7318,5.7277,5.7235,5.7215,5.7215,5.7215,5.7215,5.7215,5.7215,5.7215,5.7215,5.7215,5.7215,5.7215,5.7215,5.7215,5.7215,5.7215,5.7256,5.7256,5.7422,5.7401,5.7587,5.7773,5.7877,5.7939,5.8001,5.8084,5.827,5.8312,5.8291,5.8229,5.8084,5.7939,5.7836,5.7939,5.8208,5.8601,5.9078,5.9347,5.9533,5.7035,5.7215,5.7215,5.7215,5.7215,5.7215,5.7215,5.7215,5.7215,5.7215,5.7297,5.7525,5.8001,5.8581,5.9181,5.9181,5.8953,5.8664,5.8353,5.8208,5.8043,5.8105,5.827,5.8291,5.8394,5.8498,5.856,5.8519,5.8726,5.9036,5.916,5.8974,5.8933,5.8829,5.8167,5.8022,5.767,5.7359,5.7215,5.7215,5.7277,5.7484,5.7732,5.796,5.8622,5.9057,5.9347,5.974,5.9968,5.9988,5.9988,5.9988,5.9988,5.9988,5.9988,5.9988,5.9988,5.9968,5.9968,5.9988,5.9988,5.9988,5.9988,5.9968,5.9947,5.9823,5.9678,5.9678,5.9264,5.8912,5.8643,5.8457,5.8084,5.7794,5.7629,5.7422,5.7339,5.7235,5.7215,5.7215,5.7215,5.7215,5.7215,5.7215,5.7215,5.7215,5.7215,5.7215,5.7215,5.7215,5.7215,5.7215,5.7277,5.7339,5.7566,5.7691,5.798,5.8167,5.8291,5.8374,5.8436,5.856,5.8746,5.8705,5.8539,5.8498,5.856,5.8436,5.825,5.8436,5.8664,5.9015,5.9347,5.9616,5.9802,5.7215,5.7215,5.7215,5.7215,5.7215,5.7215,5.7215,5.7215,5.7215,5.7215,5.7339,5.7691,5.8312,5.885,5.9119,5.8912,5.8436,5.8332,5.798,5.7546,5.7422,5.7587,5.7856,5.796,5.796,5.7918,5.8043,5.8022,5.8084,5.8415,5.8788,5.8788,5.8498,5.8457,5.8229,5.7877,5.7504,5.7277,5.738,5.7442,5.7504,5.7877,5.8125,5.8457,5.8891,5.9367,5.9512,5.9781,5.9988,5.9988,5.9988,5.9988,5.9988,5.9988,5.9988,5.9988,5.9988,5.9988,5.9988,5.9988,5.9988,5.9988,5.9988,5.9988,5.9988,5.9988,5.9988,5.9926,5.9699,5.945,5.9264,5.8933,5.8601,5.8291,5.8084,5.7773,5.7546,5.7525,5.738,5.7215,5.7215,5.7215,5.7215,5.7215,5.7215,5.7215,5.7215,5.7215,5.7256,5.7277,5.738,5.7422,5.7525,5.7649,5.7939,5.8167,5.8394,5.8581,5.8726,5.8891,5.9015,5.9078,5.9181,5.9057,5.8871,5.9057,5.9264,5.8953,5.8705,5.8995,5.9222,5.9305,5.9533,5.9823,5.9968,5.7215,5.7215,5.7215,5.7215,5.7215,5.7215,5.7215,5.7215,5.7215,5.7235,5.7359,5.7711,5.798,5.8146,5.8312,5.827,5.798,5.7525,5.7566,5.7753,5.7877,5.7918,5.798,5.7918,5.7856,5.7794,5.7691,5.7463,5.7401,5.7836,5.7794,5.7463,5.7815,5.7525,5.7442,5.7504,5.7442,5.738,5.7608,5.7836,5.798,5.8312,5.8705,5.9036,5.9264,5.9492,5.9906,5.9968,5.9988,5.9988,5.9988,5.9988,5.9988,5.9988,5.9988,5.9988,5.9988,5.9988,5.9988,5.9988,5.9988,5.9988,5.9988,5.9988,5.9988,5.9988,5.9988,5.9988,5.9864,5.9699,5.9471,5.9222,5.9036,5.8746,5.8519,5.8291,5.8063,5.7918,5.7732,5.7359,5.7339,5.7525,5.7546,5.7629,5.7318,5.7297,5.7256,5.7256,5.7359,5.7422,5.7629,5.7732,5.7856,5.8084,5.8457,5.8684,5.8808,5.9036,5.9222,5.945,5.9699,5.9719,5.9574,5.9616,5.9533,5.9761,5.9823,5.9409,5.9222,5.9595,5.9761,5.9678,5.9699,5.9906,5.9988,5.7215,5.7215,5.7215,5.7215,5.7215,5.7215,5.7215,5.7215,5.7215,5.7401,5.7649,5.7856,5.8084,5.825,5.8312,5.8167,5.7939,5.7773,5.7629,5.7504,5.7525,5.7608,5.7649,5.7649,5.7484,5.7463,5.7297,5.7215,5.7277,5.7463,5.7401,5.7318,5.7442,5.7649,5.7608,5.7401,5.7401,5.7629,5.7856,5.8022,5.8436,5.8767,5.9119,5.9264,5.9636,5.9781,5.9968,5.9988,5.9988,5.9988,5.9988,5.9988,5.9988,5.9988,5.9988,5.9988,5.9988,5.9988,5.9988,5.9988,5.9988,5.9988,5.9988,5.9988,5.9988,5.9988,5.9988,5.9988,5.9988,5.9843,5.9802,5.9719,5.9574,5.9202,5.8953,5.8767,5.856,5.8394,5.8229,5.7898,5.8001,5.8187,5.8167,5.8146,5.7711,5.7359,5.7318,5.7339,5.7525,5.7711,5.7939,5.8167,5.8312,5.856,5.8933,5.9098,5.9202,5.9429,5.9657,5.9802,5.9947,5.9947,5.9864,5.9988,5.9988,5.9968,5.9864,5.9657,5.9657,5.9843,5.9885,5.9864,5.9926,5.9988,5.9988,5.7215,5.7215,5.7215,5.7215,5.7215,5.7215,5.7215,5.7215,5.7215,5.738,5.7711,5.7732,5.7877,5.8146,5.8167,5.8001,5.7711,5.7629,5.7463,5.7359,5.7256,5.7215,5.7215,5.7235,5.7277,5.7215,5.7215,5.7215,5.7215,5.7215,5.7235,5.7339,5.7525,5.7608,5.7608,5.7608,5.7608,5.7856,5.825,5.8436,5.8871,5.9264,5.9492,5.9554,5.9823,5.9926,5.9988,5.9988,5.9988,5.9988,5.9988,5.9988,5.9988,5.9988,5.9988,5.9988,5.9988,5.9988,5.9988,5.9988,5.9988,5.9988,5.9988,5.9988,5.9988,5.9988,5.9988,5.9988,5.9988,5.9988,5.9988,5.9926,5.9864,5.9533,5.9512,5.9347,5.9015,5.8808,5.8664,5.8477,5.856,5.8519,5.8498,5.8415,5.8291,5.796,5.7939,5.796,5.8043,5.8208,5.8353,5.8581,5.8808,5.9098,5.9429,5.9492,5.9574,5.9657,5.9843,5.9885,5.9988,5.9988,5.9988,5.9988,5.9988,5.9988,5.9926,5.9802,5.9843,5.9968,5.9968,5.9926,5.9947,5.9988,5.9988,5.7215,5.7215,5.7215,5.7215,5.7215,5.7215,5.7215,5.7215,5.7215,5.7256,5.7318,5.7297,5.7318,5.738,5.7484,5.7422,5.738,5.7318,5.7256,5.7235,5.7215,5.7215,5.7215,5.7215,5.7215,5.7215,5.7215,5.7215,5.7215,5.7215,5.7215,5.7256,5.738,5.7442,5.7339,5.7711,5.7898,5.8063,5.8829,5.9098,5.9367,5.9699,5.9823,5.9885,5.9926,5.9988,5.9988,5.9988,5.9988,5.9988,5.9988,5.9988,5.9988,5.9988,5.9988,5.9988,5.9988,5.9988,5.9988,5.9988,5.9988,5.9988,5.9988,5.9988,5.9988,5.9988,5.9988,5.9988,5.9988,5.9988,5.9988,5.9988,5.9947,5.9906,5.9864,5.9761,5.9429,5.9285,5.914,5.9078,5.8829,5.8643,5.8664,5.8664,5.8705,5.8622,5.8601,5.8601,5.8581,5.8664,5.8808,5.9057,5.9285,5.9429,5.9699,5.9843,5.9947,5.9988,5.9988,5.9988,5.9988,5.9988,5.9988,5.9988,5.9988,5.9988,5.9988,5.9968,5.9988,5.9988,5.9988,5.9988,5.9988,5.9988,5.9988,5.7215,5.7215,5.7215,5.7215,5.7215,5.7215,5.7215,5.7215,5.7215,5.7215,5.7215,5.7215,5.7215,5.7215,5.7215,5.7215,5.7215,5.7215,5.7215,5.7215,5.7414,5.7215,5.7215,5.7414,5.7215,5.7215,5.7215,5.7215,5.7215,5.7277,5.7235,5.7256,5.7608,5.767,5.7815,5.8146,5.8477,5.8808,5.9181,5.9429,5.974,5.9906,5.9988,5.9988,5.9988,5.9988,5.9988,5.9988,5.9988,5.9988,5.9988,5.9988,5.9988,5.9988,5.9988,5.9988,5.9988,5.9988,5.9988,5.9988,5.9988,5.9988,5.9988,5.9988,5.9988,5.9988,5.9988,5.9988,5.9988,5.9988,5.9988,5.9988,5.9968,5.9968,5.9947,5.9926,5.9761,5.9761,5.9699,5.9678,5.9533,5.945,5.9409,5.9243,5.9222,5.9119,5.9057,5.9036,5.9015,5.9098,5.9222,5.9533,5.9761,5.9823,5.9947,5.9968,5.9988,5.9988,5.9988,5.9988,5.9988,5.9988,5.9988,5.9988,5.9988,5.9988,5.9988,5.9988,5.9988,5.9988,5.9988,5.9988,5.9988,5.9988,5.9988,5.9331,5.9331,5.9331,5.8959,5.8168,5.7414,5.7215,5.7215,5.7215,5.7215,5.7215,5.7215,5.7215,5.7215,5.7215,5.7215,5.7215,5.7215,5.799,5.799,5.8387,5.8366,5.8366,5.8189,5.799,5.7614,5.7215,5.7215,5.7235,5.7401,5.7587,5.7856,5.8146,5.8394,5.8539,5.8767,5.8953,5.9222,5.945,5.9699,5.9885,5.9988,5.9988,5.9988,5.9988,5.9988,5.9988,5.9988,5.9988,5.9988,5.9988,5.9988,5.9988,5.9988,5.9988,5.9988,5.9988,5.9988,5.9988,5.9988,5.9988,5.9988,5.9988,5.9988,5.9988,5.9988,5.9988,5.9988,5.9988,5.9988,5.9988,5.9988,5.9988,5.9988,5.9988,5.9968,5.9968,5.9947,5.9947,5.9968,5.9968,5.9988,5.9988,5.9947,5.9802,5.9636,5.9492,5.9471,5.9429,5.9492,5.9554,5.9781,5.9968,5.9968,5.9968,5.9988,5.9988,5.9988,5.9988,5.9988,5.9988,5.9988,5.9988,5.9988,5.9988,5.9988,5.9988,5.9988,5.9988,5.9988,5.9988,5.9988,5.9988,5.9988,5.9988,6.3325,6.3325,6.3325,6.2009,6.0114,5.8189,5.7414,5.7215,5.7215,5.7215,5.7215,5.7414,5.7593,5.7614,5.7614,5.7593,5.7614,5.7614,5.8189,5.9331,5.9527,5.9723,5.9919,5.9919,5.8959,5.799,5.7235,5.7277,5.7297,5.7732,5.8146,5.8539,5.8871,5.9057,5.9181,5.9285,5.9367,5.9533,5.9719,5.9885,5.9988,5.9988,5.9988,5.9988,5.9988,5.9988,5.9988,5.9988,5.9988,5.9988,5.9988,5.9988,5.9988,5.9988,5.9988,5.9988,5.9988,5.9988,5.9988,5.9988,5.9988,5.9988,5.9988,5.9988,5.9988,5.9988,5.9988,5.9988,5.9988,5.9988,5.9988,5.9988,5.9988,5.9988,5.9988,5.9988,5.9988,5.9988,5.9988,5.9988,5.9988,5.9988,5.9988,5.9988,5.9988,5.9906,5.9761,5.9781,5.9761,5.9781,5.9823,5.9843,5.9988,5.9988,5.9988,5.9988,5.9988,5.9988,5.9988,5.9988,5.9988,5.9988,5.9988,5.9988,5.9988,5.9988,5.9988,5.9988,5.9988,5.9988,5.9988,5.9988,5.9988,5.9988,5.9988,6.3325,6.3325,6.3325,6.2201,6.0288,5.9723,5.8564,5.7215,5.7215,5.7215,5.7215,5.8761,5.9331,5.9549,6.0849,6.0483,5.9919,5.9156,5.8564,5.9156,6.0483,6.0288,6.0483,6.0677,5.9919,5.9156,5.8429,5.8001,5.7954,5.837,5.8847,5.9078,5.9862,5.9886,5.9865,5.9781,5.9761,5.9781,5.9926,5.9968,5.9988,5.9988,5.9988,5.9988,5.9988,5.9988,5.9988,5.9988,5.9988,5.9988,5.9988,5.9988,5.9988,5.9988,5.9988,5.9988,5.9988,5.9988,5.9988,5.9988,5.9988,5.9988,5.9988,5.9988,5.9988,5.9988,5.9988,5.9988,5.9988,5.9988,5.9988,5.9988,5.9988,5.9988,5.9988,5.9988,5.9988,5.9988,5.9988,5.9988,5.9988,5.9988,5.9988,5.9988,5.9988,5.9988,5.9988,5.9988,5.9988,5.9988,5.9988,5.9988,5.9988,5.9988,5.9988,5.9988,5.9988,5.9988,5.9988,5.9988,5.9988,5.9988,5.9988,5.9988,5.9988,5.9988,5.9988,5.9988,5.9988,5.9988,5.9988,5.9988,5.9988,5.9988,5.9988,6.5632,6.5632,6.5632,6.4483,6.2584,6.1066,5.9919,5.9527,5.9527,5.9527,5.9723,6.0849,6.143,6.1646,6.2584,6.2584,6.1646,6.143,6.143,6.2201,6.1816,6.2775,6.2775,6.2393,6.2201,6.1304,6.0702,6.055,6.039,6.1151,6.1872,6.2306,6.2146,6.1726,6.1485,6.1341,6.0761,6.0365,5.9988,5.9988,5.9988,5.9988,5.9988,5.9988,5.9988,5.9988,5.9988,5.9988,5.9988,5.9988,5.9988,5.9988,5.9988,5.9988,5.9988,5.9988,5.9988,5.9988,5.9988,5.9988,5.9988,5.9988,5.9988,5.9988,5.9988,5.9988,5.9988,5.9988,5.9988,5.9988,5.9988,5.9988,5.9988,5.9988,5.9988,5.9988,5.9988,5.9988,5.9988,5.9988,5.9988,5.9988,5.9988,5.9988,5.9988,5.9988,5.9988,5.9988,5.9988,5.9988,5.9988,5.9988,5.9988,5.9988,5.9988,5.9988,5.9988,5.9988,5.9988,5.9988,5.9988,5.9988,5.9988,5.9988,5.9988,5.9988,5.9988,5.9988,5.9988,5.9988,5.9988,5.9988,5.9988,5.9988,5.9988,6.9245,6.9245,6.927,6.7739,6.6028,6.2584,6.2009,6.3538,6.3727,6.3515,6.3134,6.3347,6.3515,6.3727,6.4295,6.4295,6.3727,6.3538,6.3727,6.6028,6.5258,6.5445,6.5632,6.6214,6.4765,6.4148,6.3638,6.299,6.413,6.4376,6.488,6.6332,6.5911,6.4953,6.3557,6.3397,6.2784,6.1983,6.099,6.0595,6.0198,5.9988,5.9988,5.9988,5.9988,5.9988,5.9988,5.9988,5.9988,5.9988,5.9988,5.9988,5.9988,5.9988,5.9988,5.9988,5.9988,5.9988,5.9988,5.9988,5.9988,5.9988,5.9988,5.9988,5.9988,5.9988,5.9988,5.9988,5.9988,5.9988,5.9988,5.9988,5.9988,5.9988,5.9988,5.9988,5.9988,5.9988,5.9988,5.9988,5.9988,5.9988,5.9988,5.9988,5.9988,5.9988,5.9988,5.9988,5.9988,5.9988,5.9988,5.9988,5.9988,5.9988,5.9988,5.9988,5.9988,5.9988,5.9988,5.9988,5.9988,5.9988,5.9988,5.9988,5.9988,5.9988,5.9988,5.9988,5.9988,5.9988,5.9988,5.9988,5.9988,5.9988,5.9988,6.9451,6.9245,6.7739,6.6794,6.64,6.5445,6.5071,6.5818,6.7347,6.619,6.4106,6.486,6.5632,6.5818,6.6955,6.6955,6.5818,6.5632,6.5047,6.5445,6.6005,6.6794,6.6609,6.6867,6.643,6.5967,6.5325,6.5168,6.5965,6.6396,6.637,6.6531,6.6753,6.6554,6.5779,6.5578,6.5177,6.3964,6.26,6.1405,6.0386,6.0198,5.9988,5.9988,5.9988,5.9988,5.9988,5.9988,5.9988,5.9988,5.9988,5.9988,5.9988,5.9988,5.9988,5.9988,5.9988,5.9988,5.9988,5.9988,5.9988,5.9988,5.9988,5.9988,5.9988,5.9988,5.9988,5.9988,5.9988,5.9988,5.9988,5.9988,5.9988,5.9988,5.9988,5.9988,5.9988,5.9988,5.9988,5.9988,5.9988,5.9988,5.9988,5.9988,5.9988,5.9988,5.9988,5.9988,5.9988,5.9988,5.9988,5.9988,5.9988,5.9988,5.9988,5.9988,5.9988,5.9988,5.9988,5.9988,5.9988,5.9988,5.9988,5.9988,5.9988,5.9988,5.9988,5.9988,5.9988,5.9988,5.9988,5.9988,5.9988,5.9988,5.9988,6.9451,6.9064,6.7163,6.6979,6.7556,6.6794,6.6794,6.7922,6.8883,6.8105,6.64,6.7163,6.7739,6.7739,6.8883,6.9064,6.7739,6.7739,6.7347,6.6955,6.677,6.7531,6.7788,6.7776,6.8389,6.8152,6.8173,6.8348,6.8418,6.9092,6.9308,6.8942,6.8942,6.8551,6.8159,6.7766,6.7348,6.6156,6.4392,6.2805,6.1198,6.0595,6.0198,5.9988,5.9988,5.9988,5.9988,5.9988,5.9988,5.9988,5.9988,5.9988,5.9988,5.9988,5.9988,5.9988,5.9988,5.9988,5.9988,5.9988,5.9988,5.9988,5.9988,5.9988,5.9988,5.9988,5.9988,5.9988,5.9988,5.9988,5.9988,5.9988,5.9988,5.9988,5.9988,5.9988,5.9988,5.9988,5.9988,5.9988,5.9988,5.9988,5.9988,5.9988,5.9988,5.9988,5.9988,5.9988,5.9988,5.9988,5.9988,5.9988,5.9988,5.9988,5.9988,5.9988,5.9988,5.9988,5.9988,5.9988,5.9988,5.9988,5.9988,5.9988,5.9988,5.9988,5.9988,5.9988,5.9988,5.9988,5.9988,5.9988,5.9988,5.9988,5.9988,6.9451,6.9064,6.7556,6.7739,6.9064,6.7531,6.7739,6.9064,6.9451,6.9451,6.9064,6.9064,6.9451,6.9451,6.9451,6.9451,6.9245,6.8883,6.8883,6.8883,6.9064,6.9007,6.9389,6.9796,6.9938,7.0463,7.0926,7.126,7.1807,7.1931,7.1931,7.2526,7.2336,7.1741,7.0542,6.9744,6.9356,6.7963,6.6179,6.4392,6.2805,6.1198,6.0407,5.9988,5.9988,5.9988,5.9988,5.9988,5.9988,5.9988,5.9988,5.9988,5.9988,5.9988,5.9988,5.9988,5.9988,5.9988,5.9988,5.9988,5.9988,5.9988,5.9988,5.9988,5.9988,5.9988,5.9988,5.9988,5.9988,5.9988,5.9988,5.9988,5.9988,5.9988,5.9988,5.9988,5.9988,5.9988,5.9988,5.9988,5.9988,5.9988,5.9988,5.9988,5.9988,5.9988,5.9988,5.9988,5.9988,5.9988,5.9988,5.9988,5.9988,5.9988,5.9988,5.9988,5.9988,5.9988,5.9988,5.9988,5.9988,5.9988,5.9988,5.9988,5.9988,5.9988,5.9988,5.9988,5.9988,5.9988,5.9988,5.9988,5.9988,5.9988,5.9988,6.9451,6.9451,6.8883,6.9064,6.9245,6.8883,6.9064,6.927,6.9451,6.9451,6.9451,6.9451,6.9451,6.9451,6.9451,6.9451,6.9451,6.9451,6.9451,6.9451,6.9526,6.9777,7.0079,7.0405,7.0857,7.1485,7.2138,7.2539,7.274,7.274,7.274,7.274,7.274,7.2526,7.2336,7.1741,7.1334,6.9938,6.8747,6.6975,6.4572,6.2784,6.0386,5.9988,5.9988,5.9988,5.9988,5.9988,5.9988,5.9988,5.9988,5.9988,5.9988,5.9988,5.9988,5.9988,5.9988,5.9988,5.9988,5.9988,5.9988,5.9988,5.9988,5.9988,5.9988,5.9988,5.9988,5.9988,5.9988,5.9988,5.9988,5.9988,5.9988,5.9988,5.9988,5.9988,5.9988,5.9988,5.9988,5.9988,5.9988,5.9988,5.9988,5.9988,5.9988,5.9988,5.9988,5.9988,5.9988,5.9988,5.9988,5.9988,5.9988,5.9988,5.9988,5.9988,5.9988,5.9988,5.9988,5.9988,5.9988,5.9988,5.9988,5.9988,5.9988,5.9988,5.9988,5.9988,5.9988,5.9988,5.9988,5.9988,5.9988,5.9988,5.9988]},{"header":{"parameterUnit":"m.s-1","parameterCategory":1,"la1":31.0,"la2":29.5877,"lo1":-88.7671,"lo2":-86.6584,"dx":0.0162,"dy":0.0185,"nx":115,"ny":88,"refTime":"2022-11-21T06:00:00:Z","depth":0,"parameterNumber":3,"parameterNumberName":"V-component_of_WINDS"},"data":[0.0,0.0,0.0,0.0,0.0,0.0,0.0,0.0,0.0,0.0,0.0,0.0,0.0,0.0,0.0,0.0,0.0,0.0,0.0,0.0,0.0,0.0,0.0,0.0,0.0,0.0,0.0,0.0,0.0,0.0,0.0,0.0,0.0,0.0,0.0,0.0,0.0,0.0,0.0,0.0,0.0,0.0,0.0,0.0,0.0,0.0,0.0,0.0,0.0,0.0,0.0,0.0,0.0,0.0,0.0,0.0,0.0,0.0,0.0,0.0,0.0,0.0,0.0,0.0,0.0,0.0,0.0,0.0,0.0,0.0,0.0,0.0,0.0,0.0,0.0,0.0,0.0,0.0,0.0,0.0,0.0,0.0,0.0,0.0,0.0,0.0,0.0,0.0,0.0,0.0,0.0,0.0,0.0,0.0,0.0,0.0,0.0,0.0,0.0,0.0,0.0,0.0,0.0,0.0,0.0,0.0,0.0,0.0,0.0,0.0,0.0,0.0,0.0,0.0,0.0,0.0,0.0,0.0,0.0,0.0,0.0,0.0,0.0,0.0,0.0,0.0,0.0,0.0,0.0,0.0,0.0,0.0,0.0,0.0,0.0,0.0,0.0,0.0,0.0,0.0,0.0,0.0,0.0,0.0,0.0,0.0,0.0,0.0,0.0,0.0,0.0,0.0,0.0,0.0,0.0,0.0,0.0,0.0,0.0,0.0,0.0,0.0,0.0,0.0,0.0,0.0,0.0,0.0,0.0,0.0,0.0,0.0,0.0,0.0,0.0,0.0,0.0,0.0,0.0,0.0,0.0,0.0,0.0,0.0,0.0,0.0,0.0,0.0,0.0,0.0,0.0,0.0,0.0,0.0,0.0,0.0,0.0,0.0,0.0,0.0,0.0,0.0,0.0,0.0,0.0,0.0,0.0,0.0,0.0,0.0,0.0,0.0,0.0,0.0,0.0,0.0,0.0,0.0,0.0,0.0,0.0,0.0,0.0,0.0,0.0,0.0,0.0,0.0,0.0,0.0,0.0,0.0,0.0,0.0,0.0,0.0,0.0,0.0,0.0,0.0,0.0,0.0,0.0,0.0,0.0,0.0,0.0,0.0,0.0,0.0,0.0,0.0,0.0,0.0,0.0,0.0,0.0,0.0,0.0,0.0,0.0,0.0,0.0,0.0,0.0,0.0,0.0,0.0,0.0,0.0,0.0,0.0,0.0,0.0,0.0,0.0,0.0,0.0,0.0,0.0,0.0,0.0,0.0,0.0,0.0,0.0,0.0,0.0,0.0,0.0,0.0,0.0,0.0,0.0,0.0,0.0,0.0,0.0,0.0,0.0,0.0,0.0,0.0,0.0,0.0,0.0,0.0,0.0,0.0,0.0,0.0,0.0,0.0,0.0,0.0,0.0,0.0,0.0,0.0,0.0,0.0,0.0,0.0,0.0,0.0,0.0,0.0,0.0,0.0,0.0,0.0,0.0,0.0,0.0,0.0,0.0,0.0,0.0,0.0,0.0,0.0,0.0,0.0,0.0,0.0,0.0,0.0,0.0,0.0,0.0,0.0,0.0,0.0,0.0,0.0,0.0,0.0,0.0,0.0,0.0,0.0,0.0,0.0,0.0,0.0,0.0,0.0,0.0,0.0,0.0,0.0,0.0,0.0,0.0,0.0,0.0,0.0,0.0,0.0,0.0,0.0,0.0,0.0,0.0,0.0,0.0,0.0,0.0,0.0,0.0,0.0,0.0,0.0,0.0,0.0,0.0,0.0,0.0,0.0,0.0,0.0,0.0,0.0,0.0,0.0,0.0,0.0,0.0,0.0,0.0,0.0,0.0,0.0,0.0,0.0,0.0,0.0,0.0,0.0,0.0,0.0,0.0,0.0,0.0,0.0,0.0,0.0,0.0,0.0,0.0,0.0,0.0,0.0,0.0,0.0,0.0,0.0,0.0,0.0,0.0,0.0,0.0,0.0,0.0,0.0,0.0,0.0,0.0,0.0,0.0,0.0,0.0,0.0,0.0,0.0,0.0,0.0,0.0,0.0,0.0,0.0,0.0,0.0,0.0,0.0,0.0,0.0,0.0,0.0,0.0,0.0,0.0,0.0,0.0,0.0,0.0,0.0,0.0,0.0,0.0,0.0,0.0,0.0,0.0,0.0,0.0,0.0,0.0,0.0,0.0,0.0,0.0,0.0,0.0,0.0,0.0,0.0,0.0,0.0,0.0,0.0,0.0,0.0,0.0,0.0,0.0,0.0,0.0,0.0,0.0,0.0,0.0,0.0,0.0,0.0,0.0,0.0,0.0,0.0,0.0,0.0,0.0,0.0,0.0,0.0,0.0,0.0,0.0,0.0,0.0,0.0,0.0,0.0,0.0,0.0,0.0,0.0,0.0,0.0,0.0,0.0,0.0,0.0,0.0,0.0,0.0,0.0,0.0,0.0,0.0,0.0,0.0,0.0,0.0,0.0,0.0,0.0,0.0,0.0,0.0,0.0,0.0,0.0,0.0,0.0,0.0,0.0,0.0,0.0,0.0,0.0,0.0,0.0,0.0,0.0,0.0,0.0,0.0,0.0,0.0,0.0,0.0,0.0,0.0,0.0,0.0,0.0,0.0,0.0,0.0,0.0,0.0,0.0,0.0,0.0,0.0,0.0,0.0,0.0,0.0,0.0,0.0,0.0,0.0,0.0,0.0,0.0,0.0,0.0,0.0,0.0,0.0,0.0,0.0,0.0,0.0,0.0,0.0,0.0,0.0,0.0,0.0,0.0,0.0,0.0,0.0,0.0,0.0,0.0,0.0,0.0,0.0,0.0,0.0,0.0,0.0,0.0,0.0,0.0,0.0,0.0,0.0,0.0,0.0,0.0,0.0,0.0,0.0,0.0,0.0,0.0,0.0,0.0,0.0,0.0,0.0,0.0,0.0,0.0,0.0,0.0,0.0,0.0,0.0,0.0,0.0,0.0,0.0,0.0,0.0,0.0,0.0,0.0,0.0,0.0,0.0,0.0,0.0,0.0,0.0,0.0,0.0,0.0,0.0,0.0,0.0,0.0,0.0,0.0,0.0,0.0,0.0,0.0,0.0,0.0,0.0,0.0,0.0,0.0,0.0,0.0,0.0,0.0,0.0,0.0,0.0,0.0,0.0,0.0,0.0,0.0,0.0,0.0,0.0,0.0,0.0,0.0,0.0,0.0,0.0,0.0,0.0,0.0,0.0,0.0,0.0,0.0,0.0,0.0,0.0,0.0,0.0,0.0,0.0,0.0,0.0,0.0,0.0,0.0,0.0,0.0,0.0,0.0,0.0,0.0,0.0,0.0,0.0,0.0,0.0,0.0,0.0,0.0,0.0,0.0,0.0,0.0,0.0,0.0,0.0,0.0,0.0,0.0,0.0,0.0,0.0,0.0,0.0,0.0,0.0,0.0,0.0,0.0,0.0,0.0,0.0,0.0,0.0,0.0,0.0,0.0,0.0,0.0,0.0,0.0,0.0,0.0,0.0,0.0,0.0,0.0,0.0,0.0,0.0,0.0,0.0,0.0,0.0,0.0,0.0,0.0,0.0,0.0,0.0,0.0,0.0,0.0,0.0,0.0,0.0,0.0,0.0,0.0,0.0,0.0,0.0,0.0,0.0,0.0,0.0,0.0,0.0,0.0,0.0,0.0,0.0,0.0,0.0,0.0,0.0,0.0,0.0,0.0,0.0,0.0,0.0,0.0,0.0,0.0,0.0,0.0,0.0,0.0,0.0,0.0,0.0,0.0,0.0,0.0,0.0,0.0,0.0,0.0,0.0,0.0,0.0,0.0,0.0,0.0,0.0,0.0,0.0,0.0,0.0,0.0,0.0,0.0,0.0,0.0,0.0,0.0,0.0,0.0,0.0,0.0,0.0,0.0,0.0,0.0,0.0,0.0,0.0,0.0,0.0,0.0,0.0,0.0,0.0,0.0,0.0,0.0,0.0,0.0,0.0,0.0,0.0,0.0,0.0,0.0,0.0,0.0,0.0,0.0,0.0,0.0,0.0,0.0,0.0,0.0,0.0,0.0,0.0,0.0,0.0,0.0,0.0,0.0,0.0,0.0,0.0,0.0,0.0,0.0,0.0,0.0,0.0,0.0,0.0,0.0,0.0,0.0,0.0,0.0,0.0,0.0,0.0,0.0,0.0,0.0,0.0,0.0,0.0,0.0,0.0,0.0,0.0,0.0,0.0,0.0,0.0,0.0,0.0,0.0,0.0,0.0,0.0,0.0,0.0,0.0,0.0,0.0,0.0,-3.5495,0.0,0.0,0.0,-3.4321,0.0,0.0,0.0,0.0,0.0,0.0,0.0,0.0,0.0,0.0,0.0,0.0,0.0,0.0,0.0,0.0,0.0,0.0,0.0,0.0,0.0,0.0,0.0,0.0,0.0,0.0,0.0,0.0,0.0,0.0,0.0,0.0,0.0,0.0,0.0,0.0,0.0,0.0,0.0,0.0,0.0,0.0,0.0,0.0,0.0,0.0,0.0,0.0,0.0,0.0,0.0,0.0,0.0,0.0,0.0,0.0,0.0,0.0,0.0,0.0,0.0,0.0,0.0,0.0,0.0,0.0,0.0,0.0,0.0,0.0,0.0,0.0,0.0,0.0,0.0,0.0,0.0,0.0,0.0,0.0,0.0,0.0,0.0,0.0,0.0,0.0,0.0,0.0,0.0,0.0,0.0,0.0,0.0,0.0,0.0,0.0,0.0,0.0,0.0,0.0,0.0,0.0,0.0,0.0,0.0,0.0,0.0,0.0,0.0,0.0,-3.5495,-3.3917,-3.7,-3.7147,-3.399,0.0,0.0,0.0,0.0,0.0,0.0,0.0,0.0,0.0,0.0,0.0,0.0,0.0,0.0,0.0,0.0,0.0,0.0,0.0,0.0,0.0,0.0,0.0,0.0,0.0,0.0,0.0,0.0,0.0,0.0,0.0,0.0,0.0,0.0,0.0,0.0,0.0,0.0,0.0,0.0,0.0,0.0,0.0,0.0,0.0,0.0,0.0,0.0,0.0,0.0,0.0,0.0,0.0,0.0,0.0,0.0,0.0,0.0,0.0,0.0,0.0,0.0,0.0,0.0,0.0,0.0,0.0,0.0,0.0,0.0,0.0,0.0,0.0,0.0,0.0,0.0,0.0,0.0,0.0,0.0,0.0,0.0,0.0,0.0,0.0,0.0,0.0,0.0,0.0,0.0,0.0,0.0,0.0,0.0,0.0,0.0,0.0,0.0,0.0,0.0,0.0,0.0,0.0,0.0,0.0,0.0,0.0,0.0,0.0,0.0,0.0,0.0,-3.6721,-3.6905,-3.4504,0.0,0.0,0.0,0.0,0.0,0.0,0.0,0.0,0.0,0.0,0.0,0.0,0.0,0.0,0.0,0.0,0.0,0.0,0.0,0.0,0.0,0.0,0.0,0.0,0.0,0.0,0.0,0.0,0.0,0.0,0.0,0.0,0.0,0.0,0.0,0.0,0.0,0.0,0.0,0.0,0.0,0.0,0.0,0.0,0.0,0.0,0.0,0.0,0.0,0.0,0.0,0.0,0.0,0.0,0.0,0.0,0.0,0.0,0.0,0.0,0.0,0.0,0.0,0.0,0.0,0.0,0.0,0.0,0.0,0.0,0.0,0.0,0.0,0.0,0.0,0.0,0.0,0.0,0.0,0.0,0.0,0.0,0.0,0.0,0.0,0.0,0.0,0.0,0.0,0.0,0.0,0.0,0.0,0.0,0.0,0.0,0.0,0.0,0.0,0.0,0.0,0.0,0.0,0.0,0.0,0.0,0.0,0.0,0.0,0.0,-3.4063,-3.5981,-3.6,0.0,-3.5944,0.0,0.0,0.0,0.0,0.0,0.0,0.0,0.0,0.0,0.0,0.0,0.0,0.0,0.0,0.0,0.0,0.0,0.0,0.0,0.0,0.0,0.0,0.0,0.0,0.0,0.0,0.0,0.0,0.0,0.0,0.0,0.0,0.0,0.0,0.0,0.0,0.0,0.0,0.0,0.0,0.0,0.0,0.0,0.0,0.0,0.0,0.0,0.0,0.0,0.0,0.0,0.0,0.0,0.0,0.0,0.0,0.0,0.0,0.0,0.0,0.0,0.0,0.0,0.0,0.0,0.0,0.0,0.0,0.0,0.0,0.0,0.0,0.0,0.0,0.0,0.0,0.0,0.0,0.0,0.0,0.0,0.0,0.0,0.0,0.0,0.0,0.0,0.0,0.0,0.0,0.0,0.0,0.0,0.0,0.0,0.0,0.0,0.0,0.0,0.0,0.0,0.0,0.0,0.0,0.0,0.0,0.0,0.0,0.0,0.0,-3.4324,-3.6266,-3.5637,-3.5162,0.0,0.0,0.0,0.0,0.0,0.0,0.0,0.0,0.0,0.0,0.0,0.0,0.0,0.0,0.0,0.0,0.0,0.0,0.0,0.0,0.0,0.0,0.0,0.0,0.0,0.0,0.0,0.0,0.0,0.0,0.0,0.0,0.0,0.0,0.0,0.0,0.0,0.0,0.0,0.0,0.0,0.0,0.0,0.0,0.0,0.0,0.0,0.0,0.0,0.0,0.0,0.0,0.0,0.0,0.0,0.0,0.0,0.0,0.0,0.0,0.0,0.0,0.0,0.0,0.0,0.0,0.0,0.0,0.0,0.0,0.0,0.0,0.0,0.0,0.0,0.0,0.0,0.0,0.0,0.0,0.0,0.0,0.0,0.0,0.0,0.0,0.0,0.0,0.0,0.0,0.0,0.0,0.0,0.0,0.0,0.0,0.0,0.0,0.0,0.0,0.0,0.0,0.0,0.0,0.0,0.0,0.0,0.0,0.0,0.0,-3.416,-3.4702,-3.6313,-3.4884,-3.4025,-3.3963,0.0,0.0,0.0,0.0,0.0,0.0,0.0,0.0,0.0,0.0,0.0,0.0,0.0,0.0,0.0,0.0,0.0,0.0,0.0,0.0,0.0,0.0,0.0,0.0,0.0,0.0,0.0,0.0,0.0,0.0,0.0,0.0,0.0,0.0,0.0,0.0,0.0,0.0,0.0,0.0,0.0,0.0,0.0,0.0,0.0,0.0,0.0,0.0,0.0,0.0,0.0,0.0,0.0,0.0,0.0,0.0,0.0,0.0,0.0,0.0,0.0,0.0,0.0,0.0,0.0,0.0,0.0,0.0,0.0,0.0,0.0,0.0,0.0,0.0,0.0,0.0,0.0,0.0,0.0,0.0,0.0,0.0,0.0,0.0,0.0,0.0,0.0,0.0,0.0,0.0,0.0,0.0,0.0,0.0,0.0,0.0,0.0,0.0,0.0,0.0,0.0,0.0,0.0,0.0,0.0,0.0,0.0,0.0,-3.6597,-3.5095,-3.5053,-3.6847,-3.3626,-3.2624,0.0,0.0,0.0,0.0,0.0,0.0,0.0,0.0,0.0,0.0,0.0,0.0,0.0,0.0,0.0,0.0,0.0,0.0,0.0,0.0,0.0,0.0,0.0,0.0,0.0,0.0,0.0,0.0,0.0,0.0,0.0,0.0,0.0,0.0,0.0,0.0,0.0,0.0,0.0,0.0,0.0,0.0,0.0,0.0,0.0,0.0,0.0,0.0,0.0,0.0,0.0,0.0,0.0,0.0,0.0,0.0,0.0,0.0,0.0,0.0,0.0,0.0,0.0,0.0,0.0,0.0,0.0,0.0,0.0,0.0,0.0,0.0,0.0,0.0,0.0,0.0,0.0,0.0,0.0,0.0,0.0,0.0,0.0,0.0,0.0,0.0,0.0,0.0,0.0,0.0,0.0,0.0,0.0,0.0,0.0,0.0,0.0,0.0,0.0,0.0,0.0,0.0,0.0,0.0,0.0,0.0,0.0,0.0,0.0,-3.5393,-3.7502,-3.8151,-3.7319,-3.6994,-3.6349,0.0,0.0,0.0,0.0,0.0,0.0,0.0,0.0,0.0,0.0,0.0,0.0,0.0,0.0,0.0,0.0,0.0,0.0,0.0,0.0,0.0,0.0,0.0,0.0,0.0,0.0,0.0,0.0,0.0,0.0,0.0,0.0,0.0,0.0,0.0,0.0,0.0,0.0,0.0,0.0,0.0,0.0,0.0,0.0,0.0,0.0,0.0,0.0,0.0,0.0,0.0,0.0,0.0,0.0,0.0,0.0,0.0,0.0,0.0,0.0,0.0,0.0,0.0,0.0,0.0,0.0,0.0,0.0,0.0,0.0,0.0,0.0,0.0,0.0,0.0,0.0,0.0,0.0,0.0,0.0,0.0,0.0,0.0,0.0,0.0,0.0,0.0,0.0,0.0,0.0,0.0,0.0,0.0,0.0,0.0,0.0,0.0,0.0,0.0,0.0,0.0,0.0,0.0,0.0,0.0,0.0,0.0,0.0,0.0,-3.6072,-3.9517,-4.0554,-3.888,-3.8725,-3.7754,0.0,0.0,0.0,0.0,0.0,0.0,0.0,0.0,0.0,0.0,0.0,0.0,0.0,0.0,0.0,0.0,0.0,0.0,0.0,0.0,0.0,0.0,0.0,0.0,0.0,0.0,0.0,0.0,0.0,0.0,0.0,0.0,0.0,0.0,0.0,0.0,0.0,0.0,0.0,0.0,0.0,0.0,0.0,0.0,0.0,0.0,0.0,0.0,0.0,0.0,0.0,0.0,0.0,0.0,0.0,0.0,0.0,0.0,0.0,0.0,0.0,0.0,0.0,0.0,0.0,0.0,0.0,0.0,0.0,0.0,0.0,0.0,0.0,0.0,0.0,0.0,0.0,0.0,0.0,0.0,0.0,0.0,0.0,0.0,0.0,0.0,0.0,0.0,0.0,0.0,0.0,0.0,0.0,0.0,0.0,0.0,0.0,0.0,0.0,0.0,0.0,0.0,0.0,0.0,0.0,0.0,0.0,0.0,-3.5114,-3.9124,-4.1105,-4.194,-4.1543,-3.8397,-3.629,0.0,0.0,0.0,0.0,0.0,0.0,0.0,0.0,0.0,0.0,0.0,0.0,0.0,0.0,0.0,0.0,0.0,0.0,0.0,0.0,0.0,0.0,0.0,0.0,0.0,0.0,0.0,0.0,0.0,0.0,0.0,0.0,0.0,0.0,0.0,0.0,0.0,0.0,0.0,0.0,0.0,0.0,0.0,0.0,0.0,0.0,0.0,0.0,0.0,0.0,0.0,0.0,0.0,0.0,0.0,0.0,0.0,0.0,0.0,0.0,0.0,0.0,0.0,0.0,0.0,0.0,0.0,0.0,0.0,0.0,0.0,0.0,0.0,0.0,0.0,0.0,0.0,0.0,0.0,0.0,0.0,0.0,0.0,0.0,0.0,0.0,0.0,0.0,0.0,0.0,0.0,0.0,0.0,0.0,0.0,0.0,0.0,0.0,0.0,0.0,0.0,0.0,0.0,0.0,0.0,0.0,0.0,0.0,0.0,-4.0017,-4.2934,-4.4413,-4.4173,-4.1972,-4.0157,0.0,0.0,0.0,0.0,0.0,0.0,0.0,0.0,0.0,0.0,0.0,0.0,0.0,0.0,0.0,0.0,0.0,0.0,0.0,0.0,0.0,0.0,0.0,0.0,0.0,0.0,0.0,0.0,0.0,0.0,0.0,0.0,0.0,0.0,0.0,0.0,0.0,0.0,0.0,0.0,0.0,0.0,0.0,0.0,0.0,0.0,0.0,0.0,0.0,0.0,0.0,0.0,0.0,0.0,0.0,0.0,0.0,0.0,0.0,0.0,0.0,0.0,0.0,0.0,0.0,0.0,0.0,0.0,0.0,0.0,0.0,0.0,0.0,0.0,0.0,0.0,0.0,0.0,0.0,0.0,0.0,0.0,0.0,0.0,0.0,0.0,0.0,0.0,0.0,0.0,0.0,0.0,0.0,0.0,0.0,0.0,0.0,0.0,0.0,0.0,0.0,0.0,0.0,0.0,0.0,0.0,0.0,0.0,0.0,-4.311,-4.5474,-4.67,-4.6534,-4.4212,-4.229,-4.0826,0.0,0.0,0.0,0.0,0.0,0.0,0.0,0.0,0.0,0.0,0.0,0.0,0.0,0.0,0.0,0.0,0.0,0.0,0.0,0.0,0.0,0.0,0.0,0.0,0.0,0.0,0.0,0.0,0.0,0.0,0.0,0.0,0.0,0.0,0.0,0.0,0.0,0.0,0.0,0.0,0.0,0.0,0.0,0.0,0.0,0.0,0.0,0.0,0.0,0.0,0.0,0.0,0.0,0.0,0.0,0.0,0.0,0.0,0.0,0.0,0.0,0.0,0.0,0.0,0.0,0.0,0.0,0.0,0.0,0.0,0.0,0.0,0.0,0.0,0.0,0.0,0.0,0.0,0.0,0.0,0.0,0.0,0.0,0.0,0.0,0.0,0.0,0.0,0.0,0.0,0.0,0.0,0.0,0.0,0.0,0.0,0.0,0.0,0.0,0.0,0.0,0.0,0.0,0.0,0.0,0.0,0.0,0.0,-4.758,-4.8483,-4.882,-4.847,-4.5076,-4.2886,0.0,0.0,0.0,0.0,0.0,0.0,0.0,0.0,0.0,0.0,0.0,0.0,0.0,0.0,0.0,0.0,0.0,0.0,0.0,0.0,0.0,0.0,0.0,0.0,0.0,0.0,0.0,0.0,0.0,0.0,0.0,0.0,0.0,0.0,0.0,0.0,0.0,0.0,0.0,0.0,0.0,0.0,0.0,0.0,0.0,0.0,0.0,0.0,0.0,0.0,0.0,0.0,0.0,0.0,0.0,0.0,0.0,0.0,0.0,0.0,0.0,0.0,0.0,0.0,0.0,0.0,0.0,0.0,0.0,0.0,0.0,0.0,0.0,0.0,0.0,0.0,0.0,0.0,0.0,0.0,0.0,0.0,0.0,0.0,0.0,0.0,0.0,0.0,0.0,0.0,0.0,0.0,0.0,0.0,0.0,0.0,0.0,0.0,0.0,0.0,0.0,0.0,0.0,0.0,0.0,0.0,0.0,0.0,0.0,-4.9263,-5.0607,-5.1035,-5.0345,-4.5977,-4.3597,0.0,0.0,0.0,0.0,0.0,0.0,0.0,0.0,0.0,0.0,0.0,0.0,0.0,0.0,0.0,0.0,0.0,0.0,0.0,0.0,0.0,0.0,0.0,0.0,0.0,0.0,0.0,0.0,0.0,0.0,0.0,0.0,0.0,0.0,0.0,0.0,0.0,0.0,0.0,0.0,0.0,0.0,0.0,0.0,0.0,0.0,0.0,0.0,0.0,0.0,0.0,0.0,0.0,0.0,0.0,0.0,0.0,0.0,0.0,0.0,0.0,0.0,0.0,0.0,0.0,0.0,0.0,0.0,0.0,0.0,0.0,0.0,0.0,0.0,0.0,0.0,0.0,0.0,0.0,0.0,0.0,0.0,0.0,0.0,0.0,0.0,0.0,0.0,0.0,0.0,0.0,0.0,0.0,0.0,0.0,0.0,0.0,0.0,0.0,0.0,0.0,0.0,0.0,0.0,0.0,0.0,0.0,0.0,-4.8014,-5.1623,-5.286,-5.326,-5.2563,-4.8162,-4.5476,0.0,0.0,0.0,0.0,0.0,0.0,0.0,0.0,0.0,0.0,0.0,0.0,0.0,0.0,0.0,0.0,0.0,0.0,0.0,0.0,0.0,0.0,0.0,0.0,0.0,0.0,0.0,0.0,0.0,0.0,0.0,0.0,0.0,0.0,0.0,0.0,0.0,0.0,0.0,0.0,0.0,0.0,0.0,0.0,0.0,0.0,0.0,0.0,0.0,0.0,0.0,0.0,0.0,0.0,0.0,0.0,0.0,0.0,0.0,0.0,0.0,0.0,0.0,0.0,0.0,0.0,0.0,0.0,0.0,0.0,0.0,0.0,0.0,0.0,0.0,0.0,0.0,0.0,0.0,0.0,0.0,0.0,0.0,0.0,0.0,0.0,0.0,0.0,0.0,0.0,0.0,0.0,0.0,0.0,0.0,0.0,0.0,0.0,0.0,0.0,0.0,0.0,0.0,0.0,0.0,0.0,0.0,0.0,-4.9692,-5.4182,-5.5101,-5.53,-5.4805,-5.108,-4.7941,0.0,0.0,0.0,0.0,0.0,0.0,0.0,0.0,0.0,0.0,0.0,0.0,0.0,0.0,0.0,0.0,0.0,0.0,0.0,0.0,0.0,0.0,0.0,0.0,0.0,0.0,0.0,0.0,0.0,0.0,0.0,0.0,0.0,0.0,0.0,0.0,0.0,0.0,0.0,0.0,0.0,0.0,0.0,0.0,0.0,0.0,0.0,0.0,0.0,0.0,0.0,0.0,0.0,0.0,0.0,0.0,0.0,0.0,0.0,0.0,0.0,0.0,0.0,0.0,0.0,0.0,0.0,0.0,0.0,0.0,0.0,0.0,0.0,0.0,0.0,0.0,0.0,0.0,0.0,0.0,0.0,0.0,0.0,0.0,0.0,0.0,0.0,0.0,0.0,0.0,0.0,0.0,0.0,0.0,0.0,0.0,0.0,0.0,0.0,0.0,0.0,0.0,0.0,0.0,0.0,0.0,0.0,0.0,-5.0807,-5.5787,-5.6329,-5.667,-5.715,-5.2908,-4.9286,0.0,0.0,0.0,0.0,0.0,0.0,0.0,0.0,0.0,0.0,0.0,0.0,0.0,0.0,0.0,0.0,0.0,0.0,0.0,0.0,0.0,0.0,0.0,0.0,0.0,0.0,0.0,0.0,0.0,0.0,0.0,0.0,0.0,0.0,0.0,0.0,0.0,0.0,0.0,0.0,0.0,0.0,0.0,0.0,0.0,0.0,0.0,0.0,-3.5641,0.0,0.0,0.0,0.0,0.0,0.0,0.0,0.0,0.0,0.0,0.0,0.0,0.0,0.0,0.0,0.0,0.0,0.0,0.0,0.0,0.0,0.0,0.0,0.0,0.0,0.0,0.0,0.0,0.0,0.0,0.0,0.0,0.0,0.0,0.0,0.0,0.0,0.0,0.0,0.0,0.0,0.0,0.0,0.0,0.0,0.0,0.0,0.0,0.0,0.0,0.0,0.0,0.0,0.0,0.0,0.0,0.0,0.0,0.0,-5.3699,-5.7775,-5.8497,-5.8668,-5.8357,-5.6016,-5.2502,0.0,0.0,0.0,0.0,0.0,0.0,0.0,0.0,0.0,0.0,0.0,0.0,0.0,0.0,0.0,0.0,0.0,0.0,0.0,0.0,0.0,0.0,0.0,0.0,0.0,0.0,0.0,0.0,0.0,0.0,0.0,0.0,0.0,0.0,0.0,0.0,0.0,0.0,0.0,0.0,0.0,0.0,0.0,0.0,0.0,0.0,0.0,0.0,0.0,0.0,0.0,0.0,0.0,0.0,0.0,0.0,0.0,0.0,0.0,0.0,0.0,0.0,0.0,0.0,0.0,0.0,0.0,0.0,0.0,0.0,0.0,0.0,0.0,0.0,0.0,0.0,0.0,0.0,0.0,0.0,0.0,0.0,0.0,0.0,0.0,0.0,0.0,0.0,0.0,0.0,0.0,0.0,0.0,0.0,0.0,0.0,0.0,0.0,0.0,0.0,0.0,0.0,0.0,0.0,0.0,0.0,0.0,-5.2789,-5.6269,-5.9617,-6.0515,-6.0384,-5.9254,-5.8943,-5.5647,-4.9229,0.0,0.0,0.0,0.0,0.0,0.0,0.0,0.0,0.0,0.0,0.0,0.0,0.0,0.0,0.0,0.0,0.0,0.0,0.0,0.0,0.0,0.0,0.0,0.0,0.0,0.0,0.0,0.0,0.0,0.0,0.0,0.0,0.0,0.0,0.0,0.0,0.0,0.0,-3.1603,-3.48,0.0,0.0,0.0,0.0,0.0,0.0,0.0,0.0,-3.8717,0.0,0.0,0.0,0.0,0.0,0.0,0.0,0.0,0.0,0.0,0.0,0.0,0.0,0.0,0.0,0.0,0.0,0.0,0.0,0.0,0.0,0.0,0.0,0.0,0.0,0.0,0.0,0.0,0.0,0.0,0.0,0.0,0.0,0.0,0.0,0.0,0.0,0.0,0.0,0.0,0.0,0.0,0.0,0.0,0.0,0.0,0.0,0.0,0.0,0.0,0.0,0.0,0.0,0.0,0.0,0.0,-4.9161,-5.1191,-5.4904,-6.0217,-6.0603,-6.0681,-6.0408,-5.9245,-5.5687,-4.9948,0.0,0.0,0.0,0.0,0.0,0.0,0.0,0.0,0.0,0.0,0.0,0.0,0.0,0.0,0.0,0.0,0.0,0.0,0.0,0.0,0.0,0.0,0.0,0.0,0.0,0.0,0.0,0.0,0.0,0.0,0.0,0.0,0.0,0.0,0.0,0.0,0.0,0.0,0.0,-4.0383,-4.1903,0.0,0.0,0.0,0.0,0.0,0.0,0.0,0.0,-4.0204,0.0,0.0,0.0,0.0,0.0,0.0,0.0,0.0,0.0,0.0,0.0,0.0,0.0,0.0,0.0,0.0,0.0,0.0,0.0,0.0,0.0,0.0,0.0,0.0,0.0,0.0,0.0,0.0,0.0,0.0,0.0,0.0,0.0,0.0,0.0,0.0,0.0,0.0,0.0,0.0,0.0,0.0,0.0,0.0,0.0,0.0,0.0,0.0,0.0,0.0,0.0,0.0,0.0,0.0,0.0,-5.0992,-5.4872,-5.8583,-6.2047,-6.2036,-6.1702,-6.1292,-6.0569,-5.6986,0.0,0.0,0.0,0.0,0.0,0.0,0.0,0.0,0.0,0.0,0.0,0.0,0.0,0.0,0.0,0.0,0.0,0.0,0.0,0.0,0.0,0.0,0.0,0.0,0.0,0.0,0.0,0.0,0.0,0.0,0.0,0.0,0.0,0.0,0.0,0.0,0.0,0.0,0.0,0.0,-4.2586,-4.3931,-4.5694,0.0,0.0,0.0,0.0,0.0,0.0,-4.2396,-4.1443,0.0,0.0,0.0,0.0,0.0,0.0,0.0,0.0,0.0,0.0,0.0,0.0,0.0,0.0,0.0,0.0,0.0,0.0,0.0,0.0,0.0,0.0,0.0,0.0,0.0,0.0,0.0,0.0,0.0,0.0,0.0,0.0,0.0,0.0,0.0,0.0,0.0,0.0,0.0,0.0,0.0,0.0,0.0,0.0,0.0,0.0,0.0,0.0,0.0,0.0,0.0,0.0,0.0,0.0,0.0,-5.2966,-5.8137,-6.1911,-6.3804,-6.3212,-6.2608,-6.2165,-6.1741,-5.8277,0.0,0.0,0.0,0.0,0.0,0.0,0.0,0.0,0.0,0.0,0.0,0.0,0.0,0.0,0.0,0.0,0.0,0.0,0.0,0.0,0.0,0.0,0.0,0.0,0.0,0.0,0.0,0.0,0.0,0.0,0.0,0.0,0.0,0.0,0.0,0.0,0.0,0.0,0.0,0.0,0.0,-4.5443,-4.7563,-4.7588,0.0,0.0,0.0,0.0,-4.5048,-4.4359,0.0,0.0,0.0,0.0,0.0,0.0,0.0,0.0,0.0,0.0,0.0,0.0,0.0,0.0,0.0,0.0,0.0,0.0,0.0,0.0,0.0,0.0,0.0,0.0,0.0,0.0,0.0,0.0,0.0,0.0,0.0,0.0,0.0,0.0,0.0,0.0,0.0,0.0,0.0,0.0,0.0,0.0,0.0,0.0,0.0,0.0,0.0,0.0,0.0,0.0,0.0,0.0,0.0,0.0,0.0,0.0,-5.3547,-5.6809,-6.0435,-6.4254,-6.317,-6.273,-6.3272,-6.1975,-5.8569,0.0,0.0,0.0,0.0,0.0,0.0,0.0,0.0,0.0,0.0,0.0,0.0,0.0,0.0,0.0,0.0,0.0,0.0,0.0,0.0,0.0,0.0,0.0,0.0,0.0,0.0,0.0,0.0,0.0,0.0,0.0,0.0,0.0,0.0,0.0,0.0,0.0,0.0,0.0,0.0,0.0,-4.7495,-4.7165,-4.7665,-4.8209,0.0,0.0,-4.8923,-4.944,-4.9317,0.0,0.0,0.0,0.0,0.0,0.0,0.0,0.0,0.0,0.0,0.0,0.0,0.0,0.0,0.0,0.0,0.0,0.0,0.0,0.0,0.0,0.0,0.0,0.0,0.0,0.0,0.0,0.0,0.0,0.0,0.0,0.0,0.0,0.0,0.0,0.0,0.0,0.0,0.0,0.0,0.0,0.0,0.0,0.0,0.0,0.0,0.0,0.0,0.0,0.0,0.0,0.0,0.0,0.0,0.0,-5.0866,-5.3753,-5.8637,-6.229,-6.4478,-6.3971,-6.3802,-6.414,-6.3497,-6.0299,0.0,0.0,0.0,0.0,0.0,0.0,0.0,0.0,0.0,0.0,0.0,0.0,0.0,0.0,0.0,0.0,0.0,0.0,0.0,0.0,0.0,0.0,0.0,0.0,0.0,0.0,0.0,0.0,0.0,0.0,0.0,0.0,0.0,0.0,0.0,0.0,0.0,0.0,0.0,0.0,0.0,0.0,-5.1722,-5.1888,0.0,0.0,0.0,-5.2496,-5.1011,0.0,0.0,0.0,0.0,0.0,0.0,0.0,0.0,0.0,0.0,0.0,0.0,0.0,0.0,0.0,0.0,0.0,0.0,0.0,0.0,0.0,0.0,0.0,0.0,0.0,0.0,0.0,0.0,0.0,0.0,0.0,0.0,0.0,0.0,0.0,0.0,0.0,0.0,0.0,0.0,0.0,0.0,0.0,0.0,0.0,0.0,0.0,0.0,0.0,0.0,0.0,0.0,0.0,0.0,0.0,0.0,0.0,-5.4262,-6.0528,-6.4309,-6.5358,-6.4884,-6.4884,-6.5392,-6.4918,0.0,0.0,0.0,0.0,0.0,0.0,0.0,0.0,0.0,0.0,0.0,0.0,0.0,0.0,0.0,0.0,0.0,0.0,0.0,0.0,0.0,0.0,0.0,0.0,0.0,0.0,0.0,-3.1055,0.0,0.0,0.0,0.0,0.0,0.0,0.0,0.0,0.0,0.0,0.0,0.0,0.0,0.0,-5.2567,-5.5143,-5.5415,-5.5856,0.0,0.0,-5.5653,-5.3484,-5.4126,-5.3822,0.0,0.0,0.0,0.0,0.0,0.0,0.0,0.0,0.0,0.0,0.0,0.0,0.0,0.0,0.0,0.0,0.0,0.0,0.0,0.0,0.0,0.0,0.0,0.0,0.0,0.0,0.0,0.0,0.0,0.0,0.0,0.0,0.0,0.0,0.0,0.0,0.0,0.0,0.0,0.0,0.0,0.0,0.0,0.0,0.0,0.0,0.0,0.0,0.0,0.0,0.0,0.0,0.0,0.0,-5.3382,-5.5683,-6.1467,-6.5561,-6.7523,-6.5662,-6.5595,-6.7557,-6.5696,-6.2188,0.0,0.0,0.0,0.0,0.0,0.0,0.0,0.0,0.0,0.0,0.0,0.0,0.0,0.0,0.0,0.0,0.0,0.0,0.0,0.0,0.0,0.0,0.0,0.0,0.0,0.0,0.0,0.0,0.0,0.0,0.0,0.0,0.0,0.0,0.0,0.0,0.0,0.0,0.0,0.0,0.0,-5.3073,-5.4669,-5.5888,-5.7442,0.0,-5.866,-5.7915,-5.8423,-5.8558,-5.8084,-5.6461,0.0,0.0,0.0,0.0,0.0,0.0,0.0,0.0,0.0,0.0,0.0,0.0,0.0,0.0,0.0,0.0,0.0,0.0,0.0,0.0,0.0,0.0,0.0,0.0,0.0,0.0,0.0,0.0,0.0,0.0,0.0,0.0,0.0,0.0,0.0,0.0,0.0,0.0,0.0,0.0,0.0,0.0,0.0,0.0,0.0,0.0,0.0,0.0,0.0,0.0,0.0,0.0,0.0,-5.3957,-5.5784,-6.2482,-6.6373,-6.7184,-6.732,-6.7557,-6.7895,-6.7083,-6.4695,0.0,0.0,0.0,0.0,0.0,0.0,0.0,0.0,0.0,0.0,0.0,0.0,0.0,0.0,0.0,0.0,0.0,0.0,0.0,0.0,0.0,0.0,0.0,0.0,0.0,0.0,0.0,0.0,-3.8633,-3.8937,-3.8599,0.0,0.0,0.0,0.0,0.0,0.0,0.0,0.0,0.0,0.0,-5.6904,-5.792,-5.9674,0.0,0.0,-6.211,-6.1975,-6.1806,-6.1806,-6.1129,-5.9167,-5.8592,0.0,0.0,0.0,0.0,0.0,0.0,0.0,0.0,0.0,0.0,0.0,0.0,0.0,0.0,0.0,0.0,0.0,0.0,0.0,0.0,0.0,0.0,0.0,0.0,0.0,0.0,0.0,0.0,0.0,0.0,0.0,0.0,0.0,0.0,0.0,0.0,0.0,0.0,0.0,0.0,0.0,0.0,0.0,0.0,0.0,0.0,0.0,0.0,0.0,0.0,0.0,0.0,-5.5006,-5.6697,-6.3835,-6.759,-6.7827,-6.8876,-6.9248,-6.891,-6.8504,-6.6693,0.0,0.0,0.0,0.0,0.0,0.0,0.0,0.0,0.0,0.0,0.0,0.0,0.0,0.0,0.0,0.0,0.0,0.0,0.0,0.0,0.0,0.0,0.0,0.0,0.0,0.0,0.0,0.0,-4.1576,-4.1474,-4.1339,0.0,0.0,0.0,0.0,0.0,0.0,0.0,0.0,0.0,0.0,-6.0385,-6.1332,-6.2821,-6.3903,-6.414,-6.458,-6.4749,-6.4241,-6.4343,-6.3869,-6.2076,0.0,0.0,0.0,0.0,0.0,0.0,0.0,0.0,0.0,0.0,0.0,0.0,0.0,0.0,0.0,0.0,0.0,0.0,0.0,0.0,0.0,0.0,0.0,0.0,0.0,0.0,0.0,-3.3322,0.0,0.0,-3.3322,0.0,0.0,0.0,0.0,0.0,0.0,0.0,0.0,0.0,0.0,0.0,0.0,0.0,0.0,0.0,0.0,0.0,0.0,0.0,0.0,0.0,0.0,-5.6731,-5.8964,-6.5595,-6.9383,-7.006,-7.0161,-7.0534,-7.1176,-6.9857,-6.7658,-6.4613,0.0,0.0,0.0,0.0,0.0,0.0,0.0,0.0,0.0,0.0,0.0,0.0,0.0,0.0,0.0,0.0,0.0,0.0,0.0,0.0,0.0,0.0,0.0,0.0,0.0,0.0,-4.0392,-4.1508,-4.347,0.0,0.0,0.0,0.0,0.0,0.0,0.0,0.0,0.0,-5.8389,-6.0858,-6.2854,-6.4275,-6.458,-6.4918,-6.5561,-6.5696,-6.5696,-6.5696,-6.6271,-6.6474,0.0,0.0,0.0,0.0,0.0,0.0,0.0,0.0,0.0,0.0,0.0,0.0,0.0,0.0,0.0,0.0,0.0,0.0,0.0,0.0,0.0,0.0,0.0,0.0,0.0,0.0,0.0,-3.64,-3.64,0.0,0.0,0.0,0.0,0.0,0.0,0.0,0.0,0.0,0.0,0.0,-5.6427,-5.7712,0.0,0.0,0.0,0.0,0.0,0.0,0.0,0.0,0.0,0.0,0.0,0.0,-5.8017,-5.9945,-6.6406,-7.0432,-7.1616,-7.2124,-7.2496,-7.2732,-7.1819,-6.918,-6.4749,0.0,0.0,0.0,0.0,0.0,0.0,0.0,0.0,0.0,0.0,0.0,0.0,0.0,0.0,0.0,0.0,0.0,0.0,0.0,0.0,0.0,0.0,0.0,0.0,0.0,-4.5297,0.0,0.0,0.0,0.0,0.0,0.0,0.0,0.0,0.0,0.0,-5.5615,-5.8355,-6.1603,-6.3091,-6.441,-6.5865,-6.6948,-6.7489,0.0,0.0,0.0,0.0,0.0,0.0,0.0,0.0,0.0,0.0,0.0,0.0,0.0,-6.1467,-5.9471,-5.7509,-5.7137,-5.7137,-5.7137,0.0,0.0,0.0,0.0,0.0,0.0,0.0,0.0,0.0,0.0,0.0,0.0,0.0,0.0,-4.2658,-4.2828,-4.1847,0.0,0.0,0.0,0.0,0.0,0.0,0.0,0.0,-5.7543,-5.9945,-6.1366,-6.2618,-6.3226,-6.3193,-6.2685,-5.9539,0.0,0.0,0.0,0.0,0.0,0.0,0.0,0.0,-6.1061,-6.2956,-6.8166,-7.1548,-7.2732,-7.3477,-7.3883,-7.3883,-7.3172,-7.1176,-6.7793,-6.5019,-6.2279,0.0,0.0,0.0,0.0,0.0,0.0,0.0,0.0,0.0,0.0,0.0,0.0,0.0,0.0,0.0,0.0,0.0,0.0,0.0,0.0,0.0,0.0,0.0,-4.9965,0.0,0.0,0.0,0.0,0.0,0.0,0.0,0.0,0.0,-5.7814,-5.9573,-6.1975,-6.4681,-6.5696,-6.6609,-6.7793,0.0,0.0,0.0,0.0,0.0,0.0,0.0,-7.0297,-6.9282,-6.891,-6.8267,-6.6812,-6.6339,-6.617,-6.617,0.0,0.0,-6.2279,-6.167,-6.167,-6.167,-6.2076,-6.2448,-6.2448,-6.326,-6.414,0.0,0.0,0.0,0.0,-4.8173,0.0,0.0,0.0,-5.1623,-5.1623,0.0,-4.9323,0.0,0.0,0.0,0.0,-4.9492,-5.3721,0.0,0.0,-6.3565,-6.5764,-6.5899,-6.6643,-6.6981,-6.6981,-6.6981,-6.6542,-6.5459,-6.0047,0.0,0.0,0.0,0.0,0.0,0.0,-6.5764,-6.7827,-7.0872,-7.2834,-7.3612,-7.4356,-7.4728,-7.4728,-7.4018,-7.3544,-7.3308,-6.8639,-6.5527,-6.4546,-5.7712,0.0,0.0,0.0,0.0,0.0,0.0,0.0,0.0,0.0,0.0,0.0,0.0,0.0,0.0,0.0,0.0,0.0,0.0,0.0,0.0,-5.3721,0.0,0.0,0.0,0.0,0.0,0.0,0.0,0.0,0.0,-6.5155,-6.3835,-6.4241,-6.5527,-6.7726,0.0,0.0,0.0,0.0,-7.0567,-7.1312,-7.1988,-7.2462,-7.2496,-7.3071,-7.351,-7.3477,0.0,0.0,-7.05,-6.9688,-6.9248,-6.9248,-6.9755,-6.9147,-6.5628,-6.4952,-6.4884,-6.4884,-6.5967,-6.688,-6.7015,-6.7861,-6.891,-5.9708,0.0,0.0,0.0,0.0,-5.4262,-5.504,-5.6258,-5.6055,-5.5818,-5.5446,-5.4634,0.0,0.0,0.0,0.0,0.0,0.0,-6.0114,-6.3802,-6.5662,-6.7624,-6.9722,-7.0466,-7.0804,-7.0804,-7.0804,-7.0669,-7.0364,-6.8233,-6.5053,-6.1061,0.0,0.0,0.0,0.0,-6.7015,-6.8842,-7.2191,-7.4627,-7.5912,-7.6657,-7.7029,-7.7029,-7.6318,-7.5405,-7.4322,-7.2326,-6.9417,-6.5527,-6.2347,0.0,0.0,0.0,0.0,0.0,0.0,0.0,0.0,0.0,0.0,0.0,0.0,0.0,0.0,0.0,0.0,0.0,0.0,0.0,-5.7949,-5.8727,-5.8727,0.0,0.0,0.0,0.0,0.0,0.0,0.0,0.0,0.0,-6.8166,-6.7489,-6.7996,0.0,0.0,-7.0737,-7.3037,-7.2902,-7.28,-7.3544,-7.3849,0.0,-7.4695,-7.4931,-7.4897,-7.439,-7.3646,-7.3037,-7.2631,-7.236,-7.2225,-7.2225,-7.2394,-7.2157,-7.121,-7.006,-6.9451,-6.9417,-6.9755,-7.0026,-7.006,-7.0398,-7.0838,-6.6339,-6.1738,-5.9674,-5.9066,-5.9505,-5.9776,-6.0825,-6.2347,-6.2313,-6.2245,-6.2042,-6.0858,-6.008,-5.9641,-5.9066,0.0,0.0,0.0,-6.4647,-6.8368,-6.8808,-7.0161,-7.2124,-7.2631,-7.2834,-7.2834,-7.2834,-7.2969,-7.3274,-7.2834,-7.1379,-6.8842,0.0,-6.7184,-6.7523,-6.9079,-7.0669,-7.2191,-7.439,-7.6115,-7.7299,-7.7739,-7.8111,-7.8416,-7.801,-7.7333,-7.642,-7.5676,-7.3544,-6.9823,-6.7151,-6.4613,0.0,0.0,0.0,0.0,0.0,0.0,0.0,0.0,0.0,0.0,0.0,-4.9695,-5.1319,0.0,0.0,0.0,-5.7679,-6.008,-6.2144,-6.2753,0.0,0.0,0.0,0.0,0.0,0.0,0.0,-6.617,-6.7996,-6.9722,-7.0906,-7.077,-7.1041,-7.2259,-7.2124,-7.2597,-7.4356,0.0,-7.4999,-7.5473,-7.5777,-7.6115,-7.6521,-7.6589,-7.6454,-7.6014,-7.5337,-7.4864,-7.483,-7.4593,-7.439,-7.439,-7.4627,-7.483,-7.483,-7.4559,-7.3815,-7.2496,-7.2428,-7.2631,-7.2631,-7.2834,-7.3206,-7.1684,-7.1244,-6.6474,-6.441,-6.4275,-6.4952,-6.6812,-6.9417,-6.9417,-6.9823,-7.0229,-6.7523,-6.6305,-6.6237,-6.4918,0.0,-6.7455,-6.8166,-7.006,-7.2834,-7.2902,-7.3274,-7.3916,-7.4018,-7.3984,-7.395,-7.3916,-7.4289,-7.4965,-7.4965,-7.5676,-7.6961,-7.4356,-7.3308,-7.3849,-7.4525,-7.5608,-7.7029,-7.7164,-7.7604,-7.8314,-7.8314,-7.8686,-7.9363,-7.9363,-7.9363,-7.9261,-7.8619,-7.7502,-7.5845,-7.1954,-6.9011,-6.7387,0.0,0.0,0.0,0.0,0.0,0.0,0.0,0.0,0.0,0.0,0.0,0.0,0.0,0.0,0.0,-6.3666,0.0,-6.5967,-6.6034,0.0,0.0,0.0,-6.8436,-6.9113,-6.9282,-6.962,-7.0297,0.0,0.0,-7.2496,-7.3849,-7.4322,-7.3003,-7.395,-7.483,-7.4965,-7.6217,-7.7096,-7.7198,-7.7773,-7.828,-7.845,-7.845,-7.845,-7.8382,-7.7773,-7.7435,-7.7401,-7.6893,-7.6318,-7.642,-7.686,-7.7367,-7.7367,-7.8382,-7.8314,-7.4999,-7.4762,-7.51,-7.5168,-7.5642,-7.6115,-7.4661,-7.4559,-7.3308,-7.1853,-7.0331,-7.0466,-7.1278,-7.2428,-7.2462,-7.2529,-7.2665,-7.1921,-7.1616,-7.1616,-7.1278,-7.1718,-7.28,-7.351,-7.4864,-7.6623,-7.7266,-7.7604,-7.7807,-7.8348,-7.8314,-7.7807,-7.7773,-7.7874,-7.8044,-7.8044,-7.8213,-7.8551,-7.8416,-7.7874,-7.6961,-7.7096,-7.7638,-7.8585,-7.9667,-8.0581,-8.1325,-8.1359,-8.146,-8.1629,-8.1629,-8.1359,-8.0818,-8.0615,-7.9532,-7.7536,-7.5912,-7.4356,-7.28,-6.891,0.0,0.0,0.0,0.0,0.0,0.0,0.0,0.0,0.0,-6.052,-6.1806,0.0,-6.5865,0.0,-6.6711,-6.8335,-6.9045,-6.9113,0.0,0.0,-7.0161,-7.0364,-6.9992,-7.0939,-7.1684,-7.1853,-7.3003,-7.3883,-7.4052,-7.5405,-7.642,-7.6623,-7.6487,-7.6758,-7.7841,-7.8314,-7.8788,-7.9329,-7.9972,-8.0682,-8.1122,-8.1359,-8.1257,-8.1359,-8.1156,-8.1122,-8.1088,-8.0953,-8.0818,-8.0818,-8.0953,-8.1088,-8.0987,-8.1426,-8.1325,-8.0412,-7.9566,-7.8855,-7.8855,-7.8991,-7.9261,-7.6724,-7.6724,-7.6724,-7.5608,-7.3883,-7.4255,-7.4627,-7.5033,-7.5337,-7.5676,-7.6014,-7.6318,-7.6487,-7.6454,-7.6454,-7.6724,-7.713,-7.7536,-7.8348,-7.9431,-7.9532,-7.9769,-8.0073,-8.0175,-8.0006,-7.96,-7.96,-7.9769,-8.0073,-8.0073,-8.0242,-8.0581,-8.0987,-8.0784,-7.9972,-7.9634,-7.9837,-8.0581,-8.1393,-8.2002,-8.2408,-8.2408,-8.2577,-8.2881,-8.2881,-8.2712,-8.2272,-8.2272,-8.1562,-8.004,-7.9261,-7.8179,-7.6657,-7.4052,-7.2969,0.0,0.0,0.0,0.0,0.0,0.0,0.0,0.0,0.0,0.0,0.0,-6.9214,-6.8741,-6.9553,-7.0398,-7.1109,-7.1176,-7.1312,-7.1616,-7.2022,-7.2259,-7.2157,-7.2868,-7.3646,-7.4322,-7.5405,-7.6251,-7.6589,-7.7942,-7.8991,-7.9397,-7.9397,-7.9498,-7.9972,-8.0344,-8.075,-8.1122,-8.1528,-8.19,-8.234,-8.2408,-8.2408,-8.2408,-8.2408,-8.2408,-8.2408,-8.2408,-8.2408,-8.2408,-8.2408,-8.2408,-8.2441,-8.2712,-8.2881,-8.2813,-8.2543,-8.1968,-8.1325,-8.119,-8.1325,-7.8551,-7.8551,-7.8551,-7.7773,-7.6589,-7.7299,-7.7164,-7.6487,-7.713,-7.801,-7.9025,-8.004,-8.0479,-8.0479,-8.0479,-8.0479,-8.0479,-8.0479,-8.0885,-8.1494,-8.0919,-8.0953,-8.1528,-8.0919,-8.0581,-8.0479,-8.0479,-8.0818,-8.1426,-8.1528,-8.19,-8.2543,-8.2644,-8.2712,-8.2678,-8.2035,-8.2035,-8.2678,-8.278,-8.2847,-8.2847,-8.2847,-8.3152,-8.3761,-8.3693,-8.3625,-8.3625,-8.3625,-8.3321,-8.2577,-8.1934,-8.0919,-7.9464,-7.8179,-7.6826,0.0,-7.4525,0.0,0.0,0.0,0.0,0.0,0.0,0.0,0.0,-7.1312,-7.2056,-7.2902,-7.2326,-7.2191,-7.2902,-7.2969,-7.324,-7.3849,-7.4018,-7.4322,-7.4965,-7.5134,-7.5743,-7.7164,-7.7942,-7.8686,-7.9261,-8.0581,-8.1426,-8.1528,-8.1968,-8.2137,-8.19,-8.2137,-8.2441,-8.2577,-8.2644,-8.2813,-8.2813,-8.278,-8.278,-8.2746,-8.2813,-8.2712,-8.278,-8.278,-8.2712,-8.2746,-8.2813,-8.2746,-8.2712,-8.3253,-8.3625,-8.3659,-8.4031,-8.3998,-8.3016,-8.2678,-8.2712,-8.1562,-8.1596,-8.1562,-8.1393,-8.1156,-8.1291,-7.8585,-7.4153,-7.4289,-7.5777,-7.8348,-8.0885,-8.2002,-8.2002,-8.2002,-8.2002,-8.2002,-8.2002,-8.2374,-8.3084,-8.2915,-8.2949,-8.3084,-8.2949,-8.2577,-8.2035,-8.2002,-8.2069,-8.2205,-8.278,-8.3152,-8.3321,-8.3896,-8.42,-8.42,0.0,0.0,0.0,-8.4843,-8.5148,-8.5148,-8.5148,-8.5215,-8.5317,-8.4742,0.0,-8.4403,-8.4403,-8.4065,-8.3355,-8.3152,0.0,0.0,0.0,0.0,0.0,0.0,0.0,0.0,0.0,0.0,0.0,-7.5506,-7.4695,-7.3037,-7.3544,-7.4559,-7.5879,-7.5337,-7.5202,-7.598,-7.6048,-7.6115,-7.6251,-7.6792,-7.7198,-7.7367,-7.7874,-7.8619,-7.9464,-8.0209,-8.0716,-8.0885,-8.1663,-8.2408,-8.2949,-8.3186,-8.349,-8.3896,-8.3524,-8.3321,-8.3321,-8.3727,-8.4167,-8.42,-8.4167,-8.4065,-8.42,-8.42,-8.4167,-8.4133,-8.4133,-8.4167,-8.4133,-8.42,-8.4167,-8.4167,-8.4336,-8.437,-8.4403,-8.4539,-8.4539,-8.4268,-8.42,-8.42,-8.349,-8.349,-8.349,-8.3084,0.0,-8.2002,-7.9735,-7.6318,-7.7435,-7.8957,-8.0818,-8.2678,-8.3524,-8.3456,-8.234,-8.1866,-8.1799,-8.0716,-8.1021,-8.2374,-8.2408,-8.2983,-8.4065,-8.4065,-8.3862,-8.3524,-8.349,-8.349,-8.3524,-8.3862,-8.4065,-8.4065,-8.4437,-8.4809,-8.5182,-8.5554,-8.5384,-8.4606,-8.5012,-8.5215,-8.5215,-8.5587,-8.579,-8.5757,-8.5418,0.0,0.0,0.0,0.0,0.0,0.0,0.0,0.0,-8.2915,-8.2272,-8.0818,-8.0006,-7.9464,-7.9092,-7.8754,-7.8517,-7.8551,-7.8855,-7.8111,-7.5879,-7.6724,-7.7705,-7.8416,-7.8145,-7.8077,-7.8483,-7.8517,-7.8551,-7.8551,-7.8855,-7.9194,-7.9566,-7.9938,-8.0479,-8.119,-8.1934,-8.2374,-8.2374,-8.3016,-8.3592,-8.3964,-8.4065,-8.4167,-8.4505,-8.4302,-8.4065,-8.4065,-8.4336,-8.4606,-8.4606,-8.4606,-8.4606,-8.4606,-8.4606,-8.4606,-8.4606,-8.4606,-8.4606,-8.4606,-8.4606,-8.4606,-8.4606,-8.4606,-8.4606,-8.4606,-8.4606,-8.4606,-8.4606,-8.4606,-8.4606,-8.5012,-8.5012,-8.5012,-8.4268,-8.2949,-8.234,-8.1393,-8.0378,-8.1663,0.0,0.0,-8.4167,-8.4606,-8.4505,-8.2678,-8.1866,-8.1765,-8.0141,-8.0344,-8.2069,-8.2205,-8.3253,-8.4979,-8.5012,-8.5012,-8.5012,-8.5046,-8.5046,-8.5046,-8.5046,-8.5046,-8.5046,-8.5012,-8.5317,-8.5993,-8.6602,-8.6298,-8.5114,-8.5182,-8.5215,-8.5249,-8.5858,-8.6163,-8.6196,-8.6061,-8.5926,-8.579,-8.5317,-8.5182,-8.5554,-8.5723,-8.5418,-8.4674,-8.4505,-8.3592,-8.1866,-8.1562,-8.1224,-8.0615,-8.0581,-8.0581,-8.0581,-8.1257,-8.0784,-7.872,-7.9803,-8.0581,-8.0615,-8.0581,-8.0581,-8.0581,-8.0581,-8.0581,-8.0581,-8.0581,-8.0885,-8.1562,-8.1663,-8.1968,-8.2712,-8.3321,-8.3693,-8.3693,-8.4167,-8.4606,-8.4606,-8.4573,-8.4606,-8.4606,-8.4573,-8.4539,-8.4573,-8.4573,-8.4606,-8.4606,-8.4606,-8.4606,-8.4606,-8.4606,-8.4606,-8.4606,-8.4606,-8.4606,-8.4606,-8.4606,-8.4606,-8.4606,-8.4606,-8.4606,-8.4606,-8.4742,-8.4843,-8.4843,-8.4945,-8.4979,-8.6602,-8.6569,-8.6602,-8.6095,-8.5283,-8.5215,-8.5046,-8.464,-8.2441,-8.1494,-8.1731,-8.3727,-8.4606,-8.4606,-8.4302,-8.4167,-8.42,-8.4539,-8.4877,-8.5182,-8.5824,-8.6298,-8.6569,-8.6602,-8.6602,-8.6602,-8.6602,-8.6602,-8.6569,-8.6569,-8.6602,-8.6569,-8.6602,-8.6636,-8.6738,-8.6873,-8.6805,-8.6602,-8.7211,-8.7516,-8.755,-8.7617,-8.7685,-8.7651,-8.7076,-8.6433,-8.5824,-8.6298,-8.6027,-8.4877,-8.5418,-8.5452,-8.4674,-8.4065,-8.349,-8.3186,-8.2611,-8.2205,-8.2137,-8.2103,-8.2103,-8.2137,-8.278,-8.2509,-8.1021,-8.1596,-8.2103,-8.2103,-8.2103,-8.2103,-8.2103,-8.2103,-8.2103,-8.2103,-8.2103,-8.2374,-8.3084,-8.3186,-8.3456,-8.4167,-8.4403,-8.4437,-8.4403,-8.4539,-8.4606,-8.4606,-8.4606,-8.4606,-8.4606,-8.4606,-8.4606,-8.4606,-8.4606,-8.4606,-8.4606,-8.4606,-8.4606,-8.4606,-8.4606,-8.4606,-8.4606,-8.4606,-8.4606,-8.4606,-8.4674,-8.4674,-8.4674,-8.4606,-8.4742,-8.4843,-8.5215,-8.5587,-8.5621,-8.6061,-8.6095,-8.9309,-8.9309,-8.9309,-8.8869,-8.8158,-8.7753,-8.7583,-8.7414,-8.5689,-8.4708,-8.4437,-8.5418,-8.5858,-8.5757,-8.4573,-8.4031,-8.3964,-8.3152,-8.3422,-8.4539,-8.4911,-8.5723,-8.6839,-8.6907,-8.6907,-8.6907,-8.6907,-8.6907,-8.6907,-8.6907,-8.6907,-8.6941,-8.7279,-8.7482,-8.7516,-8.7888,-8.8091,-8.8091,-8.7651,-8.7414,-8.7414,-8.7786,-8.782,-8.7414,-8.7448,-8.7144,-8.6433,-8.6738,-8.6569,-8.5892,-8.6196,-8.623,-8.5892,-8.5554,-8.5351,-8.5317,-8.5046,-8.4843,-8.4843,-8.4843,-8.4674,-8.4302,-8.4539,-8.4268,-8.3186,-8.3422,-8.3625,-8.3625,-8.3625,-8.3625,-8.3625,-8.3625,-8.3625,-8.3625,-8.3964,-8.437,-8.4674,-8.4742,-8.4877,-8.5148,-8.4877,-8.4606,-8.4606,-8.4606,-8.4606,-8.4606,-8.4606,-8.4606,-8.4606,-8.4606,-8.4606,-8.4606,-8.4606,-8.4606,-8.4606,-8.4606,-8.4606,-8.4606,-8.4606,-8.4606,-8.4606,-8.464,-8.464,-8.4674,-8.4945,-8.5215,-8.5249,-8.5621,-8.579,-8.5892,-8.6095,-8.6366,-8.6467,-8.6704,-8.6602,-9.1034,-9.1034,-9.0865,-9.0357,-8.9647,-8.8903,-8.87,-8.8767,-8.8192,-8.7786,-8.7414,-8.7076,-8.6907,-8.6704,-8.5046,-8.4268,-8.4031,-8.2678,-8.2915,-8.4403,-8.4674,-8.5723,-8.7245,-8.738,-8.738,-8.7414,-8.738,-8.7414,-8.7414,-8.738,-8.738,-8.7448,-8.7955,-8.8226,-8.8226,-8.8801,-8.9106,-8.9004,-8.7989,-8.7414,-8.7414,-8.7955,-8.7989,-8.7516,-8.7955,-8.7888,-8.7211,-8.7313,-8.7245,-8.6941,-8.7076,-8.7076,-8.6907,-8.6907,-8.6907,-8.6907,-8.6907,-8.6907,-8.6907,-8.6907,-8.667,-8.6095,-8.6027,-8.579,-8.5249,-8.5148,-8.4945,-8.4708,-8.4539,-8.4573,-8.4539,-8.4573,-8.4606,-8.464,-8.5148,-8.5351,-8.5486,-8.552,-8.552,-8.5452,-8.4979,-8.4606,-8.4606,-8.4606,-8.4606,-8.4606,-8.4606,-8.4606,-8.4606,-8.4606,-8.464,-8.4809,-8.4742,-8.464,-8.4606,-8.4606,-8.4606,-8.4606,-8.4809,-8.4945,-8.4979,-8.5012,-8.5148,-8.5317,-8.5655,-8.5993,-8.6095,-8.6433,-8.6771,-8.6771,-8.6941,-8.7211,-8.7414,-8.7482,-8.7245,-9.0324,-9.0188,-8.9681,-8.8869,-8.8294,-8.755,-8.7617,-8.8158,-8.8023,-8.8361,-8.87,-8.7516,-8.6941,-8.6873,-8.667,-8.6535,-8.6602,-8.7076,-8.7279,-8.7516,-8.826,-8.87,-8.8801,-8.8835,-8.8903,-8.8835,-8.8801,-8.8767,-8.8767,-8.8801,-8.8835,-8.8869,-8.897,-8.897,-8.9004,-8.9072,-8.9106,-8.9106,-8.8937,-8.8869,-8.8869,-8.8937,-8.897,-8.8903,-8.8937,-8.8632,-8.7955,-8.8531,-8.826,-8.711,-8.7583,-8.7617,-8.7042,-8.6941,-8.6941,-8.6941,-8.6941,-8.6907,-8.6941,-8.6907,-8.6907,-8.6839,-8.6805,-8.6771,-8.6636,-8.6636,-8.6095,-8.508,-8.4674,-8.4742,-8.464,-8.4708,-8.4742,-8.4742,-8.4843,-8.4742,-8.4843,-8.4708,-8.4742,-8.4742,-8.4742,-8.4606,-8.4606,-8.4674,-8.4674,-8.4742,-8.4877,-8.4911,-8.4877,-8.4877,-8.508,-8.5384,-8.5148,-8.4776,-8.4776,-8.464,-8.4843,-8.4809,-8.5249,-8.5587,-8.5757,-8.6163,-8.667,-8.6264,-8.667,-8.6771,-8.6805,-8.6907,-8.7008,-8.7313,-8.7651,-8.8125,-8.8666,-8.8835,-8.8429,-9.0865,-9.0831,-9.0527,-9.0222,-8.985,-8.9173,-8.9275,-8.9918,-8.9478,-8.9478,-8.9613,-8.8632,-8.8192,-8.8192,-8.8192,-8.8192,-8.8226,-8.8497,-8.8632,-8.8666,-8.8937,-8.9106,-8.9106,-8.9106,-8.9106,-8.9106,-8.9106,-8.9106,-8.9106,-8.9106,-8.9106,-8.9106,-8.9106,-8.9309,-8.9715,-8.9748,-8.9951,-9.0357,-9.0391,-9.0391,-9.029,-8.9545,-8.9106,-8.9106,-8.9106,-8.897,-8.87,-8.8937,-8.8801,-8.826,-8.8497,-8.8497,-8.8226,-8.8192,-8.8192,-8.8192,-8.8192,-8.8192,-8.8192,-8.8192,-8.8023,-8.7583,-8.755,-8.738,-8.6941,-8.6907,-8.6602,-8.6129,-8.5993,-8.596,-8.596,-8.5993,-8.5824,-8.5486,-8.5689,-8.579,-8.5351,-8.5317,-8.5317,-8.5283,-8.4911,-8.464,-8.4708,-8.5046,-8.5283,-8.5384,-8.5621,-8.5892,-8.596,-8.5993,-8.6095,-8.6332,-8.6163,-8.6027,-8.5926,-8.5993,-8.596,-8.5993,-8.623,-8.6433,-8.6501,-8.6636,-8.6907,-8.6941,-8.7279,-8.7516,-8.755,-8.7955,-8.8192,-8.8328,-8.8767,-8.941,-8.9681,-8.9748,-8.941,-9.1,-9.0966,-9.0797,-9.0696,-9.0628,-9.0121,-9.0188,-9.0594,-9.0121,-8.9884,-8.985,-8.9309,-8.9106,-8.9106,-8.9106,-8.9106,-8.9106,-8.9106,-8.9106,-8.9106,-8.9106,-8.9106,-8.9106,-8.9106,-8.9106,-8.914,-8.9309,-8.9512,-8.9534,-8.9681,-8.9681,-8.9568,-8.9681,-8.9951,-9.0459,-9.0493,-9.0763,-9.1203,-9.1189,-9.1156,-9.102,-8.9994,-8.9601,-8.9681,-8.9568,-8.9466,-8.9376,-8.9376,-8.9275,-8.9072,-8.9106,-8.9106,-8.9106,-8.9106,-8.9106,-8.9106,-8.9106,-8.9106,-8.9106,-8.9106,-8.8835,-8.8361,-8.8294,-8.8091,-8.7651,-8.7516,-8.7516,-8.7516,-8.7516,-8.7414,-8.6941,-8.6907,-8.6636,-8.6196,-8.6602,-8.667,-8.6196,-8.6095,-8.6095,-8.6027,-8.5689,-8.5249,-8.5351,-8.5757,-8.6095,-8.6163,-8.6535,-8.6907,-8.6907,-8.6873,-8.6941,-8.7177,-8.7211,-8.7076,-8.6974,-8.6771,-8.6907,-8.6974,-8.6974,-8.7211,-8.7245,-8.7313,-8.7516,-8.7955,-8.8158,-8.826,-8.825,-8.8723,-8.9365,-8.9601,-8.9825,-9.0196,-9.0149,-9.0264,-9.0264,-9.0256,-9.0154,-8.9478,-8.9275,-8.9173,-8.9173,-8.9173,-8.9342,-8.9173,-8.9173,-8.9207,-8.9106,-8.9106,-8.9106,-8.9106,-8.9106,-8.9106,-8.9106,-8.9106,-8.9106,-8.9106,-8.9106,-8.9106,-8.9106,-8.914,-8.9342,-8.9884,-9.0345,-9.0688,-9.0987,-9.1088,-9.0673,-9.0837,-9.1169,-9.1237,-9.1122,-9.1271,-9.1325,-9.1092,-9.0875,-9.0875,-9.0573,-9.0623,-9.1088,-9.0905,-9.0418,-9.0142,-9.0154,-8.985,-8.914,-8.9173,-8.9173,-8.914,-8.914,-8.9173,-8.9173,-8.914,-8.914,-8.914,-8.914,-8.9072,-8.9004,-8.8937,-8.897,-8.8801,-8.8767,-8.8767,-8.8937,-8.8801,-8.8328,-8.7313,-8.7177,-8.7042,-8.6907,-8.6907,-8.6941,-8.6839,-8.6738,-8.6839,-8.6805,-8.667,-8.6535,-8.6704,-8.6839,-8.6873,-8.6873,-8.6907,-8.7042,-8.7144,-8.7042,-8.7313,-8.7786,-8.7922,-8.7753,-8.711,-8.7245,-8.7177,-8.7245,-8.7753,-8.7955,-8.8192,-8.8429,-8.87,-8.8903,-8.8858,-8.8813,-8.8834,-8.9273,-8.9947,-9.0317,-9.0287,-9.0405,-9.0305,-9.0355,-9.0221,-8.9478,-8.9478,-8.9207,-8.9106,-8.9106,-8.9106,-8.9106,-8.9106,-8.9106,-8.9106,-8.9106,-8.9106,-8.9106,-8.9106,-8.9106,-8.9106,-8.9106,-8.9106,-8.9106,-8.914,-8.9579,-8.9816,-8.985,-9.0028,-9.0378,-9.0527,-9.0534,-9.0654,-9.0774,-9.0724,-9.0607,-9.0607,-9.0607,-9.0959,-9.1363,-9.1464,-9.1665,-9.2069,-9.2017,-9.1897,-9.1864,-9.1656,-9.1656,-9.2069,-9.1279,-9.0673,-9.0553,-9.0784,-9.0763,-9.0493,-9.0493,-9.0493,-9.0493,-9.0493,-9.0493,-9.0493,-9.0493,-9.029,-8.9884,-8.9816,-8.9579,-8.914,-8.9106,-8.914,-8.9106,-8.9106,-8.9106,-8.9106,-8.9106,-8.8767,-8.8497,-8.8294,-8.8125,-8.7685,-8.7583,-8.7414,-8.7042,-8.6907,-8.6907,-8.6907,-8.6907,-8.6907,-8.7076,-8.7313,-8.7583,-8.7651,-8.7989,-8.8192,-8.826,-8.8294,-8.8361,-8.8598,-8.87,-8.8632,-8.8429,-8.8328,-8.8328,-8.8361,-8.8564,-8.852,-8.861,-8.8712,-8.8834,-8.8923,-8.9057,-8.9427,-8.9331,-8.9617,-9.0405,-9.0506,-9.0471,-9.0419,-9.0371,-9.0118,-8.9851,-8.9106,-8.9106,-8.9106,-8.9106,-8.9106,-8.9342,-8.9444,-8.9478,-8.9681,-8.9782,-8.9782,-8.9782,-8.9782,-8.9782,-8.9782,-8.9782,-8.9782,-8.9579,-8.9545,-8.9816,-9.0324,-9.056,-9.0628,-9.0804,-9.104,-9.1107,-9.1077,-9.1043,-9.1159,-9.1074,-9.1107,-9.0988,-9.1107,-9.1342,-9.1777,-9.1844,-9.2112,-9.2514,-9.2459,-9.2459,-9.2459,-9.2092,-9.2092,-9.217,-9.1576,-9.1177,-9.1094,-9.1211,-9.1194,-9.0991,-9.0958,-9.0958,-9.0958,-9.1074,-9.0958,-9.0958,-9.0958,-9.0755,-9.0317,-9.0216,-9.0129,-8.9737,-8.9703,-8.9669,-8.9782,-8.9669,-8.9669,-8.9816,-8.9669,-8.9669,-8.9782,-8.9782,-8.941,-8.8598,-8.8361,-8.8158,-8.7685,-8.7651,-8.7651,-8.7685,-8.7719,-8.7651,-8.7651,-8.8057,-8.8294,-8.8361,-8.8801,-8.8926,-8.9072,-8.8847,-8.888,-8.9072,-8.8926,-8.9061,-8.9128,-8.9196,-8.8779,-8.8779,-8.9083,-8.907,-8.9024,-8.901,-8.9029,-8.9047,-8.9232,-8.9634,-8.9918,-9.02,-9.0367,-9.0433,-9.0447,-9.0393,-9.018,-8.968,-8.948,-8.9173,-8.9207,-8.914,-8.9241,-8.9376,-8.9951,-9.0222,-9.0324,-9.0899,-9.1068,-9.1,-9.1169,-9.1068,-9.1169,-9.1034,-9.1169,-9.1102,-9.0594,-9.0594,-9.1068,-9.1237,-9.1305,-9.1305,-9.1358,-9.1194,-9.0959,-9.1294,-9.1723,-9.1981,-9.2103,-9.2137,-9.2114,-9.2137,-9.2225,-9.2547,-9.2359,-9.2514,-9.2459,-9.2214,-9.2092,-9.2092,-9.1844,-9.1687,-9.172,-9.1835,-9.1748,-9.1543,-9.1509,-9.1327,-9.0757,-9.0657,-9.0438,-9.069,-9.0724,-9.0505,-9.069,-9.0505,-9.0471,-9.0404,-9.0522,-9.0607,-9.0455,-9.0706,-9.0688,-9.077,-9.0688,-9.0722,-9.0804,-9.0722,-9.0789,-9.0987,-9.0953,-9.0446,-8.9376,-8.9106,-8.9038,-8.897,-8.9004,-8.9038,-8.8937,-8.8869,-8.9038,-8.9038,-8.8937,-8.8937,-8.8937,-8.888,-8.8868,-8.9196,-8.8956,-8.8674,-8.9015,-8.9252,-8.9441,-8.9677,-8.9926,-8.9407,-8.9024,-8.9461,-8.9615,-8.9517,-8.95,-8.955,-8.9565,-8.9532,-8.978,-9.0013,-9.0226,-9.0239,-9.0338,-9.0383,-9.0028,-8.9553,-8.9054,-8.9087,-9.0594,-9.0628,-9.0628,-9.0594,-9.0628,-9.0865,-9.0966,-9.0966,-9.1237,-9.1305,-9.1305,-9.1305,-9.1305,-9.1305,-9.1305,-9.1575,-9.2015,-9.1812,-9.1609,-9.144,-9.1846,-9.2083,-9.2034,-9.212,-9.1998,-9.179,-9.1869,-9.1981,-9.2025,-9.1968,-9.1844,-9.1811,-9.1811,-9.1968,-9.1968,-9.1968,-9.1968,-9.1968,-9.1844,-9.1687,-9.172,-9.1687,-9.1562,-9.1562,-9.1687,-9.1712,-9.1636,-9.2003,-9.2145,-9.1844,-9.1911,-9.1911,-9.1911,-9.1911,-9.1911,-9.1877,-9.1911,-9.1643,-9.1208,-9.1141,-9.094,-9.0657,-9.0522,-9.0607,-9.0607,-9.064,-9.0674,-9.0758,-9.0607,-9.0607,-9.0607,-9.0724,-9.0471,-8.9951,-8.985,-8.9647,-8.9309,-8.9173,-8.9106,-8.9106,-8.9106,-8.9106,-8.9106,-8.914,-8.9207,-8.9162,-8.9205,-8.9475,-8.969,-8.9648,-8.9818,-9.0134,-9.0052,-8.9835,-9.0103,-9.0305,-9.002,-8.9785,-9.0053,-9.0036,-8.9899,-9.0047,-9.0093,-9.016,-8.9973,-9.0039,-9.0272,-9.0283,-9.0327,-8.9929,-8.9664,-8.9177,-8.8714,-8.8647,-8.8747,-9.1305,-9.1305,-9.1305,-9.1189,-9.1223,-9.146,-9.1595,-9.1662,-9.2049,-9.215,-9.215,-9.2034,-9.2034,-9.1917,-9.1884,-9.2036,-9.2474,-9.2474,-9.2238,-9.1868,-9.2322,-9.2592,-9.266,-9.2467,-9.2337,-9.2092,-9.1968,-9.1968,-9.1968,-9.172,-9.1562,-9.1562,-9.1562,-9.1562,-9.1562,-9.1562,-9.1562,-9.1562,-9.1562,-9.1562,-9.1562,-9.1562,-9.1728,-9.1927,-9.1993,-9.2126,-9.2358,-9.2534,-9.2481,-9.2281,-9.2214,-9.2214,-9.2214,-9.2181,-9.2214,-9.2214,-9.2181,-9.1981,-9.1581,-9.1547,-9.1502,-9.1068,-9.1088,-9.1088,-9.1208,-9.1088,-9.1088,-9.1208,-9.1121,-9.1088,-9.1208,-9.1208,-9.111,-9.0673,-9.0418,-9.0081,-8.9758,-8.969,-8.9724,-8.9758,-8.9758,-8.9576,-8.9576,-8.9576,-8.9576,-8.9643,-8.9716,-8.9902,-9.0119,-9.0069,-9.0304,-9.0404,-9.0237,-9.0304,-9.0706,-9.072,-9.0701,-9.0667,-9.0734,-9.0514,-9.0239,-9.0638,-9.0815,-9.0815,-9.0692,-9.0725,-9.0891,-9.0758,-9.0635,-8.9873,-8.9244,-8.931,-8.9244,-8.8813,-8.878,-9.144,-9.1406,-9.144,-9.1276,-9.1261,-9.1985,-9.2255,-9.2154,-9.293,-9.3284,-9.3318,-9.298,-9.2928,-9.2875,-9.2587,-9.2501,-9.2547,-9.2601,-9.2568,-9.2501,-9.2722,-9.2842,-9.2755,-9.2426,-9.2092,-9.1968,-9.1687,-9.1562,-9.1687,-9.1562,-9.1562,-9.1562,-9.1695,-9.1662,-9.1761,-9.1662,-9.1728,-9.1761,-9.1629,-9.1562,-9.1562,-9.1562,-9.1861,-9.2457,-9.249,-9.2689,-9.3053,-9.2815,-9.2317,-9.1695,-9.1687,-9.1687,-9.1562,-9.1596,-9.1687,-9.172,-9.1596,-9.1687,-9.1529,-9.1588,-9.1712,-9.1858,-9.1858,-9.2214,-9.2103,-9.1914,-9.1914,-9.207,-9.1981,-9.2048,-9.2292,-9.2258,-9.1957,-9.1456,-9.0739,-9.0506,-9.0657,-9.0506,-9.0338,-9.0522,-9.0573,-9.0337,-9.0288,-9.0288,-9.0321,-9.0237,-9.0185,-9.0319,-9.0386,-9.04,-9.0093,-9.0193,-9.058,-9.0747,-9.1147,-9.1181,-9.1004,-9.107,-9.1103,-9.0881,-9.0659,-9.1024,-9.1123,-9.1066,-9.1198,-9.1331,-9.1132,-9.0701,-9.0469,-9.0006,-8.9774,-8.9972,-8.9741,-8.9277,-8.931,-9.2996,-9.2996,-9.2727,-9.2609,-9.249,-9.2607,-9.252,-9.2433,-9.2722,-9.2943,-9.2822,-9.2822,-9.2702,-9.2702,-9.2581,-9.2581,-9.2581,-9.2581,-9.2581,-9.2581,-9.2459,-9.2337,-9.2337,-9.2214,-9.1968,-9.172,-9.1687,-9.1562,-9.1562,-9.1629,-9.1596,-9.1629,-9.2159,-9.2391,-9.2424,-9.2358,-9.2391,-9.2291,-9.1828,-9.1562,-9.1562,-9.1562,-9.1662,-9.1828,-9.1927,-9.2026,-9.2159,-9.1993,-9.1828,-9.1629,-9.1562,-9.1562,-9.1562,-9.1562,-9.1562,-9.1562,-9.1562,-9.1562,-9.1562,-9.1562,-9.172,-9.172,-9.1844,-9.1811,-9.1844,-9.1811,-9.1811,-9.1844,-9.172,-9.1811,-9.1844,-9.1935,-9.1678,-9.1602,-9.088,-9.0505,-9.0589,-9.0489,-9.0371,-9.0489,-9.0471,-9.0505,-9.0538,-9.0505,-9.0505,-9.0453,-9.0634,-9.0726,-9.088,-9.1059,-9.0881,-9.127,-9.1503,-9.1413,-9.1512,-9.1422,-9.1455,-9.1488,-9.1455,-9.1389,-9.1355,-9.1331,-9.1099,-9.0867,-9.0999,-9.1132,-9.0436,-8.9807,-8.9774,-9.0204,-9.0006,-9.0039,-8.9972,-8.9707,-9.0138,-9.3571,-9.3335,-9.3216,-9.2943,-9.2702,-9.2581,-9.2581,-9.2459,-9.2581,-9.2581,-9.2581,-9.2459,-9.2459,-9.2337,-9.2214,-9.2214,-9.2214,-9.2214,-9.2214,-9.2092,-9.1968,-9.1968,-9.1935,-9.1811,-9.1844,-9.1562,-9.1562,-9.1562,-9.1662,-9.1894,-9.2026,-9.2225,-9.2788,-9.2987,-9.2656,-9.2689,-9.2523,-9.2192,-9.1794,-9.1562,-9.1562,-9.1562,-9.1828,-9.196,-9.2059,-9.2026,-9.2059,-9.2059,-9.1927,-9.1662,-9.1562,-9.1562,-9.1562,-9.1562,-9.1562,-9.1562,-9.1562,-9.1562,-9.1562,-9.1562,-9.1562,-9.1562,-9.1562,-9.1562,-9.1562,-9.1562,-9.1562,-9.1562,-9.1562,-9.1562,-9.1562,-9.1562,-9.1562,-9.1588,-9.117,-9.0947,-9.1068,-9.1014,-9.0947,-9.1068,-9.0947,-9.0914,-9.0914,-9.0914,-9.0914,-9.0926,-9.1103,-9.127,-9.137,-9.1521,-9.1562,-9.172,-9.1844,-9.1621,-9.1554,-9.1588,-9.1588,-9.1529,-9.1562,-9.1562,-9.1562,-9.1562,-9.1364,-9.1066,-9.0999,-9.0834,-9.037,-9.0171,-9.0536,-9.0734,-9.037,-9.0469,-9.0668,-9.0767,-9.1198,-9.3335,-9.3062,-9.3096,-9.2702,-9.2214,-9.2337,-9.2337,-9.2092,-9.2337,-9.2459,-9.2337,-9.2214,-9.2092,-9.2092,-9.1844,-9.1562,-9.1596,-9.172,-9.1687,-9.1753,-9.182,-9.1919,-9.1919,-9.1753,-9.1596,-9.1596,-9.1629,-9.1761,-9.1993,-9.249,-9.2788,-9.2987,-9.355,-9.3451,-9.3086,-9.2888,-9.2424,-9.196,-9.1695,-9.1562,-9.1562,-9.1596,-9.1828,-9.2192,-9.2291,-9.2324,-9.2391,-9.2424,-9.2192,-9.1596,-9.1562,-9.1562,-9.1562,-9.1562,-9.1562,-9.1562,-9.1562,-9.1562,-9.1562,-9.1562,-9.1562,-9.1562,-9.1562,-9.1562,-9.1562,-9.1562,-9.1562,-9.1562,-9.1562,-9.1562,-9.1562,-9.1562,-9.1562,-9.1562,-9.1496,-9.1687,-9.1968,-9.1844,-9.172,-9.1935,-9.1778,-9.1562,-9.1562,-9.1562,-9.1496,-9.1247,-9.1389,-9.1512,-9.1579,-9.1588,-9.1562,-9.1562,-9.1687,-9.1562,-9.1562,-9.1562,-9.1562,-9.1562,-9.1562,-9.1562,-9.1562,-9.1562,-9.1562,-9.1463,-9.1297,-9.1297,-9.1264,-9.1297,-9.1364,-9.1331,-9.0999,-9.1629,-9.2291,-9.2291,-9.2523,-9.3216,-9.3062,-9.2581,-9.2214,-9.2092,-9.1968,-9.1811,-9.1687,-9.1811,-9.1811,-9.1844,-9.1687,-9.1687,-9.172,-9.1687,-9.1562,-9.1596,-9.1596,-9.1562,-9.1662,-9.2225,-9.2424,-9.2324,-9.1993,-9.1662,-9.1794,-9.2225,-9.2424,-9.2623,-9.3153,-9.355,-9.3683,-9.4213,-9.4279,-9.3616,-9.3451,-9.3186,-9.249,-9.1861,-9.1562,-9.1562,-9.1562,-9.1662,-9.1894,-9.1861,-9.1828,-9.1828,-9.1828,-9.1728,-9.1629,-9.1562,-9.1562,-9.1562,-9.1562,-9.1562,-9.1562,-9.1562,-9.1562,-9.1562,-9.1562,-9.1596,-9.1629,-9.1662,-9.1562,-9.1562,-9.1629,-9.1596,-9.1596,-9.1562,-9.1562,-9.1562,-9.1562,-9.1562,-9.1562,-9.1562,-9.1596,-9.1687,-9.1687,-9.1687,-9.1687,-9.1687,-9.1562,-9.1562,-9.1562,-9.1562,-9.1562,-9.1562,-9.1562,-9.1562,-9.1562,-9.1562,-9.1562,-9.1562,-9.1562,-9.1562,-9.1562,-9.1562,-9.1562,-9.1562,-9.1562,-9.1562,-9.1562,-9.1562,-9.1562,-9.1529,-9.1562,-9.1562,-9.1562,-9.1463,-9.1529,-9.1629,-9.2126,-9.2589,-9.3053,-9.3782,-9.2976,-9.2822,-9.2337,-9.1968,-9.1844,-9.172,-9.1562,-9.1562,-9.1562,-9.1562,-9.1562,-9.1562,-9.1562,-9.1562,-9.1562,-9.1562,-9.1662,-9.196,-9.2324,-9.2623,-9.3053,-9.3186,-9.3186,-9.2854,-9.2623,-9.2689,-9.2987,-9.3186,-9.3384,-9.3914,-9.4312,-9.4378,-9.5041,-9.471,-9.3948,-9.3782,-9.3153,-9.2258,-9.1794,-9.1562,-9.1562,-9.1562,-9.1562,-9.1562,-9.1562,-9.1562,-9.1596,-9.1596,-9.1562,-9.1562,-9.1596,-9.1596,-9.1562,-9.1562,-9.1562,-9.1562,-9.1562,-9.1562,-9.1562,-9.1596,-9.1728,-9.2093,-9.2093,-9.2093,-9.2093,-9.2093,-9.1894,-9.1662,-9.1562,-9.1562,-9.1562,-9.1562,-9.1562,-9.1562,-9.1562,-9.1562,-9.1562,-9.1562,-9.1562,-9.1562,-9.1562,-9.1562,-9.1562,-9.1562,-9.1562,-9.1562,-9.1562,-9.1562,-9.1562,-9.1562,-9.1562,-9.1562,-9.1562,-9.1562,-9.1562,-9.1562,-9.1562,-9.1562,-9.1562,-9.1562,-9.1562,-9.1562,-9.1562,-9.1562,-9.1562,-9.1562,-9.1562,-9.1562,-9.1562,-9.1562,-9.1761,-9.2225,-9.2788,-9.3384,-9.4246,-9.2822,-9.2459,-9.2214,-9.1811,-9.1562,-9.1562,-9.1562,-9.1562,-9.1562,-9.1562,-9.1562,-9.1562,-9.1562,-9.1596,-9.1761,-9.1794,-9.2126,-9.2523,-9.3119,-9.355,-9.3616,-9.3782,-9.3881,-9.3881,-9.3948,-9.408,-9.4014,-9.3981,-9.4146,-9.4643,-9.5041,-9.5173,-9.5637,-9.5107,-9.4113,-9.3716,-9.3086,-9.1861,-9.1629,-9.1562,-9.1562,-9.1562,-9.1562,-9.1596,-9.1794,-9.1828,-9.1894,-9.1993,-9.1993,-9.1927,-9.1927,-9.1927,-9.1894,-9.1761,-9.1761,-9.1794,-9.196,-9.2159,-9.2192,-9.2126,-9.2324,-9.2821,-9.2854,-9.2854,-9.2854,-9.2821,-9.249,-9.2026,-9.1728,-9.1562,-9.1562,-9.1562,-9.1562,-9.1562,-9.1562,-9.1562,-9.1562,-9.1562,-9.1562,-9.1562,-9.1562,-9.1562,-9.1562,-9.1562,-9.1562,-9.1562,-9.1562,-9.1562,-9.1562,-9.1562,-9.1562,-9.1562,-9.1562,-9.1562,-9.1562,-9.1562,-9.1562,-9.1562,-9.1562,-9.1562,-9.1562,-9.1562,-9.1562,-9.1562,-9.1562,-9.1562,-9.1562,-9.1562,-9.1562,-9.1562,-9.1794,-9.2159,-9.2854,-9.3649,-9.461,-9.2459,-9.2214,-9.1844,-9.1596,-9.1596,-9.1562,-9.1562,-9.1562,-9.1562,-9.1562,-9.1562,-9.1562,-9.1562,-9.1728,-9.2291,-9.2788,-9.3153,-9.3451,-9.3616,-9.3782,-9.3815,-9.4014,-9.4411,-9.4544,-9.4908,-9.5339,-9.5074,-9.471,-9.4908,-9.5405,-9.567,-9.5803,-9.5935,-9.524,-9.4179,-9.3716,-9.3053,-9.1794,-9.1562,-9.1562,-9.1562,-9.1562,-9.1562,-9.1662,-9.2059,-9.2358,-9.2589,-9.3053,-9.3418,-9.3451,-9.3418,-9.3384,-9.3219,-9.2788,-9.2589,-9.2589,-9.2954,-9.3119,-9.3186,-9.3318,-9.3451,-9.3583,-9.3616,-9.3616,-9.3616,-9.3583,-9.3252,-9.2589,-9.1993,-9.1629,-9.1562,-9.1596,-9.1562,-9.1562,-9.1562,-9.1562,-9.1562,-9.1562,-9.1562,-9.1562,-9.1562,-9.1562,-9.1562,-9.1562,-9.1562,-9.1562,-9.1562,-9.1562,-9.1562,-9.1562,-9.1562,-9.1562,-9.1562,-9.1562,-9.1562,-9.1562,-9.1562,-9.1562,-9.1562,-9.1562,-9.1562,-9.1562,-9.1562,-9.1562,-9.1562,-9.1562,-9.1562,-9.1562,-9.1562,-9.1562,-9.1828,-9.2093,-9.302,-9.3948,-9.4643,-9.2214,-9.2058,-9.1687,-9.1562,-9.1562,-9.1562,-9.1562,-9.1562,-9.1562,-9.1562,-9.1562,-9.1596,-9.1828,-9.2159,-9.2457,-9.3086,-9.3649,-9.3815,-9.3815,-9.3815,-9.3815,-9.3914,-9.4445,-9.471,-9.5074,-9.5372,-9.5372,-9.5405,-9.5505,-9.5803,-9.5935,-9.6001,-9.6001,-9.524,-9.4113,-9.3782,-9.2954,-9.1894,-9.1562,-9.1562,-9.1562,-9.1562,-9.1562,-9.1794,-9.2291,-9.2656,-9.2821,-9.3384,-9.3749,-9.3782,-9.3782,-9.3815,-9.3815,-9.3848,-9.3649,-9.3451,-9.3649,-9.3815,-9.3815,-9.3815,-9.3914,-9.4312,-9.4378,-9.4345,-9.4378,-9.4312,-9.4014,-9.3318,-9.2623,-9.2159,-9.2192,-9.1828,-9.1596,-9.1562,-9.1562,-9.1562,-9.1562,-9.1562,-9.1562,-9.1562,-9.1562,-9.1562,-9.1562,-9.1562,-9.1562,-9.1562,-9.1562,-9.1562,-9.1562,-9.1562,-9.1562,-9.1562,-9.1562,-9.1562,-9.1562,-9.1562,-9.1695,-9.1728,-9.1728,-9.1728,-9.1761,-9.1861,-9.1695,-9.1562,-9.1562,-9.1828,-9.1596,-9.1596,-9.1596,-9.1662,-9.2059,-9.2556,-9.3418,-9.4213,-9.4875,-9.2092,-9.1968,-9.172,-9.1562,-9.1562,-9.1562,-9.1562,-9.1562,-9.1562,-9.1562,-9.1562,-9.1629,-9.1993,-9.2556,-9.2921,-9.3318,-9.3948,-9.3948,-9.3881,-9.4047,-9.3881,-9.3881,-9.4378,-9.4411,-9.4743,-9.5041,-9.5074,-9.5637,-9.5604,-9.567,-9.567,-9.5438,-9.5505,-9.4941,-9.3782,-9.3451,-9.2656,-9.2026,-9.1562,-9.1562,-9.1562,-9.1562,-9.1695,-9.1861,-9.2523,-9.302,-9.3351,-9.4047,-9.4378,-9.4411,-9.4345,-9.4312,-9.4345,-9.4809,-9.4842,-9.4378,-9.4246,-9.4246,-9.4279,-9.4345,-9.4676,-9.5074,-9.5107,-9.5107,-9.5041,-9.4908,-9.461,-9.4014,-9.3351,-9.2788,-9.2556,-9.2159,-9.1794,-9.1562,-9.1562,-9.1562,-9.1562,-9.1562,-9.1562,-9.1562,-9.1562,-9.1562,-9.1562,-9.1562,-9.1562,-9.1562,-9.1562,-9.1562,-9.1562,-9.1562,-9.1562,-9.1562,-9.1562,-9.1562,-9.1562,-9.1562,-9.1794,-9.2059,-9.2126,-9.2192,-9.2225,-9.2291,-9.2159,-9.2225,-9.2291,-9.249,-9.2059,-9.1794,-9.1927,-9.2159,-9.2457,-9.3053,-9.3948,-9.4511,-9.5008,-9.1968,-9.1687,-9.1562,-9.1562,-9.1562,-9.1562,-9.1562,-9.1562,-9.1562,-9.1562,-9.1596,-9.1662,-9.2059,-9.2821,-9.3484,-9.4113,-9.4312,-9.408,-9.3948,-9.408,-9.3815,-9.4113,-9.5107,-9.4345,-9.4312,-9.4478,-9.4312,-9.4478,-9.4842,-9.4975,-9.4776,-9.4445,-9.4378,-9.3716,-9.3252,-9.3053,-9.2391,-9.1728,-9.1562,-9.1562,-9.1596,-9.1596,-9.196,-9.2523,-9.3252,-9.3881,-9.4378,-9.5041,-9.5505,-9.5571,-9.5637,-9.5703,-9.577,-9.5803,-9.5869,-9.577,-9.5736,-9.5736,-9.5604,-9.5505,-9.5505,-9.5703,-9.577,-9.5869,-9.567,-9.5273,-9.4941,-9.4809,-9.408,-9.3484,-9.3086,-9.2689,-9.2258,-9.1927,-9.1728,-9.1662,-9.1596,-9.1562,-9.1562,-9.1562,-9.1562,-9.1562,-9.1562,-9.1562,-9.1562,-9.1562,-9.1562,-9.1562,-9.1562,-9.1562,-9.1562,-9.1562,-9.1629,-9.1629,-9.1894,-9.1861,-9.2159,-9.2457,-9.2623,-9.2722,-9.2821,-9.2954,-9.3252,-9.3318,-9.3285,-9.3186,-9.2954,-9.2722,-9.2556,-9.2722,-9.3153,-9.3782,-9.4544,-9.4975,-9.5273,-9.172,-9.1562,-9.1562,-9.1562,-9.1562,-9.1562,-9.1562,-9.1562,-9.1562,-9.1562,-9.1695,-9.2059,-9.2821,-9.3749,-9.471,-9.471,-9.4345,-9.3881,-9.3384,-9.3153,-9.2888,-9.2987,-9.3252,-9.3285,-9.3451,-9.3616,-9.3716,-9.3649,-9.3981,-9.4478,-9.4676,-9.4378,-9.4312,-9.4146,-9.3086,-9.2854,-9.2291,-9.1794,-9.1562,-9.1562,-9.1662,-9.1993,-9.2391,-9.2755,-9.3815,-9.4511,-9.4975,-9.5604,-9.5968,-9.6001,-9.6001,-9.6001,-9.6001,-9.6001,-9.6001,-9.6001,-9.6001,-9.5968,-9.5968,-9.6001,-9.6001,-9.6001,-9.6001,-9.5968,-9.5935,-9.5736,-9.5505,-9.5505,-9.4842,-9.4279,-9.3848,-9.355,-9.2954,-9.249,-9.2225,-9.1894,-9.1761,-9.1596,-9.1562,-9.1562,-9.1562,-9.1562,-9.1562,-9.1562,-9.1562,-9.1562,-9.1562,-9.1562,-9.1562,-9.1562,-9.1562,-9.1562,-9.1662,-9.1761,-9.2126,-9.2324,-9.2788,-9.3086,-9.3285,-9.3418,-9.3517,-9.3716,-9.4014,-9.3948,-9.3683,-9.3616,-9.3716,-9.3517,-9.3219,-9.3517,-9.3881,-9.4445,-9.4975,-9.5405,-9.5703,-9.1562,-9.1562,-9.1562,-9.1562,-9.1562,-9.1562,-9.1562,-9.1562,-9.1562,-9.1562,-9.1761,-9.2324,-9.3318,-9.4179,-9.461,-9.4279,-9.3517,-9.3351,-9.2788,-9.2093,-9.1894,-9.2159,-9.2589,-9.2755,-9.2755,-9.2689,-9.2888,-9.2854,-9.2954,-9.3484,-9.408,-9.408,-9.3616,-9.355,-9.3186,-9.2623,-9.2026,-9.1662,-9.1828,-9.1927,-9.2026,-9.2623,-9.302,-9.355,-9.4246,-9.5008,-9.524,-9.567,-9.6001,-9.6001,-9.6001,-9.6001,-9.6001,-9.6001,-9.6001,-9.6001,-9.6001,-9.6001,-9.6001,-9.6001,-9.6001,-9.6001,-9.6001,-9.6001,-9.6001,-9.6001,-9.6001,-9.5902,-9.5538,-9.514,-9.4842,-9.4312,-9.3782,-9.3285,-9.2954,-9.2457,-9.2093,-9.2059,-9.1828,-9.1562,-9.1562,-9.1562,-9.1562,-9.1562,-9.1562,-9.1562,-9.1562,-9.1562,-9.1629,-9.1662,-9.1828,-9.1894,-9.2059,-9.2258,-9.2722,-9.3086,-9.3451,-9.3749,-9.3981,-9.4246,-9.4445,-9.4544,-9.471,-9.4511,-9.4213,-9.4511,-9.4842,-9.4345,-9.3948,-9.4411,-9.4776,-9.4908,-9.5273,-9.5736,-9.5968,-9.1562,-9.1562,-9.1562,-9.1562,-9.1562,-9.1562,-9.1562,-9.1562,-9.1562,-9.1596,-9.1794,-9.2358,-9.2788,-9.3053,-9.3318,-9.3252,-9.2788,-9.2059,-9.2126,-9.2424,-9.2623,-9.2689,-9.2788,-9.2689,-9.2589,-9.249,-9.2324,-9.196,-9.1861,-9.2556,-9.249,-9.196,-9.2523,-9.2059,-9.1927,-9.2026,-9.1927,-9.1828,-9.2192,-9.2556,-9.2788,-9.3318,-9.3948,-9.4478,-9.4842,-9.5206,-9.5869,-9.5968,-9.6001,-9.6001,-9.6001,-9.6001,-9.6001,-9.6001,-9.6001,-9.6001,-9.6001,-9.6001,-9.6001,-9.6001,-9.6001,-9.6001,-9.6001,-9.6001,-9.6001,-9.6001,-9.6001,-9.6001,-9.5803,-9.5538,-9.5173,-9.4776,-9.4478,-9.4014,-9.3649,-9.3285,-9.2921,-9.2689,-9.2391,-9.1794,-9.1761,-9.2059,-9.2093,-9.2225,-9.1728,-9.1695,-9.1629,-9.1629,-9.1794,-9.1894,-9.2225,-9.2391,-9.2589,-9.2954,-9.355,-9.3914,-9.4113,-9.4478,-9.4776,-9.514,-9.5538,-9.5571,-9.5339,-9.5405,-9.5273,-9.5637,-9.5736,-9.5074,-9.4776,-9.5372,-9.5637,-9.5505,-9.5538,-9.5869,-9.6001,-9.1562,-9.1562,-9.1562,-9.1562,-9.1562,-9.1562,-9.1562,-9.1562,-9.1562,-9.1861,-9.2258,-9.2589,-9.2954,-9.3219,-9.3318,-9.3086,-9.2722,-9.2457,-9.2225,-9.2026,-9.2059,-9.2192,-9.2258,-9.2258,-9.1993,-9.196,-9.1695,-9.1562,-9.1662,-9.196,-9.1861,-9.1728,-9.1927,-9.2258,-9.2192,-9.1861,-9.1861,-9.2225,-9.2589,-9.2854,-9.3517,-9.4047,-9.461,-9.4842,-9.5438,-9.567,-9.5968,-9.6001,-9.6001,-9.6001,-9.6001,-9.6001,-9.6001,-9.6001,-9.6001,-9.6001,-9.6001,-9.6001,-9.6001,-9.6001,-9.6001,-9.6001,-9.6001,-9.6001,-9.6001,-9.6001,-9.6001,-9.6001,-9.6001,-9.577,-9.5703,-9.5571,-9.5339,-9.4743,-9.4345,-9.4047,-9.3716,-9.3451,-9.3186,-9.2656,-9.2821,-9.3119,-9.3086,-9.3053,-9.2358,-9.1794,-9.1728,-9.1761,-9.2059,-9.2358,-9.2722,-9.3086,-9.3318,-9.3716,-9.4312,-9.4577,-9.4743,-9.5107,-9.5471,-9.5703,-9.5935,-9.5935,-9.5803,-9.6001,-9.6001,-9.5968,-9.5803,-9.5471,-9.5471,-9.577,-9.5836,-9.5803,-9.5902,-9.6001,-9.6001,-9.1562,-9.1562,-9.1562,-9.1562,-9.1562,-9.1562,-9.1562,-9.1562,-9.1562,-9.1828,-9.2358,-9.2391,-9.2623,-9.3053,-9.3086,-9.2821,-9.2358,-9.2225,-9.196,-9.1794,-9.1629,-9.1562,-9.1562,-9.1596,-9.1662,-9.1562,-9.1562,-9.1562,-9.1562,-9.1562,-9.1596,-9.1761,-9.2059,-9.2192,-9.2192,-9.2192,-9.2192,-9.2589,-9.3219,-9.3517,-9.4213,-9.4842,-9.5206,-9.5306,-9.5736,-9.5902,-9.6001,-9.6001,-9.6001,-9.6001,-9.6001,-9.6001,-9.6001,-9.6001,-9.6001,-9.6001,-9.6001,-9.6001,-9.6001,-9.6001,-9.6001,-9.6001,-9.6001,-9.6001,-9.6001,-9.6001,-9.6001,-9.6001,-9.6001,-9.6001,-9.6001,-9.5902,-9.5803,-9.5273,-9.524,-9.4975,-9.4445,-9.4113,-9.3881,-9.3583,-9.3716,-9.3649,-9.3616,-9.3484,-9.3285,-9.2755,-9.2722,-9.2755,-9.2888,-9.3153,-9.3384,-9.3749,-9.4113,-9.4577,-9.5107,-9.5206,-9.5339,-9.5471,-9.577,-9.5836,-9.6001,-9.6001,-9.6001,-9.6001,-9.6001,-9.6001,-9.5902,-9.5703,-9.577,-9.5968,-9.5968,-9.5902,-9.5935,-9.6001,-9.6001,-9.1562,-9.1562,-9.1562,-9.1562,-9.1562,-9.1562,-9.1562,-9.1562,-9.1562,-9.1629,-9.1728,-9.1695,-9.1728,-9.1828,-9.1993,-9.1894,-9.1828,-9.1728,-9.1629,-9.1596,-9.1562,-9.1562,-9.1562,-9.1562,-9.1562,-9.1562,-9.1562,-9.1562,-9.1562,-9.1562,-9.1562,-9.1629,-9.1828,-9.1927,-9.1761,-9.2358,-9.2656,-9.2921,-9.4146,-9.4577,-9.5008,-9.5538,-9.5736,-9.5836,-9.5902,-9.6001,-9.6001,-9.6001,-9.6001,-9.6001,-9.6001,-9.6001,-9.6001,-9.6001,-9.6001,-9.6001,-9.6001,-9.6001,-9.6001,-9.6001,-9.6001,-9.6001,-9.6001,-9.6001,-9.6001,-9.6001,-9.6001,-9.6001,-9.6001,-9.6001,-9.6001,-9.6001,-9.5935,-9.5869,-9.5803,-9.5637,-9.5107,-9.4875,-9.4643,-9.4544,-9.4146,-9.3848,-9.3881,-9.3881,-9.3948,-9.3815,-9.3782,-9.3782,-9.3749,-9.3881,-9.4113,-9.4511,-9.4875,-9.5107,-9.5538,-9.577,-9.5935,-9.6001,-9.6001,-9.6001,-9.6001,-9.6001,-9.6001,-9.6001,-9.6001,-9.6001,-9.6001,-9.5968,-9.6001,-9.6001,-9.6001,-9.6001,-9.6001,-9.6001,-9.6001,-9.1562,-9.1562,-9.1562,-9.1562,-9.1562,-9.1562,-9.1562,-9.1562,-9.1562,-9.1562,-9.1562,-9.1562,-9.1562,-9.1562,-9.1562,-9.1562,-9.1562,-9.1562,-9.1562,-9.1562,-9.1437,-9.1562,-9.1562,-9.1437,-9.1562,-9.1562,-9.1562,-9.1562,-9.1562,-9.1662,-9.1596,-9.1629,-9.2192,-9.2291,-9.2523,-9.3053,-9.3583,-9.4113,-9.471,-9.5107,-9.5604,-9.5869,-9.6001,-9.6001,-9.6001,-9.6001,-9.6001,-9.6001,-9.6001,-9.6001,-9.6001,-9.6001,-9.6001,-9.6001,-9.6001,-9.6001,-9.6001,-9.6001,-9.6001,-9.6001,-9.6001,-9.6001,-9.6001,-9.6001,-9.6001,-9.6001,-9.6001,-9.6001,-9.6001,-9.6001,-9.6001,-9.6001,-9.5968,-9.5968,-9.5935,-9.5902,-9.5637,-9.5637,-9.5538,-9.5505,-9.5273,-9.514,-9.5074,-9.4809,-9.4776,-9.461,-9.4511,-9.4478,-9.4445,-9.4577,-9.4776,-9.5273,-9.5637,-9.5736,-9.5935,-9.5968,-9.6001,-9.6001,-9.6001,-9.6001,-9.6001,-9.6001,-9.6001,-9.6001,-9.6001,-9.6001,-9.6001,-9.6001,-9.6001,-9.6001,-9.6001,-9.6001,-9.6001,-9.6001,-9.6001,-9.0065,-9.0065,-9.0065,-9.0356,-9.0867,-9.1437,-9.1562,-9.1562,-9.1562,-9.1562,-9.1562,-9.1562,-9.1562,-9.1562,-9.1562,-9.1562,-9.1562,-9.1562,-9.1027,-9.1027,-9.0773,-9.074,-9.074,-9.09,-9.1027,-9.1312,-9.1562,-9.1562,-9.1596,-9.1861,-9.2159,-9.2589,-9.3053,-9.3451,-9.3683,-9.4047,-9.4345,-9.4776,-9.514,-9.5538,-9.5836,-9.6001,-9.6001,-9.6001,-9.6001,-9.6001,-9.6001,-9.6001,-9.6001,-9.6001,-9.6001,-9.6001,-9.6001,-9.6001,-9.6001,-9.6001,-9.6001,-9.6001,-9.6001,-9.6001,-9.6001,-9.6001,-9.6001,-9.6001,-9.6001,-9.6001,-9.6001,-9.6001,-9.6001,-9.6001,-9.6001,-9.6001,-9.6001,-9.6001,-9.6001,-9.5968,-9.5968,-9.5935,-9.5935,-9.5968,-9.5968,-9.6001,-9.6001,-9.5935,-9.5703,-9.5438,-9.5206,-9.5173,-9.5107,-9.5206,-9.5306,-9.567,-9.5968,-9.5968,-9.5968,-9.6001,-9.6001,-9.6001,-9.6001,-9.6001,-9.6001,-9.6001,-9.6001,-9.6001,-9.6001,-9.6001,-9.6001,-9.6001,-9.6001,-9.6001,-9.6001,-9.6001,-9.6001,-9.6001,-9.6001,-8.7159,-8.7159,-8.7159,-8.8148,-8.9544,-9.09,-9.1437,-9.1562,-9.1562,-9.1562,-9.1562,-9.1437,-9.1279,-9.1312,-9.1312,-9.1279,-9.1312,-9.1312,-9.09,-9.0065,-8.9936,-8.9806,-8.9675,-8.9675,-9.0356,-9.1027,-9.1596,-9.1662,-9.1695,-9.2391,-9.3053,-9.3683,-9.4213,-9.4511,-9.471,-9.4875,-9.5008,-9.5273,-9.5571,-9.5836,-9.6001,-9.6001,-9.6001,-9.6001,-9.6001,-9.6001,-9.6001,-9.6001,-9.6001,-9.6001,-9.6001,-9.6001,-9.6001,-9.6001,-9.6001,-9.6001,-9.6001,-9.6001,-9.6001,-9.6001,-9.6001,-9.6001,-9.6001,-9.6001,-9.6001,-9.6001,-9.6001,-9.6001,-9.6001,-9.6001,-9.6001,-9.6001,-9.6001,-9.6001,-9.6001,-9.6001,-9.6001,-9.6001,-9.6001,-9.6001,-9.6001,-9.6001,-9.6001,-9.6001,-9.6001,-9.5869,-9.5637,-9.567,-9.5637,-9.567,-9.5736,-9.577,-9.6001,-9.6001,-9.6001,-9.6001,-9.6001,-9.6001,-9.6001,-9.6001,-9.6001,-9.6001,-9.6001,-9.6001,-9.6001,-9.6001,-9.6001,-9.6001,-9.6001,-9.6001,-9.6001,-9.6001,-9.6001,-9.6001,-9.6001,-8.7159,-8.7159,-8.7159,-8.8012,-8.938,-8.9806,-9.0612,-9.1562,-9.1562,-9.1562,-9.1562,-9.0484,-9.0065,-8.9968,-8.8952,-8.9249,-8.9675,-9.0227,-9.0612,-9.0227,-8.9249,-8.938,-8.9249,-8.9117,-8.9675,-9.0227,-9.0839,-9.1483,-9.2298,-9.2959,-9.372,-9.4544,-9.4419,-9.4913,-9.5341,-9.567,-9.5637,-9.567,-9.5902,-9.5968,-9.6001,-9.6001,-9.6001,-9.6001,-9.6001,-9.6001,-9.6001,-9.6001,-9.6001,-9.6001,-9.6001,-9.6001,-9.6001,-9.6001,-9.6001,-9.6001,-9.6001,-9.6001,-9.6001,-9.6001,-9.6001,-9.6001,-9.6001,-9.6001,-9.6001,-9.6001,-9.6001,-9.6001,-9.6001,-9.6001,-9.6001,-9.6001,-9.6001,-9.6001,-9.6001,-9.6001,-9.6001,-9.6001,-9.6001,-9.6001,-9.6001,-9.6001,-9.6001,-9.6001,-9.6001,-9.6001,-9.6001,-9.6001,-9.6001,-9.6001,-9.6001,-9.6001,-9.6001,-9.6001,-9.6001,-9.6001,-9.6001,-9.6001,-9.6001,-9.6001,-9.6001,-9.6001,-9.6001,-9.6001,-9.6001,-9.6001,-9.6001,-9.6001,-9.6001,-9.6001,-9.6001,-9.6001,-9.6001,-9.6001,-9.6001,-8.5533,-8.5533,-8.5533,-8.6354,-8.774,-8.8851,-8.9675,-8.9936,-8.9936,-8.9936,-8.9806,-8.8952,-8.8552,-8.8449,-8.774,-8.774,-8.8449,-8.8552,-8.8552,-8.8012,-8.8283,-8.7603,-8.7603,-8.7876,-8.8012,-8.8782,-8.9572,-9.0193,-9.1239,-9.1952,-9.2598,-9.3248,-9.3449,-9.4147,-9.4678,-9.491,-9.5375,-9.5673,-9.6001,-9.6001,-9.6001,-9.6001,-9.6001,-9.6001,-9.6001,-9.6001,-9.6001,-9.6001,-9.6001,-9.6001,-9.6001,-9.6001,-9.6001,-9.6001,-9.6001,-9.6001,-9.6001,-9.6001,-9.6001,-9.6001,-9.6001,-9.6001,-9.6001,-9.6001,-9.6001,-9.6001,-9.6001,-9.6001,-9.6001,-9.6001,-9.6001,-9.6001,-9.6001,-9.6001,-9.6001,-9.6001,-9.6001,-9.6001,-9.6001,-9.6001,-9.6001,-9.6001,-9.6001,-9.6001,-9.6001,-9.6001,-9.6001,-9.6001,-9.6001,-9.6001,-9.6001,-9.6001,-9.6001,-9.6001,-9.6001,-9.6001,-9.6001,-9.6001,-9.6001,-9.6001,-9.6001,-9.6001,-9.6001,-9.6001,-9.6001,-9.6001,-9.6001,-9.6001,-9.6001,-9.6001,-9.6001,-9.6001,-9.6001,-9.6001,-9.6001,-8.289,-8.289,-8.292,-8.4025,-8.5277,-8.774,-8.8148,-8.7052,-8.6913,-8.702,-8.7297,-8.719,-8.702,-8.6913,-8.6494,-8.6494,-8.6913,-8.7052,-8.6913,-8.5277,-8.5819,-8.5676,-8.5533,-8.5133,-8.6338,-8.7088,-8.7993,-8.9129,-8.9083,-9.0252,-9.138,-9.1299,-9.1555,-9.2333,-9.3346,-9.3549,-9.3962,-9.4539,-9.5276,-9.5574,-9.587,-9.6001,-9.6001,-9.6001,-9.6001,-9.6001,-9.6001,-9.6001,-9.6001,-9.6001,-9.6001,-9.6001,-9.6001,-9.6001,-9.6001,-9.6001,-9.6001,-9.6001,-9.6001,-9.6001,-9.6001,-9.6001,-9.6001,-9.6001,-9.6001,-9.6001,-9.6001,-9.6001,-9.6001,-9.6001,-9.6001,-9.6001,-9.6001,-9.6001,-9.6001,-9.6001,-9.6001,-9.6001,-9.6001,-9.6001,-9.6001,-9.6001,-9.6001,-9.6001,-9.6001,-9.6001,-9.6001,-9.6001,-9.6001,-9.6001,-9.6001,-9.6001,-9.6001,-9.6001,-9.6001,-9.6001,-9.6001,-9.6001,-9.6001,-9.6001,-9.6001,-9.6001,-9.6001,-9.6001,-9.6001,-9.6001,-9.6001,-9.6001,-9.6001,-9.6001,-9.6001,-9.6001,-9.6001,-9.6001,-9.6001,-8.2769,-8.289,-8.4025,-8.4728,-8.4988,-8.5676,-8.5961,-8.539,-8.4289,-8.5102,-8.6634,-8.6071,-8.5533,-8.539,-8.4552,-8.4552,-8.539,-8.5533,-8.593,-8.5676,-8.5246,-8.4728,-8.4874,-8.482,-8.541,-8.6359,-8.748,-8.8472,-8.9146,-9.0139,-9.0933,-9.1154,-9.104,-9.1185,-9.1794,-9.1938,-9.2223,-9.3068,-9.4132,-9.5009,-9.5706,-9.587,-9.6001,-9.6001,-9.6001,-9.6001,-9.6001,-9.6001,-9.6001,-9.6001,-9.6001,-9.6001,-9.6001,-9.6001,-9.6001,-9.6001,-9.6001,-9.6001,-9.6001,-9.6001,-9.6001,-9.6001,-9.6001,-9.6001,-9.6001,-9.6001,-9.6001,-9.6001,-9.6001,-9.6001,-9.6001,-9.6001,-9.6001,-9.6001,-9.6001,-9.6001,-9.6001,-9.6001,-9.6001,-9.6001,-9.6001,-9.6001,-9.6001,-9.6001,-9.6001,-9.6001,-9.6001,-9.6001,-9.6001,-9.6001,-9.6001,-9.6001,-9.6001,-9.6001,-9.6001,-9.6001,-9.6001,-9.6001,-9.6001,-9.6001,-9.6001,-9.6001,-9.6001,-9.6001,-9.6001,-9.6001,-9.6001,-9.6001,-9.6001,-9.6001,-9.6001,-9.6001,-9.6001,-9.6001,-9.6001,-8.2769,-8.3041,-8.4436,-8.4582,-8.4172,-8.4728,-8.4728,-8.3877,-8.3191,-8.3729,-8.4988,-8.4436,-8.4025,-8.4025,-8.3191,-8.3041,-8.4025,-8.4025,-8.4289,-8.4552,-8.4697,-8.4142,-8.4086,-8.4447,-8.4454,-8.5296,-8.6477,-8.7481,-8.8762,-8.8833,-8.911,-8.9443,-8.9443,-8.9743,-9.0041,-9.0338,-9.0601,-9.1475,-9.282,-9.3995,-9.5142,-9.5574,-9.587,-9.6001,-9.6001,-9.6001,-9.6001,-9.6001,-9.6001,-9.6001,-9.6001,-9.6001,-9.6001,-9.6001,-9.6001,-9.6001,-9.6001,-9.6001,-9.6001,-9.6001,-9.6001,-9.6001,-9.6001,-9.6001,-9.6001,-9.6001,-9.6001,-9.6001,-9.6001,-9.6001,-9.6001,-9.6001,-9.6001,-9.6001,-9.6001,-9.6001,-9.6001,-9.6001,-9.6001,-9.6001,-9.6001,-9.6001,-9.6001,-9.6001,-9.6001,-9.6001,-9.6001,-9.6001,-9.6001,-9.6001,-9.6001,-9.6001,-9.6001,-9.6001,-9.6001,-9.6001,-9.6001,-9.6001,-9.6001,-9.6001,-9.6001,-9.6001,-9.6001,-9.6001,-9.6001,-9.6001,-9.6001,-9.6001,-9.6001,-9.6001,-9.6001,-9.6001,-9.6001,-9.6001,-9.6001,-8.2769,-8.3041,-8.4172,-8.4025,-8.3041,-8.4142,-8.4025,-8.3041,-8.2769,-8.2769,-8.3041,-8.3041,-8.2769,-8.2769,-8.2769,-8.2769,-8.289,-8.3191,-8.3191,-8.3191,-8.3041,-8.3342,-8.3431,-8.3549,-8.4092,-8.4723,-8.5658,-8.6446,-8.7109,-8.726,-8.726,-8.6817,-8.6975,-8.7416,-8.8287,-8.8868,-8.9172,-9.0189,-9.1506,-9.282,-9.3995,-9.5142,-9.5739,-9.6001,-9.6001,-9.6001,-9.6001,-9.6001,-9.6001,-9.6001,-9.6001,-9.6001,-9.6001,-9.6001,-9.6001,-9.6001,-9.6001,-9.6001,-9.6001,-9.6001,-9.6001,-9.6001,-9.6001,-9.6001,-9.6001,-9.6001,-9.6001,-9.6001,-9.6001,-9.6001,-9.6001,-9.6001,-9.6001,-9.6001,-9.6001,-9.6001,-9.6001,-9.6001,-9.6001,-9.6001,-9.6001,-9.6001,-9.6001,-9.6001,-9.6001,-9.6001,-9.6001,-9.6001,-9.6001,-9.6001,-9.6001,-9.6001,-9.6001,-9.6001,-9.6001,-9.6001,-9.6001,-9.6001,-9.6001,-9.6001,-9.6001,-9.6001,-9.6001,-9.6001,-9.6001,-9.6001,-9.6001,-9.6001,-9.6001,-9.6001,-9.6001,-9.6001,-9.6001,-9.6001,-9.6001,-8.2769,-8.2769,-8.3191,-8.3041,-8.289,-8.3191,-8.3041,-8.292,-8.2769,-8.2769,-8.2769,-8.2769,-8.2769,-8.2769,-8.2769,-8.2769,-8.2769,-8.2769,-8.2769,-8.2769,-8.2858,-8.3158,-8.3517,-8.3906,-8.4444,-8.5192,-8.597,-8.6449,-8.6689,-8.6689,-8.6689,-8.6689,-8.6689,-8.6817,-8.6975,-8.7416,-8.7698,-8.8716,-8.9593,-9.0925,-9.2647,-9.3962,-9.5706,-9.6001,-9.6001,-9.6001,-9.6001,-9.6001,-9.6001,-9.6001,-9.6001,-9.6001,-9.6001,-9.6001,-9.6001,-9.6001,-9.6001,-9.6001,-9.6001,-9.6001,-9.6001,-9.6001,-9.6001,-9.6001,-9.6001,-9.6001,-9.6001,-9.6001,-9.6001,-9.6001,-9.6001,-9.6001,-9.6001,-9.6001,-9.6001,-9.6001,-9.6001,-9.6001,-9.6001,-9.6001,-9.6001,-9.6001,-9.6001,-9.6001,-9.6001,-9.6001,-9.6001,-9.6001,-9.6001,-9.6001,-9.6001,-9.6001,-9.6001,-9.6001,-9.6001,-9.6001,-9.6001,-9.6001,-9.6001,-9.6001,-9.6001,-9.6001,-9.6001,-9.6001,-9.6001,-9.6001,-9.6001,-9.6001,-9.6001,-9.6001,-9.6001,-9.6001,-9.6001,-9.6001,-9.6001]}]]